| time (UTC) | temp F | wind direction | speed MPH | gust MPH | rain 1hr in | rain 24hr in | rain mn in | humidity % | barometer mb |
| 20260509143722 | 64 | 67 | 0.0 | 3.0 | 0.00 | 0.00 | 0.00 | 61 | 1010.6 |
| 20260509143628 | 64 | 82 | 0.0 | 3.0 | 0.00 | 0.00 | 0.00 | 64 | 1010.6 |
| 20260509143515 | 64 | 308 | 0.0 | 3.0 | 0.00 | 0.00 | 0.00 | 63 | 1010.6 |
| 20260509143421 | 64 | 13 | 0.0 | 3.0 | 0.00 | 0.00 | 0.00 | 63 | 1010.6 |
| 20260509143312 | 63 | 32 | 0.0 | 3.0 | 0.00 | 0.00 | 0.00 | 64 | 1010.6 |
| 20260509143218 | 63 | 51 | 0.0 | 3.0 | 0.00 | 0.00 | 0.00 | 64 | 1010.6 |
| 20260509143131 | 63 | 102 | 0.0 | 3.0 | 0.00 | 0.00 | 0.00 | 65 | 1010.6 |
| 20260509143017 | 63 | 38 | 0.0 | 0.0 | 0.00 | 0.00 | 0.00 | 65 | 1010.6 |
| 20260509143007 | 62 | 301 | 0.0 | 0.0 | 0.00 | 0.00 | 0.00 | 65 | 1010.5 |
| 20260509142923 | 63 | 336 | 0.0 | 0.0 | 0.00 | 0.00 | 0.00 | 68 | 1010.6 |
| 20260509142814 | 63 | 61 | 0.0 | 0.0 | 0.00 | 0.00 | 0.00 | 69 | 1010.6 |
| 20260509142720 | 63 | 71 | 0.0 | 0.0 | 0.00 | 0.00 | 0.00 | 67 | 1010.6 |
| 20260509142626 | 62 | 90 | 0.0 | 0.0 | 0.00 | 0.00 | 0.00 | 65 | 1010.6 |
| 20260509142540 | 62 | 254 | 0.0 | 0.0 | 0.00 | 0.00 | 0.00 | 64 | 1010.7 |
| 20260509142425 | 62 | 192 | 0.0 | 0.0 | 0.00 | 0.00 | 0.00 | 66 | 1010.7 |
| 20260509142331 | 62 | 88 | 0.0 | 0.0 | 0.00 | 0.00 | 0.00 | 65 | 1010.9 |
| 20260509142227 | 62 | 30 | 0.0 | 0.0 | 0.00 | 0.00 | 0.00 | 66 | 1010.9 |
| 20260509142113 | 62 | 55 | 0.0 | 1.0 | 0.00 | 0.00 | 0.00 | 65 | 1010.9 |
| 20260509142039 | 62 | 73 | 0.0 | 1.0 | 0.00 | 0.00 | 0.00 | 66 | 1010.9 |
| 20260509141931 | 62 | 74 | 0.0 | 1.0 | 0.00 | 0.00 | 0.00 | 68 | 1010.9 |
| 20260509141810 | 61 | 74 | 0.0 | 1.0 | 0.00 | 0.00 | 0.00 | 66 | 1010.8 |
| 20260509141722 | 61 | 74 | 0.0 | 1.0 | 0.00 | 0.00 | 0.00 | 65 | 1010.8 |
| 20260509141613 | 61 | 59 | 0.0 | 1.0 | 0.00 | 0.00 | 0.00 | 67 | 1010.8 |
| 20260509141550 | 61 | 271 | 0.0 | 1.0 | 0.00 | 0.00 | 0.00 | 67 | 1010.6 |
| 20260509141519 | 61 | 152 | 0.0 | 1.0 | 0.00 | 0.00 | 0.00 | 67 | 1010.8 |
| 20260509141425 | 61 | 158 | 0.0 | 1.0 | 0.00 | 0.00 | 0.00 | 66 | 1010.8 |
| 20260509141311 | 61 | 271 | 0.0 | 0.0 | 0.00 | 0.00 | 0.00 | 66 | 1010.8 |
| 20260509141223 | 61 | 272 | 0.0 | 1.0 | 0.00 | 0.00 | 0.00 | 65 | 1010.8 |
| 20260509141113 | 61 | 84 | 0.0 | 1.0 | 0.00 | 0.00 | 0.00 | 67 | 1010.8 |
| 20260509141021 | 61 | 76 | 0.0 | 1.0 | 0.00 | 0.00 | 0.00 | 67 | 1010.8 |
| 20260509140954 | 61 | 85 | 0.0 | 1.0 | 0.00 | 0.00 | 0.00 | 66 | 1010.8 |
| 20260509140811 | 61 | 56 | 0.0 | 1.0 | 0.00 | 0.00 | 0.00 | 66 | 1010.8 |
| 20260509140724 | 61 | 50 | 0.0 | 1.0 | 0.00 | 0.00 | 0.00 | 66 | 1010.8 |
| 20260509140610 | 61 | 30 | 0.0 | 1.0 | 0.00 | 0.00 | 0.00 | 67 | 1010.9 |
| 20260509140521 | 61 | 278 | 0.0 | 1.0 | 0.00 | 0.00 | 0.00 | 67 | 1010.9 |
| 20260509140454 | 61 | 275 | 0.0 | 1.0 | 0.00 | 0.00 | 0.00 | 67 | 1011.0 |
| 20260509140338 | 61 | 88 | 0.0 | 1.0 | 0.00 | 0.00 | 0.00 | 68 | 1011.0 |
| 20260509140250 | 61 | 90 | 0.0 | 1.0 | 0.00 | 0.00 | 0.00 | 67 | 1011.0 |
| 20260509140116 | 61 | 86 | 0.0 | 1.0 | 0.00 | 0.00 | 0.00 | 69 | 1011.1 |
| 20260509140106 | 60 | 86 | 0.0 | 1.0 | 0.00 | 0.00 | 0.00 | 69 | 1010.9 |
| 20260509140023 | 60 | 203 | 0.0 | 1.0 | 0.00 | 0.00 | 0.00 | 70 | 1011.1 |
| 20260509135909 | 60 | 202 | 0.0 | 1.0 | 0.00 | 0.00 | 0.00 | 69 | 1011.1 |
| 20260509135820 | 60 | 202 | 0.0 | 1.0 | 0.00 | 0.00 | 0.00 | 70 | 1011.1 |
| 20260509135725 | 60 | 202 | 0.0 | 1.0 | 0.00 | 0.00 | 0.00 | 69 | 1011.1 |
| 20260509135611 | 60 | 201 | 0.0 | 1.0 | 0.00 | 0.00 | 0.00 | 69 | 1011.1 |
| 20260509135524 | 60 | 201 | 0.0 | 1.0 | 0.00 | 0.00 | 0.00 | 70 | 1011.1 |
| 20260509135411 | 60 | 201 | 0.0 | 1.0 | 0.00 | 0.00 | 0.00 | 69 | 1011.1 |
| 20260509135321 | 60 | 201 | 0.0 | 1.0 | 0.00 | 0.00 | 0.00 | 70 | 1011.1 |
| 20260509135228 | 60 | 165 | 0.0 | 1.0 | 0.00 | 0.00 | 0.00 | 69 | 1011.2 |
| 20260509135142 | 60 | 165 | 0.0 | 1.0 | 0.00 | 0.00 | 0.00 | 70 | 1011.2 |
| 20260509135026 | 60 | 161 | 0.0 | 1.0 | 0.00 | 0.00 | 0.00 | 70 | 1011.2 |
| 20260509134913 | 60 | 71 | 0.0 | 1.0 | 0.00 | 0.00 | 0.00 | 70 | 1011.2 |
| 20260509134839 | 60 | 71 | 0.0 | 1.0 | 0.00 | 0.00 | 0.00 | 70 | 1011.2 |
| 20260509134709 | 60 | 50 | 0.0 | 0.0 | 0.00 | 0.00 | 0.00 | 70 | 1011.2 |
| 20260509134622 | 60 | 50 | 0.0 | 0.0 | 0.00 | 0.00 | 0.00 | 70 | 1011.2 |
| 20260509134605 | 59 | 50 | 0.0 | 0.0 | 0.00 | 0.00 | 0.00 | 70 | 1011.1 |
| 20260509134528 | 60 | 49 | 0.0 | 0.0 | 0.00 | 0.00 | 0.00 | 70 | 1011.2 |
| 20260509134415 | 59 | 112 | 0.0 | 0.0 | 0.00 | 0.00 | 0.00 | 70 | 1011.2 |
| 20260509134321 | 59 | 112 | 0.0 | 0.0 | 0.00 | 0.00 | 0.00 | 71 | 1011.3 |
| 20260509134227 | 59 | 112 | 0.0 | 0.0 | 0.00 | 0.00 | 0.00 | 72 | 1011.3 |
| 20260509134117 | 59 | 112 | 0.0 | 0.0 | 0.00 | 0.00 | 0.00 | 72 | 1011.3 |
| 20260509134030 | 59 | 112 | 0.0 | 0.0 | 0.00 | 0.00 | 0.00 | 73 | 1011.4 |
| 20260509133916 | 59 | 112 | 0.0 | 0.0 | 0.00 | 0.00 | 0.00 | 71 | 1011.4 |
| 20260509133823 | 59 | 112 | 0.0 | 0.0 | 0.00 | 0.00 | 0.00 | 71 | 1011.4 |
| 20260509133710 | 59 | 112 | 0.0 | 0.0 | 0.00 | 0.00 | 0.00 | 71 | 1011.4 |
| 20260509133644 | 59 | 116 | 0.0 | 0.0 | 0.00 | 0.00 | 0.00 | 72 | 1011.4 |
| 20260509133533 | 59 | 116 | 0.0 | 0.0 | 0.00 | 0.00 | 0.00 | 71 | 1011.4 |
| 20260509133445 | 59 | 120 | 0.0 | 0.0 | 0.00 | 0.00 | 0.00 | 71 | 1011.4 |
| 20260509133310 | 59 | 179 | 0.0 | 0.0 | 0.00 | 0.00 | 0.00 | 70 | 1011.5 |
| 20260509133216 | 59 | 184 | 0.0 | 0.0 | 0.00 | 0.00 | 0.00 | 70 | 1011.5 |
| 20260509133121 | 59 | 303 | 0.0 | 0.0 | 0.00 | 0.00 | 0.00 | 71 | 1011.4 |
| 20260509133041 | 58 | 303 | 0.0 | 0.0 | 0.00 | 0.00 | 0.00 | 72 | 1011.3 |
| 20260509133028 | 59 | 303 | 0.0 | 0.0 | 0.00 | 0.00 | 0.00 | 72 | 1011.4 |
| 20260509132918 | 59 | 303 | 0.0 | 0.0 | 0.00 | 0.00 | 0.00 | 72 | 1011.4 |
| 20260509132831 | 58 | 303 | 0.0 | 0.0 | 0.00 | 0.00 | 0.00 | 72 | 1011.4 |
| 20260509132717 | 58 | 303 | 0.0 | 0.0 | 0.00 | 0.00 | 0.00 | 72 | 1011.5 |
| 20260509132623 | 58 | 303 | 0.0 | 0.0 | 0.00 | 0.00 | 0.00 | 72 | 1011.4 |
| 20260509132510 | 58 | 303 | 0.0 | 0.0 | 0.00 | 0.00 | 0.00 | 72 | 1011.5 |
| 20260509132421 | 58 | 302 | 0.0 | 0.0 | 0.00 | 0.00 | 0.00 | 72 | 1011.5 |
| 20260509132334 | 58 | 291 | 0.0 | 0.0 | 0.00 | 0.00 | 0.00 | 72 | 1011.4 |
| 20260509132212 | 58 | 300 | 0.0 | 0.0 | 0.00 | 0.00 | 0.00 | 72 | 1011.5 |
| 20260509132125 | 58 | 5 | 0.0 | 0.0 | 0.00 | 0.00 | 0.00 | 72 | 1011.5 |
| 20260509132012 | 58 | 44 | 0.0 | 0.0 | 0.00 | 0.00 | 0.00 | 73 | 1011.6 |
| 20260509131936 | 58 | 332 | 0.0 | 0.0 | 0.00 | 0.00 | 0.00 | 73 | 1011.6 |
| 20260509131833 | 58 | 278 | 0.0 | 0.0 | 0.00 | 0.00 | 0.00 | 73 | 1011.5 |
| 20260509131738 | 58 | 267 | 0.0 | 0.0 | 0.00 | 0.00 | 0.00 | 73 | 1011.5 |
| 20260509131629 | 58 | 267 | 0.0 | 0.0 | 0.00 | 0.00 | 0.00 | 73 | 1011.6 |
| 20260509131516 | 58 | 64 | 0.0 | 0.0 | 0.00 | 0.00 | 0.00 | 74 | 1011.5 |
| 20260509131505 | 57 | 64 | 0.0 | 0.0 | 0.00 | 0.00 | 0.00 | 74 | 1011.3 |
| 20260509131440 | 58 | 53 | 0.0 | 0.0 | 0.00 | 0.00 | 0.00 | 73 | 1011.5 |
| 20260509131312 | 58 | 53 | 0.0 | 0.0 | 0.00 | 0.00 | 0.00 | 74 | 1011.5 |
| 20260509131216 | 58 | 53 | 0.0 | 0.0 | 0.00 | 0.00 | 0.00 | 74 | 1011.5 |
| 20260509131126 | 58 | 53 | 0.0 | 0.0 | 0.00 | 0.00 | 0.00 | 75 | 1011.6 |
| 20260509131013 | 58 | 55 | 0.0 | 0.0 | 0.00 | 0.00 | 0.00 | 74 | 1011.6 |
| 20260509130946 | 58 | 55 | 0.0 | 0.0 | 0.00 | 0.00 | 0.00 | 76 | 1011.6 |
| 20260509130831 | 58 | 55 | 0.0 | 0.0 | 0.00 | 0.00 | 0.00 | 74 | 1011.6 |
| 20260509130743 | 58 | 55 | 0.0 | 0.0 | 0.00 | 0.00 | 0.00 | 74 | 1011.6 |
| 20260509130628 | 58 | 53 | 0.0 | 0.0 | 0.00 | 0.00 | 0.00 | 75 | 1011.6 |
| 20260509130514 | 57 | 290 | 0.0 | 0.0 | 0.00 | 0.00 | 0.00 | 78 | 1011.6 |
| 20260509130425 | 57 | 290 | 0.0 | 0.0 | 0.00 | 0.00 | 0.00 | 76 | 1011.6 |
| 20260509130311 | 57 | 290 | 0.0 | 0.0 | 0.00 | 0.00 | 0.00 | 75 | 1011.6 |
| 20260509130217 | 57 | 290 | 0.0 | 0.0 | 0.00 | 0.00 | 0.00 | 74 | 1011.6 |
| 20260509130130 | 57 | 290 | 0.0 | 0.0 | 0.00 | 0.00 | 0.00 | 75 | 1011.5 |
| 20260509130108 | 57 | 290 | 0.0 | 0.0 | 0.00 | 0.00 | 0.00 | 75 | 1011.4 |
| 20260509130016 | 57 | 290 | 0.0 | 0.0 | 0.00 | 0.00 | 0.00 | 76 | 1011.6 |
| 20260509125927 | 57 | 290 | 0.0 | 0.0 | 0.00 | 0.00 | 0.00 | 77 | 1011.5 |
| 20260509125813 | 57 | 290 | 0.0 | 0.0 | 0.00 | 0.00 | 0.00 | 75 | 1011.5 |
| 20260509125720 | 57 | 290 | 0.0 | 0.0 | 0.00 | 0.00 | 0.00 | 75 | 1011.5 |
| 20260509125633 | 57 | 290 | 0.0 | 0.0 | 0.00 | 0.00 | 0.00 | 75 | 1011.5 |
| 20260509125520 | 57 | 290 | 0.0 | 0.0 | 0.00 | 0.00 | 0.00 | 75 | 1011.5 |
| 20260509125410 | 56 | 290 | 0.0 | 0.0 | 0.00 | 0.00 | 0.00 | 75 | 1011.5 |
| 20260509125316 | 56 | 290 | 0.0 | 0.0 | 0.00 | 0.00 | 0.00 | 75 | 1011.5 |
| 20260509125223 | 56 | 290 | 0.0 | 0.0 | 0.00 | 0.00 | 0.00 | 75 | 1011.5 |
| 20260509125156 | 56 | 290 | 0.0 | 0.0 | 0.00 | 0.00 | 0.00 | 76 | 1011.5 |
| 20260509125021 | 56 | 290 | 0.0 | 0.0 | 0.00 | 0.00 | 0.00 | 77 | 1011.4 |
| 20260509124928 | 56 | 290 | 0.0 | 0.0 | 0.00 | 0.00 | 0.00 | 78 | 1011.4 |
| 20260509124818 | 56 | 290 | 0.0 | 0.0 | 0.00 | 0.00 | 0.00 | 76 | 1011.4 |
| 20260509124724 | 56 | 290 | 0.0 | 0.0 | 0.00 | 0.00 | 0.00 | 76 | 1011.4 |
| 20260509124634 | 56 | 291 | 0.0 | 0.0 | 0.00 | 0.00 | 0.00 | 77 | 1011.2 |
| 20260509124610 | 56 | 65 | 0.0 | 0.0 | 0.00 | 0.00 | 0.00 | 77 | 1011.4 |
| 20260509124543 | 56 | 65 | 0.0 | 0.0 | 0.00 | 0.00 | 0.00 | 77 | 1011.4 |
| 20260509124409 | 56 | 65 | 0.0 | 0.0 | 0.00 | 0.01 | 0.00 | 77 | 1011.4 |
| 20260509124335 | 56 | 65 | 0.0 | 0.0 | 0.00 | 0.01 | 0.00 | 77 | 1011.4 |
| 20260509124227 | 56 | 65 | 0.0 | 0.0 | 0.00 | 0.01 | 0.00 | 77 | 1011.4 |
| 20260509124118 | 56 | 65 | 0.0 | 0.0 | 0.00 | 0.01 | 0.00 | 77 | 1011.4 |
| 20260509124024 | 56 | 65 | 0.0 | 0.0 | 0.00 | 0.01 | 0.00 | 78 | 1011.4 |
| 20260509123910 | 56 | 65 | 0.0 | 0.0 | 0.00 | 0.01 | 0.00 | 77 | 1011.4 |
| 20260509123816 | 55 | 65 | 0.0 | 0.0 | 0.00 | 0.01 | 0.00 | 78 | 1011.4 |
| 20260509123728 | 55 | 65 | 0.0 | 0.0 | 0.00 | 0.01 | 0.00 | 78 | 1011.4 |
| 20260509123619 | 55 | 65 | 0.0 | 0.0 | 0.00 | 0.01 | 0.00 | 78 | 1011.5 |
| 20260509123524 | 55 | 65 | 0.0 | 0.0 | 0.00 | 0.01 | 0.00 | 79 | 1011.4 |
| 20260509123410 | 55 | 65 | 0.0 | 0.0 | 0.00 | 0.01 | 0.00 | 78 | 1011.5 |
| 20260509123316 | 55 | 65 | 0.0 | 0.0 | 0.00 | 0.01 | 0.00 | 78 | 1011.5 |
| 20260509123222 | 55 | 65 | 0.0 | 0.0 | 0.00 | 0.01 | 0.00 | 79 | 1011.6 |
| 20260509123113 | 55 | 65 | 0.0 | 0.0 | 0.00 | 0.01 | 0.00 | 80 | 1011.6 |
| 20260509123025 | 55 | 65 | 0.0 | 0.0 | 0.00 | 0.01 | 0.00 | 79 | 1011.6 |
| 20260509123013 | 54 | 65 | 0.0 | 0.0 | 0.00 | 0.01 | 0.00 | 80 | 1011.4 |
| 20260509122911 | 55 | 65 | 0.0 | 0.0 | 0.00 | 0.01 | 0.00 | 79 | 1011.6 |
| 20260509122817 | 54 | 65 | 0.0 | 0.0 | 0.00 | 0.01 | 0.00 | 80 | 1011.6 |
| 20260509122724 | 54 | 65 | 0.0 | 0.0 | 0.00 | 0.01 | 0.00 | 79 | 1011.6 |
| 20260509122610 | 54 | 65 | 0.0 | 0.0 | 0.00 | 0.01 | 0.00 | 79 | 1011.4 |
| 20260509122521 | 54 | 78 | 0.0 | 0.0 | 0.00 | 0.01 | 0.00 | 80 | 1011.4 |
| 20260509122433 | 54 | 78 | 0.0 | 0.0 | 0.00 | 0.01 | 0.00 | 79 | 1011.4 |
| 20260509122319 | 54 | 78 | 0.0 | 0.0 | 0.00 | 0.01 | 0.00 | 80 | 1011.5 |
| 20260509122226 | 54 | 69 | 0.0 | 0.0 | 0.00 | 0.01 | 0.00 | 80 | 1011.5 |
| 20260509122113 | 54 | 80 | 0.0 | 0.0 | 0.00 | 0.01 | 0.00 | 80 | 1011.5 |
| 20260509122023 | 54 | 79 | 0.0 | 0.0 | 0.00 | 0.01 | 0.00 | 83 | 1011.5 |
| 20260509121909 | 54 | 339 | 0.0 | 0.0 | 0.00 | 0.01 | 0.00 | 85 | 1011.5 |
| 20260509121842 | 53 | 323 | 0.0 | 0.0 | 0.00 | 0.01 | 0.00 | 84 | 1011.5 |
| 20260509121728 | 53 | 265 | 0.0 | 0.0 | 0.00 | 0.01 | 0.00 | 85 | 1011.5 |
| 20260509121614 | 53 | 265 | 0.0 | 0.0 | 0.00 | 0.01 | 0.00 | 86 | 1011.5 |
| 20260509121539 | 53 | 265 | 0.0 | 0.0 | 0.00 | 0.01 | 0.00 | 87 | 1011.4 |
| 20260509121520 | 53 | 265 | 0.0 | 0.0 | 0.00 | 0.01 | 0.00 | 87 | 1011.5 |
| 20260509121410 | 53 | 265 | 0.0 | 0.0 | 0.00 | 0.01 | 0.00 | 88 | 1011.6 |
| 20260509121323 | 53 | 265 | 0.0 | 0.0 | 0.00 | 0.01 | 0.00 | 88 | 1011.6 |
| 20260509121209 | 53 | 265 | 0.0 | 0.0 | 0.00 | 0.01 | 0.00 | 86 | 1011.6 |
| 20260509121115 | 53 | 265 | 0.0 | 0.0 | 0.00 | 0.01 | 0.00 | 87 | 1011.6 |
| 20260509121021 | 52 | 265 | 0.0 | 0.0 | 0.00 | 0.01 | 0.00 | 87 | 1011.6 |
| 20260509120911 | 52 | 265 | 0.0 | 0.0 | 0.00 | 0.01 | 0.00 | 87 | 1011.5 |
| 20260509120844 | 52 | 265 | 0.0 | 0.0 | 0.00 | 0.01 | 0.00 | 87 | 1011.5 |
| 20260509120709 | 52 | 191 | 0.0 | 0.0 | 0.00 | 0.01 | 0.00 | 88 | 1011.4 |
| 20260509120615 | 52 | 191 | 0.0 | 0.0 | 0.00 | 0.01 | 0.00 | 88 | 1011.4 |
| 20260509120521 | 52 | 191 | 0.0 | 0.0 | 0.00 | 0.01 | 0.00 | 88 | 1011.5 |
| 20260509120434 | 52 | 191 | 0.0 | 0.0 | 0.00 | 0.01 | 0.00 | 89 | 1011.5 |
| 20260509120324 | 52 | 190 | 0.0 | 0.0 | 0.00 | 0.01 | 0.00 | 89 | 1011.5 |
| 20260509120230 | 52 | 190 | 0.0 | 0.0 | 0.00 | 0.01 | 0.00 | 89 | 1011.5 |
| 20260509120136 | 52 | 191 | 0.0 | 0.0 | 0.00 | 0.01 | 0.00 | 90 | 1011.5 |
| 20260509120048 | 52 | 190 | 0.0 | 0.0 | 0.00 | 0.01 | 0.00 | 90 | 1011.5 |
| 20260509120004 | 51 | 191 | 0.0 | 0.0 | 0.00 | 0.01 | 0.00 | 90 | 1011.3 |
| 20260509115933 | 51 | 191 | 0.0 | 0.0 | 0.00 | 0.01 | 0.00 | 90 | 1011.4 |
| 20260509115818 | 51 | 190 | 0.0 | 0.0 | 0.00 | 0.01 | 0.00 | 90 | 1011.4 |
| 20260509115731 | 51 | 190 | 0.0 | 0.0 | 0.00 | 0.01 | 0.00 | 90 | 1011.4 |
| 20260509115622 | 51 | 191 | 0.0 | 0.0 | 0.00 | 0.01 | 0.00 | 90 | 1011.5 |
| 20260509115528 | 51 | 190 | 0.0 | 0.0 | 0.00 | 0.01 | 0.00 | 91 | 1011.4 |
| 20260509115414 | 51 | 191 | 0.0 | 0.0 | 0.00 | 0.01 | 0.00 | 91 | 1011.4 |
| 20260509115320 | 51 | 190 | 0.0 | 0.0 | 0.00 | 0.01 | 0.00 | 91 | 1011.4 |
| 20260509115225 | 51 | 191 | 0.0 | 0.0 | 0.00 | 0.01 | 0.00 | 91 | 1011.4 |
| 20260509115139 | 51 | 190 | 0.0 | 0.0 | 0.00 | 0.01 | 0.00 | 91 | 1011.4 |
| 20260509115048 | 51 | 190 | 0.0 | 0.0 | 0.00 | 0.01 | 0.00 | 91 | 1011.4 |
| 20260509114914 | 51 | 191 | 0.0 | 0.0 | 0.00 | 0.01 | 0.00 | 91 | 1011.4 |
| 20260509114827 | 51 | 191 | 0.0 | 0.0 | 0.00 | 0.01 | 0.00 | 92 | 1011.4 |
| 20260509114713 | 50 | 191 | 0.0 | 0.0 | 0.00 | 0.01 | 0.00 | 92 | 1011.4 |
| 20260509114619 | 50 | 190 | 0.0 | 0.0 | 0.00 | 0.01 | 0.00 | 92 | 1011.4 |
| 20260509114549 | 50 | 191 | 0.0 | 0.0 | 0.00 | 0.01 | 0.00 | 92 | 1011.4 |
| 20260509114524 | 50 | 191 | 0.0 | 0.0 | 0.00 | 0.01 | 0.00 | 92 | 1011.5 |
| 20260509114441 | 50 | 191 | 0.0 | 0.0 | 0.00 | 0.01 | 0.00 | 92 | 1011.5 |
| 20260509114327 | 50 | 190 | 0.0 | 0.0 | 0.00 | 0.01 | 0.00 | 92 | 1011.5 |
| 20260509114213 | 50 | 191 | 0.0 | 0.0 | 0.00 | 0.01 | 0.00 | 92 | 1011.5 |
| 20260509114119 | 50 | 190 | 0.0 | 0.0 | 0.00 | 0.01 | 0.00 | 93 | 1011.5 |
| 20260509114025 | 50 | 190 | 0.0 | 0.0 | 0.00 | 0.01 | 0.00 | 93 | 1011.6 |
| 20260509113916 | 50 | 190 | 0.0 | 0.0 | 0.00 | 0.01 | 0.00 | 93 | 1011.6 |
| 20260509113829 | 50 | 191 | 0.0 | 0.0 | 0.00 | 0.01 | 0.00 | 93 | 1011.7 |
| 20260509113725 | 50 | 190 | 0.0 | 0.0 | 0.00 | 0.01 | 0.00 | 93 | 1011.7 |
| 20260509113611 | 50 | 191 | 0.0 | 0.0 | 0.00 | 0.01 | 0.00 | 93 | 1011.7 |
| 20260509113517 | 49 | 191 | 0.0 | 0.0 | 0.00 | 0.01 | 0.00 | 93 | 1011.7 |
| 20260509113423 | 49 | 191 | 0.0 | 0.0 | 0.00 | 0.01 | 0.00 | 93 | 1011.8 |
| 20260509113340 | 49 | 190 | 0.0 | 0.0 | 0.00 | 0.01 | 0.00 | 93 | 1011.7 |
| 20260509113225 | 49 | 190 | 0.0 | 0.0 | 0.00 | 0.01 | 0.00 | 93 | 1011.7 |
| 20260509113111 | 49 | 190 | 0.0 | 0.0 | 0.00 | 0.01 | 0.00 | 93 | 1011.6 |
| 20260509113044 | 49 | 190 | 0.0 | 0.0 | 0.00 | 0.01 | 0.00 | 93 | 1011.6 |
| 20260509113008 | 49 | 190 | 0.0 | 0.0 | 0.00 | 0.01 | 0.00 | 93 | 1011.5 |
| 20260509112909 | 49 | 191 | 0.0 | 0.0 | 0.00 | 0.01 | 0.00 | 93 | 1011.6 |
| 20260509112815 | 49 | 191 | 0.0 | 0.0 | 0.00 | 0.01 | 0.00 | 94 | 1011.6 |
| 20260509112725 | 49 | 190 | 0.0 | 0.0 | 0.00 | 0.01 | 0.00 | 94 | 1011.6 |
| 20260509112611 | 49 | 190 | 0.0 | 0.0 | 0.00 | 0.01 | 0.00 | 94 | 1011.5 |
| 20260509112525 | 49 | 190 | 0.0 | 0.0 | 0.00 | 0.01 | 0.00 | 94 | 1011.5 |
| 20260509112431 | 49 | 191 | 0.0 | 0.0 | 0.00 | 0.01 | 0.00 | 94 | 1011.6 |
| 20260509112317 | 49 | 190 | 0.0 | 0.0 | 0.00 | 0.01 | 0.00 | 94 | 1011.5 |
| 20260509112224 | 49 | 190 | 0.0 | 0.0 | 0.00 | 0.01 | 0.00 | 94 | 1011.5 |
| 20260509112114 | 49 | 190 | 0.0 | 0.0 | 0.00 | 0.01 | 0.00 | 94 | 1011.5 |
| 20260509112047 | 49 | 190 | 0.0 | 0.0 | 0.00 | 0.01 | 0.00 | 94 | 1011.5 |
| 20260509111912 | 48 | 190 | 0.0 | 0.0 | 0.00 | 0.01 | 0.00 | 94 | 1011.4 |
| 20260509111818 | 48 | 190 | 0.0 | 0.0 | 0.00 | 0.01 | 0.00 | 94 | 1011.4 |
| 20260509111751 | 48 | 191 | 0.0 | 0.0 | 0.00 | 0.01 | 0.00 | 94 | 1011.4 |
| 20260509111618 | 48 | 190 | 0.0 | 0.0 | 0.00 | 0.01 | 0.00 | 94 | 1011.4 |
| 20260509111612 | 48 | 190 | 0.0 | 0.0 | 0.00 | 0.01 | 0.00 | 94 | 1011.3 |
| 20260509111547 | 48 | 190 | 0.0 | 0.0 | 0.00 | 0.01 | 0.00 | 94 | 1011.4 |
| 20260509111413 | 48 | 190 | 0.0 | 0.0 | 0.00 | 0.01 | 0.00 | 94 | 1011.3 |
| 20260509111318 | 48 | 190 | 0.0 | 0.0 | 0.00 | 0.01 | 0.00 | 94 | 1011.3 |
| 20260509111231 | 48 | 190 | 0.0 | 0.0 | 0.00 | 0.01 | 0.00 | 94 | 1011.3 |
| 20260509111118 | 48 | 190 | 0.0 | 0.0 | 0.00 | 0.01 | 0.00 | 94 | 1011.3 |
| 20260509111024 | 48 | 190 | 0.0 | 0.0 | 0.00 | 0.01 | 0.00 | 94 | 1011.3 |
| 20260509110914 | 48 | 191 | 0.0 | 0.0 | 0.00 | 0.01 | 0.00 | 94 | 1011.3 |
| 20260509110847 | 48 | 190 | 0.0 | 0.0 | 0.00 | 0.01 | 0.00 | 94 | 1011.3 |
| 20260509110733 | 48 | 190 | 0.0 | 0.0 | 0.00 | 0.01 | 0.00 | 94 | 1011.3 |
| 20260509110644 | 48 | 190 | 0.0 | 0.0 | 0.00 | 0.01 | 0.00 | 94 | 1011.3 |
| 20260509110549 | 48 | 190 | 0.0 | 0.0 | 0.00 | 0.01 | 0.00 | 94 | 1011.3 |
| 20260509110415 | 48 | 191 | 0.0 | 0.0 | 0.00 | 0.01 | 0.00 | 94 | 1011.3 |
| 20260509110321 | 47 | 190 | 0.0 | 0.0 | 0.00 | 0.01 | 0.00 | 94 | 1011.3 |
| 20260509110212 | 47 | 190 | 0.0 | 0.0 | 0.00 | 0.01 | 0.00 | 94 | 1011.4 |
| 20260509110145 | 47 | 190 | 0.0 | 0.0 | 0.00 | 0.01 | 0.00 | 94 | 1011.4 |
| 20260509110044 | 47 | 190 | 0.0 | 0.0 | 0.00 | 0.01 | 0.00 | 94 | 1011.3 |
| 20260509110025 | 47 | 190 | 0.0 | 0.0 | 0.00 | 0.01 | 0.00 | 94 | 1011.4 |
| 20260509105913 | 47 | 190 | 0.0 | 0.0 | 0.00 | 0.01 | 0.00 | 94 | 1011.4 |
| 20260509105825 | 47 | 191 | 0.0 | 0.0 | 0.00 | 0.01 | 0.00 | 94 | 1011.4 |
| 20260509105715 | 47 | 190 | 0.0 | 0.0 | 0.00 | 0.01 | 0.00 | 94 | 1011.4 |
| 20260509105621 | 47 | 190 | 0.0 | 0.0 | 0.00 | 0.01 | 0.00 | 94 | 1011.4 |
| 20260509105527 | 47 | 190 | 0.0 | 0.0 | 0.00 | 0.01 | 0.00 | 94 | 1011.4 |
| 20260509105414 | 47 | 191 | 0.0 | 0.0 | 0.00 | 0.01 | 0.00 | 94 | 1011.4 |
| 20260509105320 | 47 | 191 | 0.0 | 0.0 | 0.00 | 0.01 | 0.00 | 94 | 1011.4 |
| 20260509105234 | 47 | 190 | 0.0 | 0.0 | 0.00 | 0.01 | 0.00 | 94 | 1011.3 |
| 20260509105123 | 47 | 190 | 0.0 | 0.0 | 0.00 | 0.01 | 0.00 | 94 | 1011.3 |
| 20260509105009 | 47 | 191 | 0.0 | 0.0 | 0.00 | 0.01 | 0.00 | 94 | 1011.4 |
| 20260509104915 | 47 | 190 | 0.0 | 0.0 | 0.00 | 0.01 | 0.00 | 94 | 1011.4 |
| 20260509104828 | 47 | 190 | 0.0 | 0.0 | 0.00 | 0.01 | 0.00 | 94 | 1011.3 |
| 20260509104716 | 47 | 191 | 0.0 | 0.0 | 0.00 | 0.01 | 0.00 | 94 | 1011.4 |
| 20260509104621 | 47 | 191 | 0.0 | 0.0 | 0.00 | 0.01 | 0.00 | 94 | 1011.4 |
| 20260509104558 | 46 | 190 | 0.0 | 0.0 | 0.00 | 0.01 | 0.00 | 93 | 1011.3 |
| 20260509104511 | 47 | 190 | 0.0 | 0.0 | 0.00 | 0.01 | 0.00 | 93 | 1011.4 |
| 20260509104417 | 47 | 190 | 0.0 | 0.0 | 0.00 | 0.01 | 0.00 | 93 | 1011.4 |
| 20260509104323 | 47 | 190 | 0.0 | 0.0 | 0.00 | 0.01 | 0.00 | 93 | 1011.4 |
| 20260509104210 | 47 | 190 | 0.0 | 0.0 | 0.00 | 0.01 | 0.00 | 93 | 1011.4 |
| 20260509104123 | 47 | 190 | 0.0 | 0.0 | 0.00 | 0.01 | 0.00 | 93 | 1011.4 |
| 20260509104034 | 47 | 190 | 0.0 | 0.0 | 0.00 | 0.01 | 0.00 | 93 | 1011.4 |
| 20260509103919 | 47 | 190 | 0.0 | 0.0 | 0.00 | 0.01 | 0.00 | 93 | 1011.4 |
| 20260509103832 | 47 | 191 | 0.0 | 0.0 | 0.00 | 0.01 | 0.00 | 93 | 1011.4 |
| 20260509103719 | 47 | 190 | 0.0 | 0.0 | 0.00 | 0.01 | 0.00 | 94 | 1011.4 |
| 20260509103644 | 47 | 191 | 0.0 | 0.0 | 0.00 | 0.01 | 0.00 | 93 | 1011.4 |
| 20260509103509 | 47 | 190 | 0.0 | 0.0 | 0.00 | 0.01 | 0.00 | 93 | 1011.4 |
| 20260509103420 | 47 | 190 | 0.0 | 0.0 | 0.00 | 0.01 | 0.00 | 93 | 1011.4 |
| 20260509103333 | 47 | 190 | 0.0 | 0.0 | 0.00 | 0.01 | 0.00 | 93 | 1011.4 |
| 20260509103218 | 47 | 190 | 0.0 | 0.0 | 0.00 | 0.01 | 0.00 | 93 | 1011.4 |
| 20260509103125 | 47 | 190 | 0.0 | 0.0 | 0.00 | 0.01 | 0.00 | 93 | 1011.4 |
| 20260509103033 | 46 | 190 | 0.0 | 0.0 | 0.00 | 0.01 | 0.00 | 93 | 1011.2 |
| 20260509103011 | 47 | 190 | 0.0 | 0.0 | 0.00 | 0.01 | 0.00 | 93 | 1011.3 |
| 20260509102944 | 47 | 190 | 0.0 | 0.0 | 0.00 | 0.01 | 0.00 | 93 | 1011.3 |
| 20260509102814 | 47 | 190 | 0.0 | 0.0 | 0.00 | 0.01 | 0.00 | 93 | 1011.4 |
| 20260509102720 | 47 | 190 | 0.0 | 0.0 | 0.00 | 0.01 | 0.00 | 93 | 1011.4 |
| 20260509102626 | 46 | 191 | 0.0 | 0.0 | 0.00 | 0.01 | 0.00 | 93 | 1011.3 |
| 20260509102513 | 46 | 190 | 0.0 | 0.0 | 0.00 | 0.01 | 0.00 | 93 | 1011.3 |
| 20260509102426 | 46 | 190 | 0.0 | 0.0 | 0.00 | 0.01 | 0.00 | 93 | 1011.3 |
| 20260509102313 | 46 | 191 | 0.0 | 0.0 | 0.00 | 0.01 | 0.00 | 93 | 1011.4 |
| 20260509102223 | 46 | 190 | 0.0 | 0.0 | 0.00 | 0.01 | 0.00 | 93 | 1011.4 |
| 20260509102110 | 46 | 191 | 0.0 | 0.0 | 0.00 | 0.01 | 0.00 | 93 | 1011.4 |
| 20260509102017 | 46 | 190 | 0.0 | 0.0 | 0.00 | 0.01 | 0.00 | 93 | 1011.4 |
| 20260509101931 | 46 | 190 | 0.0 | 0.0 | 0.00 | 0.01 | 0.00 | 93 | 1011.4 |
| 20260509101810 | 46 | 190 | 0.0 | 0.0 | 0.00 | 0.01 | 0.00 | 93 | 1011.4 |
| 20260509101727 | 46 | 190 | 0.0 | 0.0 | 0.00 | 0.01 | 0.00 | 93 | 1011.4 |
| 20260509101614 | 46 | 191 | 0.0 | 0.0 | 0.00 | 0.01 | 0.00 | 93 | 1011.4 |
| 20260509101553 | 46 | 190 | 0.0 | 0.0 | 0.00 | 0.01 | 0.00 | 93 | 1011.3 |
| 20260509101520 | 46 | 190 | 0.0 | 0.0 | 0.00 | 0.01 | 0.00 | 93 | 1011.4 |
| 20260509101427 | 46 | 190 | 0.0 | 0.0 | 0.00 | 0.01 | 0.00 | 93 | 1011.3 |
| 20260509101314 | 46 | 190 | 0.0 | 0.0 | 0.00 | 0.01 | 0.00 | 93 | 1011.3 |
| 20260509101226 | 46 | 190 | 0.0 | 0.0 | 0.00 | 0.01 | 0.00 | 92 | 1011.3 |
| 20260509101118 | 46 | 190 | 0.0 | 0.0 | 0.00 | 0.01 | 0.00 | 92 | 1011.3 |
| 20260509101024 | 46 | 190 | 0.0 | 0.0 | 0.00 | 0.01 | 0.00 | 92 | 1011.3 |
| 20260509100911 | 46 | 190 | 0.0 | 0.0 | 0.00 | 0.01 | 0.00 | 92 | 1011.3 |
| 20260509100816 | 46 | 190 | 0.0 | 0.0 | 0.00 | 0.01 | 0.00 | 92 | 1011.3 |
| 20260509100724 | 47 | 190 | 0.0 | 0.0 | 0.00 | 0.01 | 0.00 | 92 | 1011.3 |
| 20260509100614 | 47 | 191 | 0.0 | 0.0 | 0.00 | 0.01 | 0.00 | 92 | 1011.3 |
| 20260509100527 | 47 | 190 | 0.0 | 0.0 | 0.00 | 0.01 | 0.00 | 92 | 1011.2 |
| 20260509100414 | 47 | 190 | 0.0 | 0.0 | 0.00 | 0.01 | 0.00 | 93 | 1011.2 |
| 20260509100319 | 47 | 191 | 0.0 | 0.0 | 0.00 | 0.01 | 0.00 | 93 | 1011.2 |
| 20260509100226 | 47 | 190 | 0.0 | 0.0 | 0.00 | 0.01 | 0.00 | 93 | 1011.2 |
| 20260509100116 | 47 | 190 | 0.0 | 0.0 | 0.00 | 0.01 | 0.00 | 93 | 1011.2 |
| 20260509100035 | 46 | 190 | 0.0 | 0.0 | 0.00 | 0.01 | 0.00 | 93 | 1011.1 |
| 20260509100023 | 47 | 190 | 0.0 | 0.0 | 0.00 | 0.01 | 0.00 | 93 | 1011.2 |
| 20260509095935 | 47 | 190 | 0.0 | 0.0 | 0.00 | 0.01 | 0.00 | 93 | 1011.2 |
| 20260509095821 | 47 | 190 | 0.0 | 0.0 | 0.00 | 0.01 | 0.00 | 93 | 1011.2 |
| 20260509095727 | 47 | 190 | 0.0 | 0.0 | 0.00 | 0.01 | 0.00 | 93 | 1011.3 |
| 20260509095614 | 47 | 190 | 0.0 | 0.0 | 0.00 | 0.01 | 0.00 | 93 | 1011.2 |
| 20260509095525 | 47 | 190 | 0.0 | 0.0 | 0.00 | 0.01 | 0.00 | 93 | 1011.2 |
| 20260509095411 | 47 | 191 | 0.0 | 0.0 | 0.00 | 0.01 | 0.00 | 93 | 1011.3 |
| 20260509095318 | 47 | 190 | 0.0 | 0.0 | 0.00 | 0.01 | 0.00 | 93 | 1011.3 |
| 20260509095231 | 47 | 190 | 0.0 | 0.0 | 0.00 | 0.01 | 0.00 | 93 | 1011.2 |
| 20260509095117 | 47 | 190 | 0.0 | 0.0 | 0.00 | 0.01 | 0.00 | 93 | 1011.2 |
| 20260509095028 | 47 | 190 | 0.0 | 0.0 | 0.00 | 0.01 | 0.00 | 93 | 1011.2 |
| 20260509094915 | 47 | 191 | 0.0 | 0.0 | 0.00 | 0.01 | 0.00 | 93 | 1011.2 |
| 20260509094822 | 47 | 190 | 0.0 | 0.0 | 0.00 | 0.01 | 0.00 | 93 | 1011.2 |
| 20260509094736 | 47 | 190 | 0.0 | 0.0 | 0.00 | 0.01 | 0.00 | 93 | 1011.2 |
| 20260509094620 | 47 | 191 | 0.0 | 0.0 | 0.00 | 0.01 | 0.00 | 93 | 1011.2 |
| 20260509094555 | 46 | 190 | 0.0 | 0.0 | 0.00 | 0.01 | 0.00 | 93 | 1011.2 |
| 20260509094526 | 47 | 190 | 0.0 | 0.0 | 0.00 | 0.01 | 0.00 | 93 | 1011.2 |
| 20260509094417 | 47 | 190 | 0.0 | 0.0 | 0.00 | 0.01 | 0.00 | 93 | 1011.2 |
| 20260509094324 | 47 | 190 | 0.0 | 0.0 | 0.00 | 0.01 | 0.00 | 93 | 1011.2 |
| 20260509094210 | 47 | 190 | 0.0 | 0.0 | 0.00 | 0.01 | 0.00 | 93 | 1011.2 |
| 20260509094123 | 47 | 190 | 0.0 | 0.0 | 0.00 | 0.01 | 0.00 | 93 | 1011.2 |
| 20260509094009 | 47 | 190 | 0.0 | 0.0 | 0.00 | 0.01 | 0.00 | 93 | 1011.3 |
| 20260509093919 | 47 | 190 | 0.0 | 0.0 | 0.00 | 0.01 | 0.00 | 93 | 1011.3 |
| 20260509093826 | 47 | 190 | 0.0 | 0.0 | 0.00 | 0.01 | 0.00 | 93 | 1011.3 |
| 20260509093712 | 47 | 190 | 0.0 | 0.0 | 0.00 | 0.01 | 0.00 | 93 | 1011.3 |
| 20260509093619 | 47 | 190 | 0.0 | 0.0 | 0.00 | 0.01 | 0.00 | 93 | 1011.3 |
| 20260509093532 | 47 | 190 | 0.0 | 0.0 | 0.00 | 0.01 | 0.00 | 93 | 1011.3 |
| 20260509093418 | 47 | 190 | 0.0 | 0.0 | 0.00 | 0.01 | 0.00 | 93 | 1011.4 |
| 20260509093328 | 47 | 190 | 0.0 | 0.0 | 0.00 | 0.01 | 0.00 | 93 | 1011.4 |
| 20260509093215 | 47 | 190 | 0.0 | 0.0 | 0.00 | 0.01 | 0.00 | 93 | 1011.4 |
| 20260509093122 | 47 | 190 | 0.0 | 0.0 | 0.00 | 0.01 | 0.00 | 93 | 1011.4 |
| 20260509093035 | 47 | 191 | 0.0 | 0.0 | 0.00 | 0.01 | 0.00 | 93 | 1011.4 |
| 20260509093024 | 46 | 190 | 0.0 | 0.0 | 0.00 | 0.01 | 0.00 | 93 | 1011.4 |
| 20260509092909 | 47 | 190 | 0.0 | 0.0 | 0.00 | 0.01 | 0.00 | 93 | 1011.5 |
| 20260509092842 | 47 | 190 | 0.0 | 0.0 | 0.00 | 0.01 | 0.00 | 93 | 1011.5 |
| 20260509092711 | 47 | 190 | 0.0 | 0.0 | 0.00 | 0.01 | 0.00 | 93 | 1011.5 |
| 20260509092618 | 47 | 190 | 0.0 | 0.0 | 0.00 | 0.01 | 0.00 | 93 | 1011.5 |
| 20260509092531 | 47 | 190 | 0.0 | 0.0 | 0.00 | 0.01 | 0.00 | 93 | 1011.5 |
| 20260509092417 | 47 | 190 | 0.0 | 0.0 | 0.00 | 0.01 | 0.00 | 93 | 1011.5 |
| 20260509092324 | 47 | 190 | 0.0 | 0.0 | 0.00 | 0.01 | 0.00 | 93 | 1011.5 |
| 20260509092214 | 47 | 191 | 0.0 | 0.0 | 0.00 | 0.01 | 0.00 | 93 | 1011.5 |
| 20260509092121 | 47 | 190 | 0.0 | 0.0 | 0.00 | 0.01 | 0.00 | 93 | 1011.5 |
| 20260509092035 | 47 | 190 | 0.0 | 0.0 | 0.00 | 0.01 | 0.00 | 93 | 1011.5 |
| 20260509091914 | 47 | 190 | 0.0 | 0.0 | 0.00 | 0.01 | 0.00 | 93 | 1011.5 |
| 20260509091827 | 47 | 190 | 0.0 | 0.0 | 0.00 | 0.01 | 0.00 | 93 | 1011.5 |
| 20260509091717 | 47 | 190 | 0.0 | 0.0 | 0.00 | 0.01 | 0.00 | 93 | 1011.5 |
| 20260509091624 | 47 | 190 | 0.0 | 0.0 | 0.00 | 0.01 | 0.00 | 93 | 1011.5 |
| 20260509091549 | 46 | 190 | 0.0 | 0.0 | 0.00 | 0.01 | 0.00 | 93 | 1011.5 |
| 20260509091510 | 47 | 190 | 0.0 | 0.0 | 0.00 | 0.01 | 0.00 | 93 | 1011.6 |
| 20260509091443 | 47 | 190 | 0.0 | 0.0 | 0.00 | 0.01 | 0.00 | 93 | 1011.6 |
| 20260509091309 | 47 | 190 | 0.0 | 0.0 | 0.00 | 0.01 | 0.00 | 93 | 1011.5 |
| 20260509091215 | 47 | 190 | 0.0 | 0.0 | 0.00 | 0.01 | 0.00 | 93 | 1011.5 |
| 20260509091124 | 47 | 190 | 0.0 | 0.0 | 0.00 | 0.01 | 0.00 | 93 | 1011.6 |
| 20260509091011 | 47 | 190 | 0.0 | 0.0 | 0.00 | 0.01 | 0.00 | 93 | 1011.6 |
| 20260509090917 | 47 | 190 | 0.0 | 0.0 | 0.00 | 0.01 | 0.00 | 93 | 1011.6 |
| 20260509090827 | 47 | 190 | 0.0 | 0.0 | 0.00 | 0.01 | 0.00 | 93 | 1011.6 |
| 20260509090714 | 47 | 190 | 0.0 | 0.0 | 0.00 | 0.01 | 0.00 | 93 | 1011.5 |
| 20260509090621 | 47 | 190 | 0.0 | 0.0 | 0.00 | 0.01 | 0.00 | 93 | 1011.5 |
| 20260509090511 | 47 | 190 | 0.0 | 0.0 | 0.00 | 0.01 | 0.00 | 93 | 1011.5 |
| 20260509090418 | 47 | 190 | 0.0 | 0.0 | 0.00 | 0.01 | 0.00 | 93 | 1011.5 |
| 20260509090331 | 47 | 190 | 0.0 | 0.0 | 0.00 | 0.01 | 0.00 | 93 | 1011.5 |
| 20260509090210 | 47 | 191 | 0.0 | 0.0 | 0.00 | 0.01 | 0.00 | 93 | 1011.5 |
| 20260509090143 | 47 | 190 | 0.0 | 0.0 | 0.00 | 0.01 | 0.00 | 93 | 1011.5 |
| 20260509090045 | 46 | 191 | 0.0 | 0.0 | 0.00 | 0.01 | 0.00 | 93 | 1011.4 |
| 20260509090011 | 47 | 191 | 0.0 | 0.0 | 0.00 | 0.01 | 0.00 | 93 | 1011.5 |
| 20260509085944 | 47 | 190 | 0.0 | 0.0 | 0.00 | 0.01 | 0.00 | 93 | 1011.5 |
| 20260509085810 | 47 | 190 | 0.0 | 0.0 | 0.00 | 0.01 | 0.00 | 93 | 1011.5 |
| 20260509085717 | 47 | 190 | 0.0 | 0.0 | 0.00 | 0.01 | 0.00 | 93 | 1011.5 |
| 20260509085622 | 47 | 190 | 0.0 | 0.0 | 0.00 | 0.01 | 0.00 | 93 | 1011.6 |
| 20260509085535 | 47 | 190 | 0.0 | 0.0 | 0.00 | 0.01 | 0.00 | 93 | 1011.6 |
| 20260509085441 | 47 | 190 | 0.0 | 0.0 | 0.00 | 0.01 | 0.00 | 93 | 1011.6 |
| 20260509085311 | 47 | 190 | 0.0 | 0.0 | 0.00 | 0.01 | 0.00 | 93 | 1011.6 |
| 20260509085217 | 47 | 190 | 0.0 | 0.0 | 0.00 | 0.01 | 0.00 | 93 | 1011.6 |
| 20260509085124 | 47 | 190 | 0.0 | 0.0 | 0.00 | 0.01 | 0.00 | 93 | 1011.6 |
| 20260509085010 | 47 | 190 | 0.0 | 0.0 | 0.00 | 0.01 | 0.00 | 93 | 1011.7 |
| 20260509084923 | 47 | 190 | 0.0 | 0.0 | 0.00 | 0.01 | 0.00 | 93 | 1011.7 |
| 20260509084814 | 47 | 190 | 0.0 | 0.0 | 0.00 | 0.01 | 0.00 | 93 | 1011.7 |
| 20260509084720 | 47 | 190 | 0.0 | 0.0 | 0.00 | 0.01 | 0.00 | 93 | 1011.7 |
| 20260509084627 | 47 | 190 | 0.0 | 0.0 | 0.00 | 0.01 | 0.00 | 93 | 1011.6 |
| 20260509084542 | 46 | 190 | 0.0 | 0.0 | 0.00 | 0.01 | 0.00 | 93 | 1011.6 |
| 20260509084513 | 47 | 190 | 0.0 | 0.0 | 0.00 | 0.01 | 0.00 | 93 | 1011.6 |
| 20260509084418 | 47 | 191 | 0.0 | 0.0 | 0.00 | 0.01 | 0.00 | 93 | 1011.6 |
| 20260509084331 | 47 | 190 | 0.0 | 0.0 | 0.00 | 0.01 | 0.00 | 93 | 1011.7 |
| 20260509084241 | 47 | 190 | 0.0 | 0.0 | 0.00 | 0.01 | 0.00 | 93 | 1011.7 |
| 20260509084127 | 47 | 190 | 0.0 | 0.0 | 0.00 | 0.01 | 0.00 | 93 | 1011.7 |
| 20260509084013 | 47 | 190 | 0.0 | 0.0 | 0.00 | 0.01 | 0.00 | 93 | 1011.7 |
| 20260509083947 | 47 | 190 | 0.0 | 0.0 | 0.00 | 0.01 | 0.00 | 93 | 1011.7 |
| 20260509083825 | 47 | 190 | 0.0 | 0.0 | 0.00 | 0.01 | 0.00 | 93 | 1011.7 |
| 20260509083713 | 47 | 190 | 0.0 | 0.0 | 0.00 | 0.01 | 0.00 | 93 | 1011.7 |
| 20260509083629 | 47 | 190 | 0.0 | 0.0 | 0.00 | 0.01 | 0.00 | 93 | 1011.7 |
| 20260509083535 | 46 | 191 | 0.0 | 0.0 | 0.00 | 0.01 | 0.00 | 93 | 1011.7 |
| 20260509083420 | 46 | 190 | 0.0 | 0.0 | 0.00 | 0.01 | 0.00 | 93 | 1011.7 |
| 20260509083326 | 46 | 190 | 0.0 | 0.0 | 0.00 | 0.01 | 0.00 | 93 | 1011.7 |
| 20260509083213 | 46 | 190 | 0.0 | 0.0 | 0.00 | 0.01 | 0.00 | 93 | 1011.6 |
| 20260509083126 | 46 | 190 | 0.0 | 0.0 | 0.00 | 0.01 | 0.00 | 93 | 1011.6 |
| 20260509083016 | 46 | 190 | 0.0 | 0.0 | 0.00 | 0.01 | 0.00 | 93 | 1011.6 |
| 20260509083006 | 46 | 190 | 0.0 | 0.0 | 0.00 | 0.01 | 0.00 | 93 | 1011.6 |
| 20260509082922 | 46 | 190 | 0.0 | 0.0 | 0.00 | 0.01 | 0.00 | 93 | 1011.6 |
| 20260509082828 | 46 | 190 | 0.0 | 0.0 | 0.00 | 0.01 | 0.00 | 93 | 1011.7 |
| 20260509082715 | 46 | 190 | 0.0 | 0.0 | 0.00 | 0.01 | 0.00 | 93 | 1011.7 |
| 20260509082621 | 46 | 190 | 0.0 | 0.0 | 0.00 | 0.01 | 0.00 | 93 | 1011.6 |
| 20260509082512 | 46 | 190 | 0.0 | 0.0 | 0.00 | 0.01 | 0.00 | 93 | 1011.6 |
| 20260509082424 | 46 | 190 | 0.0 | 0.0 | 0.00 | 0.01 | 0.00 | 93 | 1011.6 |
| 20260509082332 | 46 | 190 | 0.0 | 0.0 | 0.00 | 0.01 | 0.00 | 93 | 1011.6 |
| 20260509082244 | 46 | 190 | 0.0 | 0.0 | 0.00 | 0.01 | 0.00 | 93 | 1011.6 |
| 20260509082108 | 46 | 190 | 0.0 | 0.0 | 0.00 | 0.01 | 0.00 | 93 | 1011.7 |
| 20260509082035 | 46 | 190 | 0.0 | 0.0 | 0.00 | 0.01 | 0.00 | 93 | 1011.7 |
| 20260509081927 | 46 | 190 | 0.0 | 0.0 | 0.00 | 0.01 | 0.00 | 93 | 1011.7 |
| 20260509081817 | 46 | 191 | 0.0 | 0.0 | 0.00 | 0.01 | 0.00 | 93 | 1011.6 |
| 20260509081744 | 46 | 190 | 0.0 | 0.0 | 0.00 | 0.01 | 0.00 | 93 | 1011.7 |
| 20260509081637 | 46 | 190 | 0.0 | 0.0 | 0.00 | 0.01 | 0.00 | 93 | 1011.7 |
| 20260509081608 | 46 | 190 | 0.0 | 0.0 | 0.00 | 0.01 | 0.00 | 93 | 1011.7 |
| 20260509081521 | 46 | 190 | 0.0 | 0.0 | 0.00 | 0.01 | 0.00 | 93 | 1011.7 |
| 20260509081428 | 46 | 190 | 0.0 | 0.0 | 0.00 | 0.01 | 0.00 | 93 | 1011.7 |
| 20260509081314 | 46 | 191 | 0.0 | 0.0 | 0.00 | 0.01 | 0.00 | 93 | 1011.7 |
| 20260509081224 | 46 | 190 | 0.0 | 0.0 | 0.00 | 0.01 | 0.00 | 93 | 1011.7 |
| 20260509081111 | 46 | 190 | 0.0 | 0.0 | 0.00 | 0.01 | 0.00 | 93 | 1011.7 |
| 20260509081024 | 46 | 190 | 0.0 | 0.0 | 0.00 | 0.01 | 0.00 | 93 | 1011.7 |
| 20260509080911 | 46 | 190 | 0.0 | 0.0 | 0.00 | 0.01 | 0.00 | 93 | 1011.6 |
| 20260509080837 | 46 | 190 | 0.0 | 0.0 | 0.00 | 0.01 | 0.00 | 93 | 1011.6 |
| 20260509080722 | 46 | 191 | 0.0 | 0.0 | 0.00 | 0.01 | 0.00 | 93 | 1011.7 |
| 20260509080639 | 46 | 190 | 0.0 | 0.0 | 0.00 | 0.01 | 0.00 | 93 | 1011.6 |
| 20260509080525 | 46 | 190 | 0.0 | 0.0 | 0.00 | 0.01 | 0.00 | 93 | 1011.6 |
| 20260509080432 | 46 | 190 | 0.0 | 0.0 | 0.00 | 0.01 | 0.00 | 93 | 1011.6 |
| 20260509080323 | 46 | 190 | 0.0 | 0.0 | 0.00 | 0.01 | 0.00 | 93 | 1011.6 |
| 20260509080210 | 46 | 190 | 0.0 | 0.0 | 0.00 | 0.01 | 0.00 | 93 | 1011.7 |
| 20260509080116 | 46 | 190 | 0.0 | 0.0 | 0.00 | 0.01 | 0.00 | 93 | 1011.7 |
| 20260509080053 | 46 | 190 | 0.0 | 0.0 | 0.00 | 0.01 | 0.00 | 93 | 1011.7 |
| 20260509080027 | 46 | 190 | 0.0 | 0.0 | 0.00 | 0.01 | 0.00 | 93 | 1011.7 |
| 20260509075918 | 46 | 190 | 0.0 | 0.0 | 0.00 | 0.01 | 0.00 | 93 | 1011.7 |
| 20260509075844 | 46 | 190 | 0.0 | 0.0 | 0.00 | 0.01 | 0.00 | 93 | 1011.7 |
| 20260509075709 | 46 | 191 | 0.0 | 0.0 | 0.00 | 0.01 | 0.00 | 93 | 1011.8 |
| 20260509075616 | 46 | 190 | 0.0 | 0.0 | 0.00 | 0.01 | 0.00 | 93 | 1011.8 |
| 20260509075529 | 46 | 190 | 0.0 | 0.0 | 0.00 | 0.01 | 0.00 | 93 | 1011.8 |
| 20260509075439 | 46 | 190 | 0.0 | 0.0 | 0.00 | 0.01 | 0.00 | 93 | 1011.8 |
| 20260509075351 | 46 | 190 | 0.0 | 0.0 | 0.00 | 0.01 | 0.00 | 93 | 1011.7 |
| 20260509075217 | 46 | 190 | 0.0 | 0.0 | 0.00 | 0.01 | 0.00 | 93 | 1011.8 |
| 20260509075123 | 46 | 190 | 0.0 | 0.0 | 0.00 | 0.01 | 0.00 | 94 | 1011.8 |
| 20260509075010 | 46 | 190 | 0.0 | 0.0 | 0.00 | 0.01 | 0.00 | 94 | 1011.8 |
| 20260509074916 | 46 | 190 | 0.0 | 0.0 | 0.00 | 0.01 | 0.00 | 94 | 1011.8 |
| 20260509074833 | 46 | 190 | 0.0 | 0.0 | 0.00 | 0.01 | 0.00 | 94 | 1011.8 |
| 20260509074739 | 46 | 191 | 0.0 | 0.0 | 0.00 | 0.01 | 0.00 | 94 | 1011.9 |
| 20260509074624 | 46 | 190 | 0.0 | 0.0 | 0.00 | 0.01 | 0.00 | 94 | 1011.9 |
| 20260509074542 | 45 | 190 | 0.0 | 0.0 | 0.00 | 0.01 | 0.00 | 94 | 1011.9 |
| 20260509074510 | 46 | 190 | 0.0 | 0.0 | 0.00 | 0.01 | 0.00 | 94 | 1011.9 |
| 20260509074443 | 46 | 190 | 0.0 | 0.0 | 0.00 | 0.01 | 0.00 | 93 | 1011.9 |
| 20260509074328 | 46 | 190 | 0.0 | 0.0 | 0.00 | 0.01 | 0.00 | 94 | 1011.9 |
| 20260509074219 | 46 | 190 | 0.0 | 0.0 | 0.00 | 0.01 | 0.00 | 94 | 1011.9 |
| 20260509074125 | 46 | 190 | 0.0 | 0.0 | 0.00 | 0.01 | 0.00 | 93 | 1011.9 |
| 20260509074012 | 46 | 191 | 0.0 | 0.0 | 0.00 | 0.01 | 0.00 | 93 | 1011.9 |
| 20260509073925 | 46 | 190 | 0.0 | 0.0 | 0.00 | 0.01 | 0.00 | 94 | 1011.9 |
| 20260509073831 | 46 | 190 | 0.0 | 0.0 | 0.00 | 0.01 | 0.00 | 94 | 1011.9 |
| 20260509073718 | 46 | 190 | 0.0 | 0.0 | 0.00 | 0.01 | 0.00 | 94 | 1011.9 |
| 20260509073628 | 46 | 190 | 0.0 | 0.0 | 0.00 | 0.01 | 0.00 | 94 | 1012.0 |
| 20260509073515 | 46 | 191 | 0.0 | 0.0 | 0.00 | 0.01 | 0.00 | 94 | 1012.0 |
| 20260509073421 | 46 | 190 | 0.0 | 0.0 | 0.00 | 0.01 | 0.00 | 94 | 1012.0 |
| 20260509073334 | 46 | 191 | 0.0 | 0.0 | 0.00 | 0.01 | 0.00 | 94 | 1012.0 |
| 20260509073241 | 46 | 190 | 0.0 | 0.0 | 0.00 | 0.01 | 0.00 | 94 | 1012.0 |
| 20260509073110 | 46 | 190 | 0.0 | 0.0 | 0.00 | 0.01 | 0.00 | 94 | 1012.0 |
| 20260509073042 | 45 | 190 | 0.0 | 0.0 | 0.00 | 0.01 | 0.00 | 94 | 1012.0 |
| 20260509073017 | 45 | 190 | 0.0 | 0.0 | 0.00 | 0.01 | 0.00 | 94 | 1012.0 |
| 20260509072931 | 45 | 191 | 0.0 | 0.0 | 0.00 | 0.01 | 0.00 | 94 | 1012.0 |
| 20260509072810 | 45 | 190 | 0.0 | 0.0 | 0.00 | 0.01 | 0.00 | 94 | 1012.0 |
| 20260509072723 | 45 | 190 | 0.0 | 0.0 | 0.00 | 0.01 | 0.00 | 94 | 1012.0 |
| 20260509072649 | 45 | 190 | 0.0 | 0.0 | 0.00 | 0.01 | 0.00 | 94 | 1012.0 |
| 20260509072519 | 45 | 190 | 0.0 | 0.0 | 0.00 | 0.01 | 0.00 | 94 | 1012.0 |
| 20260509072432 | 45 | 190 | 0.0 | 0.0 | 0.00 | 0.01 | 0.00 | 94 | 1012.0 |
| 20260509072319 | 45 | 190 | 0.0 | 0.0 | 0.00 | 0.01 | 0.00 | 94 | 1012.0 |
| 20260509072226 | 45 | 190 | 0.0 | 0.0 | 0.00 | 0.01 | 0.00 | 94 | 1012.0 |
| 20260509072132 | 45 | 190 | 0.0 | 0.0 | 0.00 | 0.01 | 0.00 | 94 | 1012.0 |
| 20260509072018 | 45 | 190 | 0.0 | 0.0 | 0.00 | 0.01 | 0.00 | 94 | 1012.0 |
| 20260509071934 | 45 | 190 | 0.0 | 0.0 | 0.00 | 0.01 | 0.00 | 94 | 1012.0 |
| 20260509071841 | 45 | 190 | 0.0 | 0.0 | 0.00 | 0.01 | 0.00 | 93 | 1012.0 |
| 20260509071726 | 45 | 190 | 0.0 | 0.0 | 0.00 | 0.01 | 0.00 | 94 | 1012.0 |
| 20260509071630 | 45 | 190 | 0.0 | 0.0 | 0.00 | 0.01 | 0.00 | 94 | 1012.0 |
| 20260509071612 | 45 | 190 | 0.0 | 0.0 | 0.00 | 0.01 | 0.00 | 94 | 1012.0 |
| 20260509071545 | 45 | 190 | 0.0 | 0.0 | 0.00 | 0.01 | 0.00 | 94 | 1012.0 |
| 20260509071411 | 45 | 190 | 0.0 | 0.0 | 0.00 | 0.01 | 0.00 | 93 | 1012.0 |
| 20260509071321 | 45 | 190 | 0.0 | 0.0 | 0.00 | 0.01 | 0.00 | 93 | 1012.0 |
| 20260509071234 | 45 | 190 | 0.0 | 0.0 | 0.00 | 0.01 | 0.00 | 94 | 1012.0 |
| 20260509071141 | 45 | 190 | 0.0 | 0.0 | 0.00 | 0.01 | 0.00 | 94 | 1012.1 |
| 20260509071025 | 45 | 190 | 0.0 | 0.0 | 0.00 | 0.01 | 0.00 | 94 | 1012.1 |
| 20260509070911 | 45 | 190 | 0.0 | 0.0 | 0.00 | 0.01 | 0.00 | 94 | 1012.0 |
| 20260509070817 | 45 | 190 | 0.0 | 0.0 | 0.00 | 0.01 | 0.00 | 94 | 1012.0 |
| 20260509070734 | 45 | 190 | 0.0 | 0.0 | 0.00 | 0.01 | 0.00 | 94 | 1012.1 |
| 20260509070642 | 45 | 190 | 0.0 | 0.0 | 0.00 | 0.01 | 0.00 | 94 | 1012.1 |
| 20260509070526 | 45 | 191 | 0.0 | 0.0 | 0.00 | 0.01 | 0.00 | 94 | 1012.0 |
| 20260509070413 | 45 | 190 | 0.0 | 0.0 | 0.00 | 0.01 | 0.00 | 94 | 1012.1 |
| 20260509070326 | 45 | 190 | 0.0 | 0.0 | 0.00 | 0.01 | 0.00 | 94 | 1012.1 |
| 20260509070232 | 45 | 190 | 0.0 | 0.0 | 0.00 | 0.01 | 0.00 | 94 | 1012.0 |
| 20260509070123 | 45 | 190 | 0.0 | 0.0 | 0.00 | 0.01 | 0.00 | 94 | 1012.0 |
| 20260509070058 | 45 | 190 | 0.0 | 0.0 | 0.00 | 0.01 | 0.00 | 94 | 1012.1 |
| 20260509070029 | 44 | 191 | 0.0 | 0.0 | 0.00 | 0.01 | 0.00 | 94 | 1012.0 |
| 20260509065914 | 45 | 190 | 0.0 | 0.0 | 0.00 | 0.01 | 0.00 | 94 | 1012.1 |
| 20260509065827 | 45 | 190 | 0.0 | 0.0 | 0.00 | 0.01 | 0.00 | 94 | 1012.1 |
| 20260509065713 | 45 | 190 | 0.0 | 0.0 | 0.00 | 0.01 | 0.00 | 94 | 1012.0 |
| 20260509065620 | 45 | 191 | 0.0 | 0.0 | 0.00 | 0.01 | 0.00 | 94 | 1012.0 |
| 20260509065511 | 45 | 190 | 0.0 | 0.0 | 0.00 | 0.01 | 0.00 | 94 | 1012.1 |
| 20260509065418 | 45 | 190 | 0.0 | 0.0 | 0.00 | 0.01 | 0.00 | 94 | 1012.1 |
| 20260509065332 | 45 | 190 | 0.0 | 0.0 | 0.00 | 0.01 | 0.00 | 94 | 1012.0 |
| 20260509065216 | 45 | 191 | 0.0 | 0.0 | 0.00 | 0.01 | 0.00 | 94 | 1012.0 |
| 20260509065123 | 45 | 190 | 0.0 | 0.0 | 0.00 | 0.01 | 0.00 | 94 | 1012.1 |
| 20260509065013 | 45 | 190 | 0.0 | 0.0 | 0.00 | 0.01 | 0.00 | 94 | 1012.1 |
| 20260509064920 | 45 | 190 | 0.0 | 0.0 | 0.00 | 0.01 | 0.00 | 94 | 1012.1 |
| 20260509064833 | 44 | 191 | 0.0 | 0.0 | 0.00 | 0.01 | 0.00 | 94 | 1012.2 |
| 20260509064720 | 44 | 191 | 0.0 | 0.0 | 0.00 | 0.01 | 0.00 | 94 | 1012.2 |
| 20260509064626 | 44 | 190 | 0.0 | 0.0 | 0.00 | 0.01 | 0.00 | 94 | 1012.2 |
| 20260509064557 | 44 | 190 | 0.0 | 0.0 | 0.00 | 0.01 | 0.00 | 94 | 1012.2 |
| 20260509064532 | 44 | 190 | 0.0 | 0.0 | 0.00 | 0.01 | 0.00 | 94 | 1012.2 |
| 20260509064428 | 44 | 190 | 0.0 | 0.0 | 0.00 | 0.01 | 0.00 | 94 | 1012.2 |
| 20260509064316 | 44 | 190 | 0.0 | 0.0 | 0.00 | 0.01 | 0.00 | 94 | 1012.2 |
| 20260509064241 | 44 | 191 | 0.0 | 0.0 | 0.00 | 0.01 | 0.00 | 94 | 1012.2 |
| 20260509064127 | 44 | 191 | 0.0 | 0.0 | 0.00 | 0.01 | 0.00 | 94 | 1012.3 |
| 20260509064013 | 44 | 190 | 0.0 | 0.0 | 0.00 | 0.01 | 0.00 | 94 | 1012.3 |
| 20260509063946 | 44 | 190 | 0.0 | 0.0 | 0.00 | 0.01 | 0.00 | 94 | 1012.3 |
| 20260509063831 | 44 | 191 | 0.0 | 0.0 | 0.00 | 0.01 | 0.00 | 94 | 1012.3 |
| 20260509063727 | 44 | 190 | 0.0 | 0.0 | 0.00 | 0.01 | 0.00 | 94 | 1012.3 |
| 20260509063613 | 44 | 190 | 0.0 | 0.0 | 0.00 | 0.01 | 0.00 | 94 | 1012.3 |
| 20260509063519 | 44 | 190 | 0.0 | 0.0 | 0.00 | 0.01 | 0.00 | 94 | 1012.3 |
| 20260509063426 | 44 | 190 | 0.0 | 0.0 | 0.00 | 0.01 | 0.00 | 94 | 1012.3 |
| 20260509063313 | 44 | 190 | 0.0 | 0.0 | 0.00 | 0.01 | 0.00 | 93 | 1012.3 |
| 20260509063231 | 44 | 190 | 0.0 | 0.0 | 0.00 | 0.01 | 0.00 | 93 | 1012.3 |
| 20260509063136 | 44 | 191 | 0.0 | 0.0 | 0.00 | 0.01 | 0.00 | 93 | 1012.4 |
| 20260509063052 | 43 | 190 | 0.0 | 0.0 | 0.00 | 0.01 | 0.00 | 93 | 1012.4 |
| 20260509063021 | 44 | 190 | 0.0 | 0.0 | 0.00 | 0.01 | 0.00 | 93 | 1012.4 |
| 20260509062926 | 44 | 190 | 0.0 | 0.0 | 0.00 | 0.01 | 0.00 | 94 | 1012.3 |
| 20260509062840 | 44 | 191 | 0.0 | 0.0 | 0.00 | 0.01 | 0.00 | 94 | 1012.4 |
| 20260509062726 | 44 | 190 | 0.0 | 0.0 | 0.00 | 0.01 | 0.00 | 94 | 1012.4 |
| 20260509062615 | 44 | 190 | 0.0 | 0.0 | 0.00 | 0.01 | 0.00 | 94 | 1012.4 |
| 20260509062523 | 44 | 190 | 0.0 | 0.0 | 0.00 | 0.01 | 0.00 | 94 | 1012.4 |
| 20260509062436 | 43 | 190 | 0.0 | 0.0 | 0.00 | 0.01 | 0.00 | 94 | 1012.5 |
| 20260509062314 | 43 | 190 | 0.0 | 0.0 | 0.00 | 0.01 | 0.00 | 94 | 1012.4 |
| 20260509062228 | 43 | 190 | 0.0 | 0.0 | 0.00 | 0.01 | 0.00 | 94 | 1012.4 |
| 20260509062113 | 43 | 190 | 0.0 | 0.0 | 0.00 | 0.01 | 0.00 | 93 | 1012.4 |
| 20260509062024 | 43 | 190 | 0.0 | 0.0 | 0.00 | 0.01 | 0.00 | 93 | 1012.4 |
| 20260509061911 | 43 | 190 | 0.0 | 0.0 | 0.00 | 0.01 | 0.00 | 93 | 1012.4 |
| 20260509061817 | 43 | 190 | 0.0 | 0.0 | 0.00 | 0.01 | 0.00 | 93 | 1012.4 |
| 20260509061731 | 43 | 190 | 0.0 | 0.0 | 0.00 | 0.01 | 0.00 | 93 | 1012.4 |
| 20260509061618 | 43 | 190 | 0.0 | 0.0 | 0.00 | 0.01 | 0.00 | 93 | 1012.4 |
| 20260509061526 | 43 | 190 | 0.0 | 0.0 | 0.00 | 0.01 | 0.00 | 93 | 1012.5 |
| 20260509061413 | 43 | 190 | 0.0 | 0.0 | 0.00 | 0.01 | 0.00 | 93 | 1012.5 |
| 20260509061319 | 43 | 190 | 0.0 | 0.0 | 0.00 | 0.01 | 0.00 | 93 | 1012.5 |
| 20260509061225 | 43 | 190 | 0.0 | 0.0 | 0.00 | 0.01 | 0.00 | 93 | 1012.5 |
| 20260509061113 | 43 | 190 | 0.0 | 0.0 | 0.00 | 0.01 | 0.00 | 93 | 1012.5 |
| 20260509061025 | 43 | 190 | 0.0 | 0.0 | 0.00 | 0.01 | 0.00 | 93 | 1012.5 |
| 20260509060915 | 43 | 190 | 0.0 | 0.0 | 0.00 | 0.01 | 0.00 | 93 | 1012.5 |
| 20260509060822 | 43 | 190 | 0.0 | 0.0 | 0.00 | 0.01 | 0.00 | 93 | 1012.5 |
| 20260509060709 | 43 | 191 | 0.0 | 0.0 | 0.00 | 0.01 | 0.00 | 93 | 1012.5 |
| 20260509060616 | 43 | 190 | 0.0 | 0.0 | 0.00 | 0.01 | 0.00 | 93 | 1012.5 |
| 20260509060523 | 43 | 190 | 0.0 | 0.0 | 0.00 | 0.01 | 0.00 | 93 | 1012.5 |
| 20260509060412 | 43 | 191 | 0.0 | 0.0 | 0.00 | 0.01 | 0.00 | 93 | 1012.6 |
| 20260509060325 | 43 | 191 | 0.0 | 0.0 | 0.00 | 0.01 | 0.00 | 93 | 1012.6 |
| 20260509060212 | 43 | 190 | 0.0 | 0.0 | 0.00 | 0.01 | 0.00 | 93 | 1012.5 |
| 20260509060139 | 43 | 190 | 0.0 | 0.0 | 0.00 | 0.01 | 0.00 | 93 | 1012.5 |
| 20260509060031 | 43 | 190 | 0.0 | 0.0 | 0.00 | 0.01 | 0.00 | 93 | 1012.5 |
| 20260509060024 | 43 | 190 | 0.0 | 0.0 | 0.00 | 0.01 | 0.00 | 93 | 1012.5 |
| 20260509055937 | 43 | 190 | 0.0 | 0.0 | 0.00 | 0.01 | 0.00 | 93 | 1012.5 |
| 20260509055826 | 43 | 190 | 0.0 | 0.0 | 0.00 | 0.01 | 0.00 | 93 | 1012.5 |
| 20260509055712 | 43 | 190 | 0.0 | 0.0 | 0.00 | 0.01 | 0.00 | 93 | 1012.5 |
| 20260509055619 | 43 | 190 | 0.0 | 0.0 | 0.00 | 0.01 | 0.00 | 92 | 1012.5 |
| 20260509055532 | 43 | 190 | 0.0 | 0.0 | 0.00 | 0.01 | 0.00 | 92 | 1012.5 |
| 20260509055438 | 43 | 190 | 0.0 | 0.0 | 0.00 | 0.01 | 0.00 | 92 | 1012.5 |
| 20260509055350 | 43 | 191 | 0.0 | 0.0 | 0.00 | 0.01 | 0.00 | 92 | 1012.5 |
| 20260509055219 | 43 | 190 | 0.0 | 0.0 | 0.00 | 0.01 | 0.00 | 92 | 1012.5 |
| 20260509055125 | 43 | 190 | 0.0 | 0.0 | 0.00 | 0.01 | 0.00 | 92 | 1012.5 |
| 20260509055032 | 43 | 190 | 0.0 | 0.0 | 0.00 | 0.01 | 0.00 | 92 | 1012.5 |
| 20260509054924 | 43 | 190 | 0.0 | 0.0 | 0.00 | 0.01 | 0.00 | 92 | 1012.5 |
| 20260509054830 | 43 | 190 | 0.0 | 0.0 | 0.00 | 0.01 | 0.00 | 92 | 1012.5 |
| 20260509054716 | 43 | 190 | 0.0 | 0.0 | 0.00 | 0.01 | 0.00 | 92 | 1012.5 |
| 20260509054654 | 42 | 190 | 0.0 | 0.0 | 0.00 | 0.01 | 0.00 | 92 | 1012.5 |
| 20260509054642 | 43 | 190 | 0.0 | 0.0 | 0.00 | 0.01 | 0.00 | 92 | 1012.5 |
| 20260509054538 | 43 | 190 | 0.0 | 0.0 | 0.00 | 0.01 | 0.00 | 92 | 1012.6 |
| 20260509054423 | 43 | 190 | 0.0 | 0.0 | 0.00 | 0.01 | 0.00 | 92 | 1012.6 |
| 20260509054330 | 43 | 190 | 0.0 | 0.0 | 0.00 | 0.01 | 0.00 | 92 | 1012.6 |
| 20260509054213 | 43 | 191 | 0.0 | 0.0 | 0.00 | 0.01 | 0.00 | 92 | 1012.6 |
| 20260509054126 | 43 | 190 | 0.0 | 0.0 | 0.00 | 0.01 | 0.00 | 92 | 1012.6 |
| 20260509054016 | 43 | 190 | 0.0 | 0.0 | 0.00 | 0.01 | 0.00 | 92 | 1012.6 |
| 20260509053919 | 43 | 190 | 0.0 | 0.0 | 0.00 | 0.01 | 0.00 | 92 | 1012.6 |
| 20260509053826 | 43 | 191 | 0.0 | 0.0 | 0.00 | 0.01 | 0.00 | 92 | 1012.6 |
| 20260509053725 | 43 | 190 | 0.0 | 0.0 | 0.00 | 0.01 | 0.00 | 92 | 1012.6 |
| 20260509053634 | 43 | 190 | 0.0 | 0.0 | 0.00 | 0.01 | 0.00 | 92 | 1012.6 |
| 20260509053519 | 43 | 190 | 0.0 | 0.0 | 0.00 | 0.01 | 0.00 | 92 | 1012.6 |
| 20260509053410 | 43 | 190 | 0.0 | 0.0 | 0.00 | 0.01 | 0.00 | 92 | 1012.6 |
| 20260509053318 | 43 | 190 | 0.0 | 0.0 | 0.00 | 0.01 | 0.00 | 92 | 1012.6 |
| 20260509053230 | 43 | 190 | 0.0 | 0.0 | 0.00 | 0.01 | 0.00 | 92 | 1012.6 |
| 20260509053137 | 43 | 190 | 0.0 | 0.0 | 0.00 | 0.01 | 0.00 | 92 | 1012.6 |
| 20260509053049 | 43 | 190 | 0.0 | 0.0 | 0.00 | 0.01 | 0.00 | 92 | 1012.5 |
| 20260509053018 | 43 | 190 | 0.0 | 0.0 | 0.00 | 0.01 | 0.00 | 92 | 1012.5 |
| 20260509052915 | 43 | 190 | 0.0 | 0.0 | 0.00 | 0.01 | 0.00 | 92 | 1012.6 |
| 20260509052820 | 43 | 190 | 0.0 | 0.0 | 0.00 | 0.01 | 0.00 | 92 | 1012.5 |
| 20260509052710 | 43 | 190 | 0.0 | 0.0 | 0.00 | 0.01 | 0.00 | 92 | 1012.6 |
| 20260509052616 | 43 | 190 | 0.0 | 0.0 | 0.00 | 0.01 | 0.00 | 92 | 1012.6 |
| 20260509052550 | 43 | 190 | 0.0 | 0.0 | 0.00 | 0.01 | 0.00 | 92 | 1012.6 |
| 20260509052414 | 43 | 191 | 0.0 | 0.0 | 0.00 | 0.01 | 0.00 | 91 | 1012.5 |
| 20260509052337 | 43 | 190 | 0.0 | 0.0 | 0.00 | 0.01 | 0.00 | 91 | 1012.5 |
| 20260509052236 | 43 | 190 | 0.0 | 0.0 | 0.00 | 0.01 | 0.00 | 91 | 1012.5 |
| 20260509052125 | 43 | 190 | 0.0 | 0.0 | 0.00 | 0.01 | 0.00 | 91 | 1012.5 |
| 20260509052012 | 43 | 190 | 0.0 | 0.0 | 0.00 | 0.01 | 0.00 | 92 | 1012.5 |
| 20260509051917 | 43 | 190 | 0.0 | 0.0 | 0.00 | 0.01 | 0.00 | 91 | 1012.5 |
| 20260509051851 | 43 | 190 | 0.0 | 0.0 | 0.00 | 0.01 | 0.00 | 91 | 1012.5 |
| 20260509051736 | 43 | 190 | 0.0 | 0.0 | 0.00 | 0.01 | 0.00 | 91 | 1012.5 |
| 20260509051637 | 43 | 190 | 0.0 | 0.0 | 0.00 | 0.01 | 0.00 | 91 | 1012.5 |
| 20260509051548 | 43 | 190 | 0.0 | 0.0 | 0.00 | 0.01 | 0.00 | 91 | 1012.5 |
| 20260509051507 | 43 | 190 | 0.0 | 0.0 | 0.00 | 0.01 | 0.00 | 91 | 1012.5 |
| 20260509051417 | 43 | 191 | 0.0 | 0.0 | 0.00 | 0.01 | 0.00 | 91 | 1012.5 |
| 20260509051319 | 43 | 190 | 0.0 | 0.0 | 0.00 | 0.01 | 0.00 | 91 | 1012.5 |
| 20260509051222 | 43 | 190 | 0.0 | 0.0 | 0.00 | 0.01 | 0.00 | 91 | 1012.5 |
| 20260509051132 | 43 | 190 | 0.0 | 0.0 | 0.00 | 0.01 | 0.00 | 91 | 1012.4 |
| 20260509051018 | 43 | 190 | 0.0 | 0.0 | 0.00 | 0.01 | 0.00 | 91 | 1012.5 |
| 20260509050944 | 44 | 190 | 0.0 | 0.0 | 0.00 | 0.01 | 0.00 | 91 | 1012.5 |
| 20260509050813 | 44 | 190 | 0.0 | 0.0 | 0.00 | 0.01 | 0.00 | 91 | 1012.5 |
| 20260509050746 | 44 | 191 | 0.0 | 0.0 | 0.00 | 0.01 | 0.00 | 91 | 1012.5 |
| 20260509050632 | 44 | 190 | 0.0 | 0.0 | 0.00 | 0.01 | 0.00 | 91 | 1012.5 |
| 20260509050544 | 44 | 190 | 0.0 | 0.0 | 0.00 | 0.01 | 0.00 | 91 | 1012.5 |
| 20260509050409 | 44 | 190 | 0.0 | 0.0 | 0.00 | 0.01 | 0.00 | 91 | 1012.5 |
| 20260509050315 | 44 | 190 | 0.0 | 0.0 | 0.00 | 0.01 | 0.00 | 91 | 1012.5 |
| 20260509050248 | 44 | 190 | 0.0 | 0.0 | 0.00 | 0.01 | 0.00 | 91 | 1012.5 |
| 20260509050138 | 43 | 190 | 0.0 | 0.0 | 0.00 | 0.01 | 0.00 | 91 | 1012.4 |
| 20260509050117 | 44 | 190 | 0.0 | 0.0 | 0.00 | 0.01 | 0.00 | 91 | 1012.4 |
| 20260509050023 | 44 | 190 | 0.0 | 0.0 | 0.00 | 0.01 | 0.00 | 91 | 1012.4 |
| 20260509045909 | 44 | 190 | 0.0 | 0.0 | 0.00 | 0.01 | 0.00 | 91 | 1012.4 |
| 20260509045816 | 44 | 191 | 0.0 | 0.0 | 0.00 | 0.01 | 0.00 | 91 | 1012.4 |
| 20260509045723 | 44 | 190 | 0.0 | 0.0 | 0.00 | 0.01 | 0.00 | 91 | 1012.4 |
| 20260509045614 | 44 | 190 | 0.0 | 0.0 | 0.00 | 0.01 | 0.00 | 91 | 1012.4 |
| 20260509045527 | 44 | 190 | 0.0 | 0.0 | 0.00 | 0.01 | 0.00 | 91 | 1012.4 |
| 20260509045413 | 44 | 190 | 0.0 | 0.0 | 0.00 | 0.01 | 0.00 | 91 | 1012.5 |
| 20260509045320 | 44 | 191 | 0.0 | 0.0 | 0.00 | 0.01 | 0.00 | 91 | 1012.5 |
| 20260509045226 | 44 | 190 | 0.0 | 0.0 | 0.00 | 0.01 | 0.00 | 91 | 1012.5 |
| 20260509045117 | 44 | 190 | 0.0 | 0.0 | 0.00 | 0.01 | 0.00 | 91 | 1012.5 |
| 20260509045030 | 44 | 190 | 0.0 | 0.0 | 0.00 | 0.01 | 0.00 | 91 | 1012.5 |
| 20260509044917 | 44 | 190 | 0.0 | 0.0 | 0.00 | 0.01 | 0.00 | 91 | 1012.5 |
| 20260509044844 | 44 | 190 | 0.0 | 0.0 | 0.00 | 0.01 | 0.00 | 91 | 1012.5 |
| 20260509044729 | 44 | 190 | 0.0 | 0.0 | 0.00 | 0.01 | 0.00 | 91 | 1012.5 |
| 20260509044616 | 44 | 190 | 0.0 | 0.0 | 0.00 | 0.01 | 0.00 | 91 | 1012.5 |
| 20260509044533 | 44 | 191 | 0.0 | 0.0 | 0.00 | 0.01 | 0.00 | 91 | 1012.5 |
| 20260509044511 | 44 | 190 | 0.0 | 0.0 | 0.00 | 0.01 | 0.00 | 91 | 1012.5 |
| 20260509044439 | 44 | 190 | 0.0 | 0.0 | 0.00 | 0.01 | 0.00 | 91 | 1012.5 |
| 20260509044325 | 44 | 190 | 0.0 | 0.0 | 0.00 | 0.01 | 0.00 | 91 | 1012.5 |
| 20260509044212 | 44 | 190 | 0.0 | 0.0 | 0.00 | 0.01 | 0.00 | 91 | 1012.6 |
| 20260509044124 | 44 | 191 | 0.0 | 0.0 | 0.00 | 0.01 | 0.00 | 91 | 1012.6 |
| 20260509044012 | 44 | 190 | 0.0 | 0.0 | 0.00 | 0.01 | 0.00 | 91 | 1012.6 |
| 20260509043921 | 44 | 190 | 0.0 | 0.0 | 0.00 | 0.01 | 0.00 | 91 | 1012.6 |
| 20260509043828 | 44 | 190 | 0.0 | 0.0 | 0.00 | 0.01 | 0.00 | 91 | 1012.5 |
| 20260509043714 | 44 | 190 | 0.0 | 0.0 | 0.00 | 0.01 | 0.00 | 91 | 1012.5 |
| 20260509043621 | 44 | 190 | 0.0 | 0.0 | 0.00 | 0.01 | 0.00 | 91 | 1012.5 |
| 20260509043534 | 44 | 190 | 0.0 | 0.0 | 0.00 | 0.01 | 0.00 | 91 | 1012.5 |
| 20260509043437 | 44 | 190 | 0.0 | 0.0 | 0.00 | 0.01 | 0.00 | 91 | 1012.5 |
| 20260509043326 | 44 | 190 | 0.0 | 0.0 | 0.00 | 0.01 | 0.00 | 91 | 1012.5 |
| 20260509043230 | 44 | 191 | 0.0 | 0.0 | 0.00 | 0.01 | 0.00 | 91 | 1012.5 |
| 20260509043129 | 44 | 190 | 0.0 | 0.0 | 0.00 | 0.01 | 0.00 | 91 | 1012.5 |
| 20260509043057 | 44 | 191 | 0.0 | 0.0 | 0.00 | 0.01 | 0.00 | 91 | 1012.4 |
| 20260509043032 | 44 | 190 | 0.0 | 0.0 | 0.00 | 0.01 | 0.00 | 91 | 1012.5 |
| 20260509043005 | 44 | 190 | 0.0 | 0.0 | 0.00 | 0.01 | 0.00 | 91 | 1012.4 |
| 20260509042809 | 44 | 190 | 0.0 | 0.0 | 0.00 | 0.01 | 0.00 | 91 | 1012.4 |
| 20260509042720 | 44 | 190 | 0.0 | 0.0 | 0.00 | 0.01 | 0.00 | 91 | 1012.4 |
| 20260509042627 | 44 | 190 | 0.0 | 0.0 | 0.00 | 0.01 | 0.00 | 91 | 1012.5 |
| 20260509042514 | 44 | 190 | 0.0 | 0.0 | 0.00 | 0.01 | 0.00 | 91 | 1012.4 |
| 20260509042427 | 44 | 190 | 0.0 | 0.0 | 0.00 | 0.01 | 0.00 | 91 | 1012.5 |
| 20260509042313 | 45 | 191 | 0.0 | 0.0 | 0.00 | 0.01 | 0.00 | 91 | 1012.4 |
| 20260509042219 | 44 | 190 | 0.0 | 0.0 | 0.00 | 0.01 | 0.00 | 91 | 1012.4 |
| 20260509042156 | 45 | 191 | 0.0 | 0.0 | 0.00 | 0.01 | 0.00 | 91 | 1012.4 |
| 20260509042021 | 45 | 190 | 0.0 | 0.0 | 0.00 | 0.01 | 0.00 | 91 | 1012.4 |
| 20260509041927 | 45 | 190 | 0.0 | 0.0 | 0.00 | 0.01 | 0.00 | 91 | 1012.4 |
| 20260509041813 | 45 | 190 | 0.0 | 0.0 | 0.00 | 0.01 | 0.00 | 91 | 1012.4 |
| 20260509041720 | 45 | 190 | 0.0 | 0.0 | 0.00 | 0.01 | 0.00 | 91 | 1012.4 |
| 20260509041653 | 45 | 190 | 0.0 | 0.0 | 0.00 | 0.01 | 0.00 | 91 | 1012.4 |
| 20260509041522 | 45 | 191 | 0.0 | 0.0 | 0.00 | 0.01 | 0.00 | 91 | 1012.4 |
| 20260509041508 | 44 | 191 | 0.0 | 0.0 | 0.00 | 0.01 | 0.00 | 91 | 1012.4 |
| 20260509041428 | 45 | 190 | 0.0 | 0.0 | 0.00 | 0.01 | 0.00 | 91 | 1012.4 |
| 20260509041314 | 45 | 191 | 0.0 | 0.0 | 0.00 | 0.01 | 0.00 | 90 | 1012.3 |
| 20260509041220 | 45 | 190 | 0.0 | 0.0 | 0.00 | 0.01 | 0.00 | 90 | 1012.4 |
| 20260509041113 | 45 | 190 | 0.0 | 0.0 | 0.00 | 0.01 | 0.00 | 90 | 1012.4 |
| 20260509041018 | 45 | 191 | 0.0 | 0.0 | 0.00 | 0.01 | 0.00 | 90 | 1012.4 |
| 20260509040909 | 45 | 190 | 0.0 | 0.0 | 0.00 | 0.01 | 0.00 | 90 | 1012.4 |
| 20260509040815 | 45 | 191 | 0.0 | 0.0 | 0.00 | 0.01 | 0.00 | 90 | 1012.4 |
| 20260509040722 | 45 | 190 | 0.0 | 0.0 | 0.00 | 0.01 | 0.00 | 90 | 1012.4 |
| 20260509040635 | 45 | 191 | 0.0 | 0.0 | 0.00 | 0.01 | 0.00 | 90 | 1012.5 |
| 20260509040521 | 45 | 191 | 0.0 | 0.0 | 0.00 | 0.01 | 0.00 | 90 | 1012.5 |
| 20260509040412 | 45 | 190 | 0.0 | 0.0 | 0.00 | 0.01 | 0.00 | 90 | 1012.4 |
| 20260509040335 | 45 | 191 | 0.0 | 0.0 | 0.00 | 0.01 | 0.00 | 90 | 1012.4 |
| 20260509040247 | 45 | 190 | 0.0 | 0.0 | 0.00 | 0.01 | 0.00 | 90 | 1012.5 |
| 20260509040112 | 45 | 191 | 0.0 | 0.0 | 0.00 | 0.01 | 0.00 | 90 | 1012.5 |
| 20260509040046 | 45 | 190 | 0.0 | 0.0 | 0.00 | 0.01 | 0.00 | 90 | 1012.5 |
| 20260509040018 | 45 | 191 | 0.0 | 0.0 | 0.00 | 0.01 | 0.00 | 90 | 1012.5 |
| 20260509035925 | 45 | 190 | 0.0 | 0.0 | 0.00 | 0.01 | 0.00 | 90 | 1012.5 |
| 20260509035814 | 45 | 190 | 0.0 | 0.0 | 0.00 | 0.01 | 0.00 | 90 | 1012.5 |
| 20260509035727 | 45 | 190 | 0.0 | 0.0 | 0.00 | 0.01 | 0.00 | 90 | 1012.5 |
| 20260509035614 | 45 | 190 | 0.0 | 0.0 | 0.00 | 0.01 | 0.00 | 89 | 1012.5 |
| 20260509035515 | 45 | 191 | 0.0 | 0.0 | 0.00 | 0.01 | 0.00 | 90 | 1012.5 |
| 20260509035421 | 45 | 191 | 0.0 | 0.0 | 0.00 | 0.01 | 0.00 | 89 | 1012.5 |
| 20260509035333 | 45 | 190 | 0.0 | 0.0 | 0.00 | 0.01 | 0.00 | 89 | 1012.5 |
| 20260509035224 | 45 | 190 | 0.0 | 0.0 | 0.00 | 0.01 | 0.00 | 90 | 1012.5 |
| 20260509035120 | 45 | 190 | 0.0 | 0.0 | 0.00 | 0.01 | 0.00 | 90 | 1012.6 |
| 20260509035017 | 46 | 190 | 0.0 | 0.0 | 0.00 | 0.01 | 0.00 | 90 | 1012.6 |
| 20260509034924 | 46 | 190 | 0.0 | 0.0 | 0.00 | 0.01 | 0.00 | 90 | 1012.6 |
| 20260509034837 | 46 | 190 | 0.0 | 0.0 | 0.00 | 0.01 | 0.00 | 90 | 1012.6 |
| 20260509034721 | 46 | 190 | 0.0 | 0.0 | 0.00 | 0.01 | 0.00 | 90 | 1012.6 |
| 20260509034620 | 46 | 190 | 0.0 | 0.0 | 0.00 | 0.01 | 0.00 | 90 | 1012.6 |
| 20260509034548 | 45 | 190 | 0.0 | 0.0 | 0.00 | 0.01 | 0.00 | 90 | 1012.6 |
| 20260509034526 | 46 | 190 | 0.0 | 0.0 | 0.00 | 0.01 | 0.00 | 90 | 1012.6 |
| 20260509034410 | 46 | 190 | 0.0 | 0.0 | 0.00 | 0.01 | 0.01 | 90 | 1012.5 |
| 20260509034324 | 46 | 190 | 0.0 | 0.0 | 0.00 | 0.01 | 0.01 | 90 | 1012.5 |
| 20260509034246 | 46 | 191 | 0.0 | 0.0 | 0.00 | 0.01 | 0.01 | 90 | 1012.6 |
| 20260509034131 | 46 | 190 | 0.0 | 0.0 | 0.00 | 0.01 | 0.01 | 90 | 1012.5 |
| 20260509034050 | 46 | 190 | 0.0 | 0.0 | 0.00 | 0.01 | 0.01 | 89 | 1012.6 |
| 20260509034020 | 46 | 190 | 0.0 | 0.0 | 0.00 | 0.01 | 0.01 | 89 | 1012.6 |
| 20260509033810 | 46 | 190 | 0.0 | 0.0 | 0.00 | 0.01 | 0.01 | 90 | 1012.6 |
| 20260509033736 | 46 | 190 | 0.0 | 0.0 | 0.00 | 0.01 | 0.01 | 89 | 1012.6 |
| 20260509033627 | 46 | 190 | 0.0 | 0.0 | 0.00 | 0.01 | 0.01 | 89 | 1012.6 |
| 20260509033514 | 46 | 190 | 0.0 | 0.0 | 0.00 | 0.01 | 0.01 | 89 | 1012.6 |
| 20260509033420 | 46 | 190 | 0.0 | 0.0 | 0.00 | 0.01 | 0.01 | 89 | 1012.6 |
| 20260509033319 | 46 | 190 | 0.0 | 0.0 | 0.00 | 0.01 | 0.01 | 89 | 1012.6 |
| 20260509033229 | 46 | 190 | 0.0 | 0.0 | 0.00 | 0.01 | 0.01 | 89 | 1012.6 |
| 20260509033132 | 46 | 190 | 0.0 | 0.0 | 0.00 | 0.01 | 0.01 | 89 | 1012.6 |
| 20260509033042 | 46 | 190 | 0.0 | 0.0 | 0.00 | 0.01 | 0.01 | 89 | 1012.6 |
| 20260509033013 | 46 | 190 | 0.0 | 0.0 | 0.00 | 0.01 | 0.01 | 89 | 1012.6 |
| 20260509032943 | 46 | 190 | 0.0 | 0.0 | 0.00 | 0.01 | 0.01 | 89 | 1012.6 |
| 20260509032821 | 46 | 190 | 0.0 | 0.0 | 0.00 | 0.01 | 0.01 | 89 | 1012.7 |
| 20260509032712 | 46 | 190 | 0.0 | 0.0 | 0.00 | 0.01 | 0.01 | 89 | 1012.6 |
| 20260509032618 | 46 | 191 | 0.0 | 0.0 | 0.00 | 0.01 | 0.01 | 89 | 1012.6 |
| 20260509032525 | 46 | 190 | 0.0 | 0.0 | 0.00 | 0.01 | 0.01 | 89 | 1012.6 |
| 20260509032434 | 47 | 190 | 0.0 | 0.0 | 0.00 | 0.01 | 0.01 | 89 | 1012.6 |
| 20260509032326 | 47 | 191 | 0.0 | 0.0 | 0.00 | 0.01 | 0.01 | 88 | 1012.6 |
| 20260509032213 | 47 | 191 | 0.0 | 0.0 | 0.00 | 0.01 | 0.01 | 89 | 1012.7 |
| 20260509032146 | 47 | 190 | 0.0 | 0.0 | 0.00 | 0.01 | 0.01 | 89 | 1012.7 |
| 20260509032041 | 47 | 190 | 0.0 | 0.0 | 0.00 | 0.01 | 0.01 | 89 | 1012.6 |
| 20260509031912 | 47 | 190 | 0.0 | 0.0 | 0.00 | 0.01 | 0.01 | 89 | 1012.7 |
| 20260509031819 | 47 | 190 | 0.0 | 0.0 | 0.00 | 0.01 | 0.01 | 89 | 1012.7 |
| 20260509031752 | 47 | 190 | 0.0 | 0.0 | 0.00 | 0.01 | 0.01 | 89 | 1012.7 |
| 20260509031620 | 47 | 190 | 0.0 | 0.0 | 0.00 | 0.01 | 0.01 | 89 | 1012.7 |
| 20260509031603 | 46 | 190 | 0.0 | 0.0 | 0.00 | 0.01 | 0.01 | 89 | 1012.7 |
| 20260509031542 | 47 | 191 | 0.0 | 0.0 | 0.00 | 0.01 | 0.01 | 89 | 1012.7 |
| 20260509031409 | 47 | 191 | 0.0 | 0.0 | 0.00 | 0.01 | 0.01 | 89 | 1012.7 |
| 20260509031342 | 47 | 190 | 0.0 | 0.0 | 0.00 | 0.01 | 0.01 | 89 | 1012.7 |
| 20260509031251 | 47 | 190 | 0.0 | 0.0 | 0.00 | 0.01 | 0.01 | 88 | 1012.7 |
| 20260509031130 | 47 | 190 | 0.0 | 0.0 | 0.00 | 0.01 | 0.01 | 88 | 1012.7 |
| 20260509031014 | 47 | 191 | 0.0 | 0.0 | 0.00 | 0.01 | 0.01 | 88 | 1012.7 |
| 20260509030916 | 47 | 191 | 0.0 | 0.0 | 0.00 | 0.01 | 0.01 | 88 | 1012.7 |
| 20260509030821 | 47 | 191 | 0.0 | 0.0 | 0.00 | 0.01 | 0.01 | 88 | 1012.7 |
| 20260509030712 | 47 | 191 | 0.0 | 0.0 | 0.00 | 0.01 | 0.01 | 88 | 1012.7 |
| 20260509030625 | 47 | 191 | 0.0 | 0.0 | 0.00 | 0.01 | 0.01 | 88 | 1012.7 |
| 20260509030511 | 47 | 190 | 0.0 | 0.0 | 0.00 | 0.01 | 0.01 | 88 | 1012.8 |
| 20260509030418 | 47 | 190 | 0.0 | 0.0 | 0.00 | 0.01 | 0.01 | 88 | 1012.8 |
| 20260509030325 | 48 | 191 | 0.0 | 0.0 | 0.00 | 0.01 | 0.01 | 88 | 1012.8 |
| 20260509030242 | 48 | 190 | 0.0 | 0.0 | 0.00 | 0.01 | 0.01 | 88 | 1012.8 |
| 20260509030147 | 48 | 190 | 0.0 | 0.0 | 0.00 | 0.01 | 0.01 | 88 | 1012.8 |
| 20260509030042 | 47 | 190 | 0.0 | 0.0 | 0.00 | 0.01 | 0.01 | 88 | 1012.8 |
| 20260509030012 | 48 | 190 | 0.0 | 0.0 | 0.00 | 0.01 | 0.01 | 88 | 1012.8 |
| 20260509025919 | 48 | 190 | 0.0 | 0.0 | 0.00 | 0.01 | 0.01 | 88 | 1012.8 |
| 20260509025832 | 48 | 191 | 0.0 | 0.0 | 0.00 | 0.01 | 0.01 | 88 | 1012.8 |
| 20260509025719 | 48 | 191 | 0.0 | 0.0 | 0.00 | 0.01 | 0.01 | 88 | 1012.8 |
| 20260509025611 | 48 | 190 | 0.0 | 0.0 | 0.00 | 0.01 | 0.01 | 88 | 1012.8 |
| 20260509025517 | 48 | 191 | 0.0 | 0.0 | 0.00 | 0.01 | 0.01 | 88 | 1012.8 |
| 20260509025424 | 48 | 190 | 0.0 | 0.0 | 0.00 | 0.01 | 0.01 | 88 | 1012.7 |
| 20260509025338 | 48 | 190 | 0.0 | 0.0 | 0.00 | 0.01 | 0.01 | 88 | 1012.7 |
| 20260509025222 | 48 | 190 | 0.0 | 0.0 | 0.00 | 0.01 | 0.01 | 88 | 1012.7 |
| 20260509025128 | 48 | 190 | 0.0 | 0.0 | 0.00 | 0.01 | 0.01 | 88 | 1012.7 |
| 20260509025019 | 48 | 190 | 0.0 | 0.0 | 0.00 | 0.01 | 0.01 | 88 | 1012.8 |
| 20260509024922 | 48 | 190 | 0.0 | 0.0 | 0.00 | 0.01 | 0.01 | 87 | 1012.8 |
| 20260509024835 | 48 | 191 | 0.0 | 0.0 | 0.00 | 0.01 | 0.01 | 87 | 1012.8 |
| 20260509024721 | 48 | 191 | 0.0 | 0.0 | 0.00 | 0.01 | 0.01 | 87 | 1012.8 |
| 20260509024628 | 48 | 190 | 0.0 | 0.0 | 0.00 | 0.01 | 0.01 | 87 | 1012.8 |
| 20260509024600 | 48 | 190 | 0.0 | 0.0 | 0.00 | 0.01 | 0.01 | 87 | 1012.7 |
| 20260509024518 | 48 | 190 | 0.0 | 0.0 | 0.00 | 0.01 | 0.01 | 87 | 1012.8 |
| 20260509024452 | 48 | 191 | 0.0 | 0.0 | 0.00 | 0.01 | 0.01 | 87 | 1012.8 |
| 20260509024318 | 49 | 190 | 0.0 | 0.0 | 0.00 | 0.01 | 0.01 | 87 | 1012.8 |
| 20260509024224 | 49 | 190 | 0.0 | 0.0 | 0.00 | 0.01 | 0.01 | 87 | 1012.8 |
| 20260509024111 | 49 | 190 | 0.0 | 0.0 | 0.00 | 0.01 | 0.01 | 87 | 1012.9 |
| 20260509024017 | 49 | 190 | 0.0 | 0.0 | 0.00 | 0.01 | 0.01 | 87 | 1012.9 |
| 20260509023928 | 49 | 190 | 0.0 | 0.0 | 0.00 | 0.01 | 0.01 | 87 | 1012.9 |
| 20260509023841 | 49 | 190 | 0.0 | 0.0 | 0.00 | 0.01 | 0.01 | 87 | 1012.9 |
| 20260509023747 | 49 | 190 | 0.0 | 0.0 | 0.00 | 0.01 | 0.01 | 86 | 1012.8 |
| 20260509023639 | 49 | 191 | 0.0 | 0.0 | 0.00 | 0.01 | 0.01 | 86 | 1012.8 |
| 20260509023545 | 49 | 190 | 0.0 | 0.0 | 0.00 | 0.01 | 0.01 | 86 | 1012.8 |
| 20260509023411 | 49 | 190 | 0.0 | 0.0 | 0.00 | 0.01 | 0.01 | 86 | 1012.8 |
| 20260509023325 | 49 | 191 | 0.0 | 0.0 | 0.00 | 0.01 | 0.01 | 86 | 1012.8 |
| 20260509023215 | 49 | 190 | 0.0 | 0.0 | 0.00 | 0.01 | 0.01 | 86 | 1012.8 |
| 20260509023121 | 49 | 190 | 0.0 | 0.0 | 0.00 | 0.01 | 0.01 | 86 | 1012.8 |
| 20260509023103 | 49 | 190 | 0.0 | 0.0 | 0.00 | 0.01 | 0.01 | 86 | 1012.8 |
| 20260509023027 | 49 | 190 | 0.0 | 0.0 | 0.00 | 0.01 | 0.01 | 86 | 1012.9 |
| 20260509022933 | 49 | 190 | 0.0 | 0.0 | 0.00 | 0.01 | 0.01 | 86 | 1012.8 |
| 20260509022822 | 49 | 190 | 0.0 | 0.0 | 0.00 | 0.01 | 0.01 | 86 | 1012.8 |
| 20260509022709 | 49 | 190 | 0.0 | 0.0 | 0.00 | 0.01 | 0.01 | 86 | 1012.9 |
| 20260509022619 | 50 | 191 | 0.0 | 0.0 | 0.00 | 0.01 | 0.01 | 86 | 1012.9 |
| 20260509022526 | 50 | 190 | 0.0 | 0.0 | 0.00 | 0.01 | 0.01 | 86 | 1012.8 |
| 20260509022411 | 50 | 190 | 0.0 | 0.0 | 0.00 | 0.01 | 0.01 | 86 | 1012.9 |
| 20260509022327 | 50 | 190 | 0.0 | 0.0 | 0.00 | 0.01 | 0.01 | 86 | 1012.9 |
| 20260509022233 | 50 | 190 | 0.0 | 0.0 | 0.00 | 0.01 | 0.01 | 86 | 1012.7 |
| 20260509022122 | 50 | 190 | 0.0 | 0.0 | 0.00 | 0.01 | 0.01 | 86 | 1012.8 |
| 20260509022024 | 50 | 191 | 0.0 | 0.0 | 0.00 | 0.01 | 0.01 | 85 | 1012.8 |
| 20260509021931 | 50 | 191 | 0.0 | 0.0 | 0.00 | 0.01 | 0.01 | 86 | 1012.8 |
| 20260509021823 | 50 | 190 | 0.0 | 0.0 | 0.00 | 0.01 | 0.01 | 85 | 1012.8 |
| 20260509021710 | 50 | 191 | 0.0 | 0.0 | 0.00 | 0.01 | 0.01 | 85 | 1012.8 |
| 20260509021616 | 50 | 190 | 0.0 | 0.0 | 0.00 | 0.01 | 0.01 | 86 | 1012.8 |
| 20260509021547 | 50 | 190 | 0.0 | 0.0 | 0.00 | 0.01 | 0.01 | 85 | 1012.7 |
| 20260509021526 | 50 | 190 | 0.0 | 0.0 | 0.00 | 0.01 | 0.01 | 85 | 1012.8 |
| 20260509021412 | 50 | 190 | 0.0 | 0.0 | 0.00 | 0.01 | 0.01 | 85 | 1012.7 |
| 20260509021325 | 50 | 190 | 0.0 | 0.0 | 0.00 | 0.01 | 0.01 | 85 | 1012.7 |
| 20260509021231 | 50 | 191 | 0.0 | 0.0 | 0.00 | 0.01 | 0.01 | 85 | 1012.8 |
| 20260509021117 | 50 | 190 | 0.0 | 0.0 | 0.00 | 0.01 | 0.01 | 85 | 1012.6 |
| 20260509021024 | 50 | 190 | 0.0 | 0.0 | 0.00 | 0.01 | 0.01 | 85 | 1012.6 |
| 20260509020912 | 51 | 191 | 0.0 | 0.0 | 0.00 | 0.01 | 0.01 | 85 | 1012.7 |
| 20260509020818 | 51 | 190 | 0.0 | 0.0 | 0.00 | 0.01 | 0.01 | 85 | 1012.7 |
| 20260509020732 | 51 | 190 | 0.0 | 0.0 | 0.00 | 0.01 | 0.01 | 85 | 1012.7 |
| 20260509020639 | 51 | 191 | 0.0 | 0.0 | 0.00 | 0.01 | 0.01 | 85 | 1012.7 |
| 20260509020550 | 51 | 190 | 0.0 | 0.0 | 0.00 | 0.01 | 0.01 | 84 | 1012.7 |
| 20260509020432 | 51 | 190 | 0.0 | 0.0 | 0.00 | 0.01 | 0.01 | 84 | 1012.6 |
| 20260509020324 | 51 | 190 | 0.0 | 0.0 | 0.00 | 0.01 | 0.01 | 84 | 1012.6 |
| 20260509020246 | 51 | 191 | 0.0 | 0.0 | 0.00 | 0.01 | 0.01 | 83 | 1012.5 |
| 20260509020124 | 50 | 190 | 0.0 | 0.0 | 0.00 | 0.01 | 0.01 | 84 | 1012.5 |
| 20260509020111 | 51 | 190 | 0.0 | 0.0 | 0.00 | 0.01 | 0.01 | 84 | 1012.5 |
| 20260509020042 | 51 | 191 | 0.0 | 0.0 | 0.00 | 0.01 | 0.01 | 83 | 1012.5 |
| 20260509015926 | 51 | 190 | 0.0 | 0.0 | 0.00 | 0.01 | 0.01 | 83 | 1012.5 |
| 20260509015811 | 51 | 190 | 0.0 | 0.0 | 0.00 | 0.01 | 0.01 | 84 | 1012.4 |
| 20260509015744 | 51 | 190 | 0.0 | 0.0 | 0.00 | 0.01 | 0.01 | 83 | 1012.4 |
| 20260509015614 | 51 | 190 | 0.0 | 0.0 | 0.00 | 0.01 | 0.01 | 83 | 1012.4 |
| 20260509015521 | 51 | 190 | 0.0 | 0.0 | 0.00 | 0.01 | 0.01 | 83 | 1012.4 |
| 20260509015434 | 52 | 190 | 0.0 | 0.0 | 0.00 | 0.01 | 0.01 | 83 | 1012.4 |
| 20260509015337 | 52 | 191 | 0.0 | 0.0 | 0.00 | 0.01 | 0.01 | 83 | 1012.4 |
| 20260509015214 | 52 | 191 | 0.0 | 0.0 | 0.00 | 0.01 | 0.01 | 83 | 1012.4 |
| 20260509015125 | 52 | 191 | 0.0 | 0.0 | 0.00 | 0.01 | 0.01 | 83 | 1012.3 |
| 20260509015020 | 52 | 190 | 0.0 | 0.0 | 0.00 | 0.01 | 0.01 | 83 | 1012.3 |
| 20260509014934 | 52 | 190 | 0.0 | 0.0 | 0.00 | 0.01 | 0.01 | 83 | 1012.4 |
| 20260509014820 | 52 | 191 | 0.0 | 0.0 | 0.00 | 0.01 | 0.01 | 83 | 1012.4 |
| 20260509014727 | 52 | 190 | 0.0 | 0.0 | 0.00 | 0.01 | 0.01 | 83 | 1012.3 |
| 20260509014640 | 52 | 190 | 0.0 | 0.0 | 0.00 | 0.01 | 0.01 | 83 | 1012.4 |
| 20260509014608 | 52 | 191 | 0.0 | 0.0 | 0.00 | 0.01 | 0.01 | 83 | 1012.3 |
| 20260509014545 | 52 | 190 | 0.0 | 0.0 | 0.00 | 0.01 | 0.01 | 82 | 1012.4 |
| 20260509014414 | 52 | 191 | 0.0 | 0.0 | 0.00 | 0.01 | 0.01 | 82 | 1012.3 |
| 20260509014347 | 52 | 190 | 0.0 | 0.0 | 0.00 | 0.01 | 0.01 | 82 | 1012.3 |
| 20260509014213 | 52 | 191 | 0.0 | 0.0 | 0.00 | 0.01 | 0.01 | 82 | 1012.3 |
| 20260509014115 | 52 | 190 | 0.0 | 0.0 | 0.00 | 0.01 | 0.01 | 82 | 1012.4 |
| 20260509014018 | 53 | 190 | 0.0 | 0.0 | 0.00 | 0.01 | 0.01 | 81 | 1012.4 |
| 20260509013931 | 53 | 191 | 0.0 | 0.0 | 0.00 | 0.01 | 0.01 | 81 | 1012.4 |
| 20260509013841 | 53 | 191 | 0.0 | 0.0 | 0.00 | 0.01 | 0.01 | 80 | 1012.4 |
| 20260509013753 | 53 | 191 | 0.0 | 0.0 | 0.00 | 0.01 | 0.01 | 79 | 1012.3 |
| 20260509013618 | 53 | 191 | 0.0 | 0.0 | 0.00 | 0.01 | 0.01 | 79 | 1012.3 |
| 20260509013525 | 53 | 190 | 0.0 | 0.0 | 0.00 | 0.01 | 0.01 | 79 | 1012.3 |
| 20260509013428 | 53 | 190 | 0.0 | 0.0 | 0.00 | 0.01 | 0.01 | 80 | 1012.3 |
| 20260509013314 | 53 | 190 | 0.0 | 0.0 | 0.00 | 0.01 | 0.01 | 80 | 1012.3 |
| 20260509013223 | 53 | 191 | 0.0 | 0.0 | 0.00 | 0.01 | 0.01 | 80 | 1012.3 |
| 20260509013136 | 53 | 190 | 0.0 | 0.0 | 0.00 | 0.01 | 0.01 | 80 | 1012.3 |
| 20260509013019 | 53 | 191 | 0.0 | 0.0 | 0.00 | 0.01 | 0.01 | 80 | 1012.3 |
| 20260509013001 | 53 | 190 | 0.0 | 0.0 | 0.00 | 0.01 | 0.01 | 80 | 1012.3 |
| 20260509012939 | 53 | 190 | 0.0 | 0.0 | 0.00 | 0.01 | 0.01 | 80 | 1012.3 |
| 20260509012831 | 53 | 190 | 0.0 | 0.0 | 0.00 | 0.01 | 0.01 | 80 | 1012.3 |
| 20260509012726 | 54 | 191 | 0.0 | 0.0 | 0.00 | 0.01 | 0.01 | 79 | 1012.3 |
| 20260509012618 | 54 | 190 | 0.0 | 0.0 | 0.00 | 0.01 | 0.01 | 78 | 1012.3 |
| 20260509012524 | 54 | 190 | 0.0 | 0.0 | 0.00 | 0.01 | 0.01 | 76 | 1012.2 |
| 20260509012411 | 54 | 191 | 0.0 | 0.0 | 0.00 | 0.01 | 0.01 | 76 | 1012.3 |
| 20260509012318 | 54 | 191 | 0.0 | 0.0 | 0.00 | 0.01 | 0.01 | 76 | 1012.3 |
| 20260509012232 | 54 | 190 | 0.0 | 0.0 | 0.00 | 0.01 | 0.01 | 76 | 1012.2 |
| 20260509012114 | 54 | 190 | 0.0 | 0.0 | 0.00 | 0.01 | 0.01 | 75 | 1012.2 |
| 20260509012024 | 54 | 191 | 0.0 | 0.0 | 0.00 | 0.01 | 0.01 | 76 | 1012.2 |
| 20260509011911 | 54 | 191 | 0.0 | 0.0 | 0.00 | 0.01 | 0.01 | 76 | 1012.2 |
| 20260509011809 | 54 | 191 | 0.0 | 0.0 | 0.00 | 0.01 | 0.01 | 77 | 1012.2 |
| 20260509011722 | 54 | 191 | 0.0 | 0.0 | 0.00 | 0.01 | 0.01 | 78 | 1012.2 |
| 20260509011629 | 54 | 190 | 0.0 | 0.0 | 0.00 | 0.01 | 0.01 | 78 | 1012.2 |
| 20260509011604 | 54 | 191 | 0.0 | 0.0 | 0.00 | 0.01 | 0.01 | 78 | 1012.2 |
| 20260509011519 | 55 | 191 | 0.0 | 0.0 | 0.00 | 0.01 | 0.01 | 76 | 1012.2 |
| 20260509011426 | 55 | 190 | 0.0 | 0.0 | 0.00 | 0.01 | 0.01 | 75 | 1012.2 |
| 20260509011312 | 55 | 191 | 0.0 | 0.0 | 0.00 | 0.01 | 0.01 | 74 | 1012.2 |
| 20260509011219 | 55 | 191 | 0.0 | 0.0 | 0.00 | 0.01 | 0.01 | 75 | 1012.2 |
| 20260509011133 | 55 | 190 | 0.0 | 0.0 | 0.00 | 0.01 | 0.01 | 74 | 1012.2 |
| 20260509011037 | 55 | 191 | 0.0 | 0.0 | 0.00 | 0.01 | 0.01 | 74 | 1012.2 |
| 20260509010926 | 55 | 191 | 0.0 | 0.0 | 0.00 | 0.01 | 0.01 | 75 | 1012.2 |
| 20260509010816 | 55 | 191 | 0.0 | 0.0 | 0.00 | 0.01 | 0.01 | 74 | 1012.2 |
| 20260509010723 | 55 | 191 | 0.0 | 0.0 | 0.00 | 0.01 | 0.01 | 73 | 1012.2 |
| 20260509010610 | 55 | 190 | 0.0 | 0.0 | 0.00 | 0.01 | 0.01 | 71 | 1012.2 |
| 20260509010517 | 55 | 191 | 0.0 | 0.0 | 0.00 | 0.01 | 0.01 | 71 | 1012.1 |
| 20260509010423 | 55 | 190 | 0.0 | 0.0 | 0.00 | 0.01 | 0.01 | 71 | 1012.1 |
| 20260509010340 | 55 | 191 | 0.0 | 0.0 | 0.00 | 0.01 | 0.01 | 71 | 1012.1 |
| 20260509010225 | 56 | 191 | 0.0 | 0.0 | 0.00 | 0.01 | 0.01 | 71 | 1012.1 |
| 20260509010112 | 56 | 190 | 0.0 | 0.0 | 0.00 | 0.01 | 0.01 | 70 | 1012.1 |
| 20260509010045 | 56 | 191 | 0.0 | 0.0 | 0.00 | 0.01 | 0.01 | 70 | 1012.1 |
| 20260509010029 | 55 | 190 | 0.0 | 0.0 | 0.00 | 0.01 | 0.01 | 70 | 1012.1 |
| 20260509010004 | 56 | 190 | 0.0 | 0.0 | 0.00 | 0.01 | 0.01 | 71 | 1012.1 |
| 20260509005809 | 56 | 191 | 0.0 | 0.0 | 0.00 | 0.01 | 0.01 | 70 | 1012.0 |
| 20260509005715 | 56 | 191 | 0.0 | 0.0 | 0.00 | 0.01 | 0.01 | 70 | 1012.0 |
| 20260509005632 | 56 | 191 | 0.0 | 0.0 | 0.00 | 0.01 | 0.01 | 70 | 1012.0 |
| 20260509005511 | 56 | 191 | 0.0 | 0.0 | 0.00 | 0.01 | 0.01 | 70 | 1012.1 |
| 20260509005414 | 56 | 191 | 0.0 | 0.0 | 0.00 | 0.01 | 0.01 | 69 | 1012.1 |
| 20260509005326 | 56 | 190 | 0.0 | 0.0 | 0.00 | 0.01 | 0.01 | 69 | 1012.1 |
| 20260509005228 | 56 | 190 | 0.0 | 0.0 | 0.00 | 0.01 | 0.01 | 67 | 1012.0 |
| 20260509005106 | 56 | 191 | 0.0 | 0.0 | 0.00 | 0.01 | 0.01 | 68 | 1012.0 |
| 20260509005041 | 57 | 191 | 0.0 | 0.0 | 0.00 | 0.01 | 0.01 | 70 | 1012.1 |
| 20260509004820 | 57 | 190 | 0.0 | 0.0 | 0.00 | 0.01 | 0.01 | 70 | 1012.0 |
| 20260509004727 | 57 | 190 | 0.0 | 0.0 | 0.00 | 0.01 | 0.01 | 69 | 1012.1 |
| 20260509004612 | 57 | 191 | 0.0 | 0.0 | 0.00 | 0.01 | 0.01 | 69 | 1012.0 |
| 20260509004551 | 57 | 191 | 0.0 | 0.0 | 0.00 | 0.01 | 0.01 | 69 | 1012.0 |
| 20260509004519 | 57 | 190 | 0.0 | 0.0 | 0.00 | 0.01 | 0.01 | 69 | 1012.0 |
| 20260509004452 | 57 | 191 | 0.0 | 0.0 | 0.00 | 0.01 | 0.01 | 69 | 1012.0 |
| 20260509004322 | 57 | 190 | 0.0 | 0.0 | 0.00 | 0.01 | 0.01 | 70 | 1012.0 |
| 20260509004228 | 57 | 190 | 0.0 | 0.0 | 0.00 | 0.01 | 0.01 | 69 | 1012.0 |
| 20260509004115 | 57 | 191 | 0.0 | 0.0 | 0.00 | 0.01 | 0.01 | 68 | 1012.0 |
| 20260509004042 | 57 | 190 | 0.0 | 0.0 | 0.00 | 0.01 | 0.01 | 67 | 1012.0 |
| 20260509003917 | 58 | 191 | 0.0 | 0.0 | 0.00 | 0.01 | 0.01 | 67 | 1012.0 |
| 20260509003820 | 58 | 191 | 0.0 | 0.0 | 0.00 | 0.01 | 0.01 | 67 | 1012.0 |
| 20260509003711 | 58 | 191 | 0.0 | 0.0 | 0.00 | 0.01 | 0.01 | 65 | 1012.0 |
| 20260509003617 | 58 | 190 | 0.0 | 0.0 | 0.00 | 0.01 | 0.01 | 65 | 1012.0 |
| 20260509003550 | 58 | 191 | 0.0 | 0.0 | 0.00 | 0.01 | 0.01 | 65 | 1012.0 |
| 20260509003412 | 58 | 191 | 0.0 | 0.0 | 0.00 | 0.01 | 0.01 | 67 | 1011.9 |
| 20260509003319 | 58 | 190 | 0.0 | 0.0 | 0.00 | 0.01 | 0.01 | 68 | 1011.9 |
| 20260509003209 | 58 | 191 | 0.0 | 0.0 | 0.00 | 0.01 | 0.01 | 67 | 1011.9 |
| 20260509003117 | 58 | 190 | 0.0 | 0.0 | 0.00 | 0.01 | 0.01 | 65 | 1011.9 |
| 20260509003028 | 58 | 190 | 0.0 | 0.0 | 0.00 | 0.01 | 0.01 | 64 | 1011.9 |
| 20260509003012 | 58 | 191 | 0.0 | 0.0 | 0.00 | 0.01 | 0.01 | 65 | 1011.9 |
| 20260509002951 | 58 | 191 | 0.0 | 0.0 | 0.00 | 0.01 | 0.01 | 64 | 1011.9 |
| 20260509002837 | 59 | 190 | 0.0 | 0.0 | 0.00 | 0.01 | 0.01 | 64 | 1011.9 |
| 20260509002712 | 59 | 190 | 0.0 | 0.0 | 0.00 | 0.01 | 0.01 | 66 | 1011.9 |
| 20260509002623 | 59 | 190 | 0.0 | 0.0 | 0.00 | 0.01 | 0.01 | 65 | 1011.9 |
| 20260509002513 | 59 | 191 | 0.0 | 0.0 | 0.00 | 0.01 | 0.01 | 65 | 1011.9 |
| 20260509002412 | 59 | 191 | 0.0 | 0.0 | 0.00 | 0.01 | 0.01 | 64 | 1011.9 |
| 20260509002319 | 59 | 191 | 0.0 | 0.0 | 0.00 | 0.01 | 0.01 | 64 | 1011.9 |
| 20260509002232 | 59 | 191 | 0.0 | 0.0 | 0.00 | 0.01 | 0.01 | 63 | 1011.9 |
| 20260509002139 | 59 | 191 | 0.0 | 0.0 | 0.00 | 0.01 | 0.01 | 65 | 1011.9 |
| 20260509002017 | 59 | 191 | 0.0 | 0.0 | 0.00 | 0.01 | 0.01 | 66 | 1011.9 |
| 20260509001931 | 60 | 191 | 0.0 | 0.0 | 0.00 | 0.01 | 0.01 | 67 | 1011.9 |
| 20260509001818 | 60 | 191 | 0.0 | 0.0 | 0.00 | 0.01 | 0.01 | 68 | 1011.9 |
| 20260509001723 | 60 | 191 | 0.0 | 0.0 | 0.00 | 0.01 | 0.01 | 67 | 1011.8 |
| 20260509001631 | 60 | 190 | 0.0 | 0.0 | 0.00 | 0.01 | 0.01 | 66 | 1011.9 |
| 20260509001530 | 60 | 190 | 0.0 | 0.0 | 0.00 | 0.01 | 0.01 | 66 | 1011.8 |
| 20260509001516 | 60 | 191 | 0.0 | 0.0 | 0.00 | 0.01 | 0.01 | 66 | 1011.8 |
| 20260509001429 | 60 | 190 | 0.0 | 0.0 | 0.00 | 0.01 | 0.01 | 63 | 1011.8 |
| 20260509001319 | 60 | 191 | 0.0 | 0.0 | 0.00 | 0.01 | 0.01 | 63 | 1011.8 |
| 20260509001226 | 60 | 191 | 0.0 | 0.0 | 0.00 | 0.01 | 0.01 | 63 | 1011.9 |
| 20260509001113 | 60 | 191 | 0.0 | 0.0 | 0.00 | 0.01 | 0.01 | 61 | 1011.8 |
| 20260509001020 | 60 | 191 | 0.0 | 0.0 | 0.00 | 0.01 | 0.01 | 61 | 1011.8 |
| 20260509000926 | 61 | 190 | 0.0 | 0.0 | 0.00 | 0.01 | 0.01 | 58 | 1011.8 |
| 20260509000824 | 61 | 190 | 0.0 | 0.0 | 0.00 | 0.01 | 0.01 | 60 | 1011.8 |
| 20260509000720 | 61 | 190 | 0.0 | 0.0 | 0.00 | 0.01 | 0.01 | 60 | 1011.8 |
| 20260509000627 | 61 | 190 | 0.0 | 0.0 | 0.00 | 0.01 | 0.01 | 58 | 1011.8 |
| 20260509000511 | 61 | 190 | 0.0 | 0.0 | 0.00 | 0.01 | 0.01 | 61 | 1011.7 |
| 20260509000418 | 61 | 191 | 0.0 | 0.0 | 0.00 | 0.01 | 0.01 | 60 | 1011.7 |
| 20260509000330 | 61 | 190 | 0.0 | 0.0 | 0.00 | 0.01 | 0.01 | 62 | 1011.8 |
| 20260509000219 | 61 | 191 | 0.0 | 0.0 | 0.00 | 0.01 | 0.01 | 62 | 1011.7 |
| 20260509000125 | 61 | 191 | 0.0 | 0.0 | 0.00 | 0.01 | 0.01 | 61 | 1011.8 |
| 20260509000110 | 61 | 191 | 0.0 | 0.0 | 0.00 | 0.01 | 0.01 | 60 | 1011.7 |
| 20260509000026 | 62 | 191 | 0.0 | 0.0 | 0.00 | 0.01 | 0.01 | 60 | 1011.7 |
| 20260508235914 | 62 | 191 | 0.0 | 0.0 | 0.00 | 0.01 | 0.01 | 57 | 1011.7 |
| 20260508235846 | 62 | 191 | 0.0 | 0.0 | 0.00 | 0.01 | 0.01 | 57 | 1011.7 |
| 20260508235714 | 62 | 190 | 0.0 | 0.0 | 0.00 | 0.01 | 0.01 | 58 | 1011.7 |
| 20260508235620 | 62 | 191 | 0.0 | 0.0 | 0.00 | 0.01 | 0.01 | 58 | 1011.7 |
| 20260508235523 | 62 | 191 | 0.0 | 0.0 | 0.00 | 0.01 | 0.01 | 59 | 1011.7 |
| 20260508235435 | 62 | 191 | 0.0 | 0.0 | 0.00 | 0.01 | 0.01 | 60 | 1011.7 |
| 20260508235317 | 62 | 191 | 0.0 | 0.0 | 0.00 | 0.01 | 0.01 | 59 | 1011.7 |
| 20260508235224 | 62 | 190 | 0.0 | 0.0 | 0.00 | 0.01 | 0.01 | 57 | 1011.6 |
| 20260508235132 | 62 | 191 | 0.0 | 0.0 | 0.00 | 0.01 | 0.01 | 56 | 1011.6 |
| 20260508235025 | 63 | 191 | 0.0 | 0.0 | 0.00 | 0.01 | 0.01 | 59 | 1011.6 |
| 20260508234931 | 63 | 191 | 0.0 | 0.0 | 0.00 | 0.01 | 0.01 | 56 | 1011.6 |
| 20260508234818 | 63 | 191 | 0.0 | 0.0 | 0.00 | 0.01 | 0.01 | 57 | 1011.6 |
| 20260508234744 | 63 | 191 | 0.0 | 0.0 | 0.00 | 0.01 | 0.01 | 55 | 1011.6 |
| 20260508234610 | 63 | 191 | 0.0 | 0.0 | 0.00 | 0.01 | 0.01 | 56 | 1011.6 |
| 20260508234528 | 63 | 191 | 0.0 | 0.0 | 0.00 | 0.01 | 0.01 | 53 | 1011.6 |
| 20260508234510 | 62 | 190 | 0.0 | 0.0 | 0.00 | 0.01 | 0.01 | 53 | 1011.4 |
| 20260508234433 | 63 | 191 | 0.0 | 0.0 | 0.00 | 0.01 | 0.01 | 55 | 1011.5 |
| 20260508234319 | 63 | 191 | 0.0 | 0.0 | 0.00 | 0.01 | 0.01 | 55 | 1011.5 |
| 20260508234232 | 63 | 191 | 0.0 | 0.0 | 0.00 | 0.01 | 0.01 | 56 | 1011.4 |
| 20260508234119 | 63 | 191 | 0.0 | 0.0 | 0.00 | 0.01 | 0.01 | 60 | 1011.5 |
| 20260508234024 | 63 | 191 | 0.0 | 0.0 | 0.00 | 0.01 | 0.01 | 51 | 1011.4 |
| 20260508233915 | 63 | 191 | 0.0 | 0.0 | 0.00 | 0.01 | 0.01 | 53 | 1011.4 |
| 20260508233822 | 63 | 140 | 0.0 | 0.0 | 0.00 | 0.01 | 0.01 | 53 | 1011.4 |
| 20260508233728 | 63 | 140 | 0.0 | 0.0 | 0.00 | 0.01 | 0.01 | 53 | 1011.4 |
| 20260508233615 | 63 | 139 | 0.0 | 0.0 | 0.00 | 0.01 | 0.01 | 56 | 1011.4 |
| 20260508233528 | 64 | 139 | 0.0 | 0.0 | 0.00 | 0.01 | 0.01 | 54 | 1011.4 |
| 20260508233418 | 64 | 139 | 0.0 | 0.0 | 0.00 | 0.01 | 0.01 | 55 | 1011.4 |
| 20260508233325 | 64 | 148 | 0.0 | 0.0 | 0.00 | 0.01 | 0.01 | 54 | 1011.3 |
| 20260508233211 | 64 | 159 | 0.0 | 0.0 | 0.00 | 0.01 | 0.01 | 52 | 1011.4 |
| 20260508233138 | 64 | 159 | 0.0 | 0.0 | 0.00 | 0.01 | 0.01 | 52 | 1011.4 |
| 20260508233030 | 64 | 159 | 0.0 | 0.0 | 0.00 | 0.01 | 0.01 | 52 | 1011.4 |
| 20260508233009 | 63 | 159 | 0.0 | 0.0 | 0.00 | 0.01 | 0.01 | 51 | 1011.4 |
| 20260508232916 | 64 | 159 | 0.0 | 0.0 | 0.00 | 0.01 | 0.01 | 52 | 1011.3 |
| 20260508232827 | 64 | 159 | 0.0 | 0.0 | 0.00 | 0.01 | 0.01 | 52 | 1011.3 |
| 20260508232713 | 64 | 159 | 0.0 | 0.0 | 0.00 | 0.01 | 0.01 | 53 | 1011.3 |
| 20260508232620 | 64 | 159 | 0.0 | 0.0 | 0.00 | 0.01 | 0.01 | 52 | 1011.3 |
| 20260508232533 | 64 | 172 | 0.0 | 0.0 | 0.00 | 0.01 | 0.01 | 55 | 1011.3 |
| 20260508232421 | 64 | 172 | 0.0 | 0.0 | 0.00 | 0.01 | 0.01 | 55 | 1011.3 |
| 20260508232311 | 65 | 172 | 0.0 | 0.0 | 0.00 | 0.01 | 0.01 | 52 | 1011.2 |
| 20260508232217 | 65 | 172 | 0.0 | 0.0 | 0.00 | 0.01 | 0.01 | 55 | 1011.2 |
| 20260508232124 | 65 | 172 | 0.0 | 0.0 | 0.00 | 0.01 | 0.01 | 58 | 1011.2 |
| 20260508232011 | 65 | 165 | 0.0 | 0.0 | 0.00 | 0.01 | 0.01 | 50 | 1011.3 |
| 20260508231944 | 65 | 165 | 0.0 | 0.0 | 0.00 | 0.01 | 0.01 | 54 | 1011.3 |
| 20260508231809 | 65 | 165 | 0.0 | 0.0 | 0.00 | 0.01 | 0.01 | 53 | 1011.3 |
| 20260508231719 | 65 | 165 | 0.0 | 0.0 | 0.00 | 0.01 | 0.01 | 51 | 1011.3 |
| 20260508231627 | 65 | 165 | 0.0 | 0.0 | 0.00 | 0.01 | 0.01 | 52 | 1011.2 |
| 20260508231539 | 66 | 165 | 0.0 | 0.0 | 0.00 | 0.01 | 0.01 | 54 | 1011.2 |
| 20260508231526 | 65 | 165 | 0.0 | 0.0 | 0.00 | 0.01 | 0.01 | 54 | 1011.2 |
| 20260508231442 | 66 | 165 | 0.0 | 0.0 | 0.00 | 0.01 | 0.01 | 48 | 1011.2 |
| 20260508231342 | 66 | 165 | 0.0 | 0.0 | 0.00 | 0.01 | 0.01 | 49 | 1011.2 |
| 20260508231228 | 66 | 169 | 0.0 | 0.0 | 0.00 | 0.01 | 0.01 | 52 | 1011.2 |
| 20260508231119 | 66 | 89 | 0.0 | 0.0 | 0.00 | 0.01 | 0.01 | 53 | 1011.2 |
| 20260508231031 | 66 | 89 | 0.0 | 0.0 | 0.00 | 0.01 | 0.01 | 45 | 1011.2 |
| 20260508230917 | 66 | 98 | 0.0 | 0.0 | 0.00 | 0.01 | 0.01 | 47 | 1011.2 |
| 20260508230824 | 66 | 107 | 0.0 | 0.0 | 0.00 | 0.01 | 0.01 | 47 | 1011.1 |
| 20260508230710 | 66 | 107 | 0.0 | 0.0 | 0.00 | 0.01 | 0.01 | 51 | 1011.2 |
| 20260508230617 | 67 | 101 | 0.0 | 0.0 | 0.00 | 0.01 | 0.01 | 47 | 1011.2 |
| 20260508230534 | 67 | 96 | 0.0 | 0.0 | 0.00 | 0.01 | 0.01 | 50 | 1011.2 |
| 20260508230413 | 67 | 96 | 0.0 | 0.0 | 0.00 | 0.01 | 0.01 | 50 | 1011.1 |
| 20260508230326 | 67 | 96 | 0.0 | 0.0 | 0.00 | 0.01 | 0.01 | 45 | 1011.1 |
| 20260508230233 | 68 | 96 | 0.0 | 0.0 | 0.00 | 0.01 | 0.01 | 53 | 1011.1 |
| 20260508230119 | 68 | 96 | 0.0 | 0.0 | 0.00 | 0.01 | 0.01 | 45 | 1011.1 |
| 20260508230027 | 67 | 76 | 0.0 | 0.0 | 0.00 | 0.01 | 0.01 | 48 | 1011.1 |
| 20260508230009 | 68 | 76 | 0.0 | 0.0 | 0.00 | 0.01 | 0.01 | 48 | 1011.1 |
| 20260508225922 | 68 | 76 | 0.0 | 0.0 | 0.00 | 0.01 | 0.01 | 47 | 1011.1 |
| 20260508225809 | 68 | 75 | 0.0 | 0.0 | 0.00 | 0.01 | 0.01 | 46 | 1011.2 |
| 20260508225715 | 68 | 75 | 0.0 | 0.0 | 0.00 | 0.01 | 0.01 | 45 | 1011.1 |
| 20260508225622 | 68 | 75 | 0.0 | 0.0 | 0.00 | 0.01 | 0.01 | 41 | 1011.1 |
| 20260508225509 | 68 | 75 | 0.0 | 0.0 | 0.00 | 0.01 | 0.01 | 41 | 1011.2 |
| 20260508225420 | 68 | 74 | 0.0 | 0.0 | 0.00 | 0.01 | 0.01 | 40 | 1011.2 |
| 20260508225333 | 68 | 43 | 0.0 | 0.0 | 0.00 | 0.01 | 0.01 | 43 | 1011.2 |
| 20260508225219 | 68 | 50 | 0.0 | 0.0 | 0.00 | 0.01 | 0.01 | 44 | 1011.2 |
| 20260508225126 | 69 | 275 | 0.0 | 0.0 | 0.00 | 0.01 | 0.01 | 46 | 1011.2 |
| 20260508225013 | 69 | 13 | 0.0 | 0.0 | 0.00 | 0.01 | 0.01 | 45 | 1011.2 |
| 20260508224926 | 69 | 159 | 0.0 | 0.0 | 0.00 | 0.01 | 0.01 | 47 | 1011.2 |
| 20260508224816 | 69 | 76 | 0.0 | 0.0 | 0.00 | 0.01 | 0.01 | 45 | 1011.2 |
| 20260508224722 | 69 | 278 | 0.0 | 0.0 | 0.00 | 0.01 | 0.01 | 45 | 1011.2 |
| 20260508224609 | 69 | 278 | 0.0 | 0.0 | 0.00 | 0.01 | 0.01 | 39 | 1011.1 |
| 20260508224548 | 68 | 278 | 0.0 | 0.0 | 0.00 | 0.01 | 0.01 | 39 | 1011.1 |
| 20260508224515 | 69 | 69 | 0.0 | 0.0 | 0.00 | 0.01 | 0.01 | 39 | 1011.2 |
| 20260508224421 | 69 | 71 | 0.0 | 0.0 | 0.00 | 0.01 | 0.01 | 39 | 1011.2 |
| 20260508224311 | 69 | 24 | 0.0 | 0.0 | 0.00 | 0.01 | 0.01 | 40 | 1011.2 |
| 20260508224224 | 69 | 71 | 0.0 | 0.0 | 0.00 | 0.01 | 0.01 | 39 | 1011.2 |
| 20260508224131 | 69 | 50 | 0.0 | 0.0 | 0.00 | 0.01 | 0.01 | 40 | 1011.1 |
| 20260508224016 | 69 | 13 | 0.0 | 0.0 | 0.00 | 0.01 | 0.01 | 40 | 1011.1 |
| 20260508223923 | 69 | 5 | 0.0 | 0.0 | 0.00 | 0.01 | 0.01 | 39 | 1011.1 |
| 20260508223809 | 69 | 58 | 0.0 | 0.0 | 0.00 | 0.01 | 0.01 | 39 | 1011.1 |
| 20260508223726 | 69 | 342 | 0.0 | 0.0 | 0.00 | 0.01 | 0.01 | 43 | 1011.1 |
| 20260508223613 | 69 | 237 | 0.0 | 0.0 | 0.00 | 0.01 | 0.01 | 41 | 1011.1 |
| 20260508223539 | 69 | 198 | 0.0 | 0.0 | 0.00 | 0.01 | 0.01 | 39 | 1011.1 |
| 20260508223431 | 69 | 271 | 0.0 | 0.0 | 0.00 | 0.01 | 0.01 | 40 | 1011.1 |
| 20260508223318 | 69 | 28 | 0.0 | 0.0 | 0.00 | 0.01 | 0.01 | 41 | 1011.0 |
| 20260508223224 | 69 | 28 | 0.0 | 0.0 | 0.00 | 0.01 | 0.01 | 40 | 1011.0 |
| 20260508223114 | 69 | 28 | 0.0 | 0.0 | 0.00 | 0.01 | 0.01 | 43 | 1011.1 |
| 20260508223047 | 68 | 26 | 0.0 | 0.0 | 0.00 | 0.01 | 0.01 | 43 | 1011.0 |
| 20260508223020 | 69 | 56 | 0.0 | 0.0 | 0.00 | 0.01 | 0.01 | 42 | 1011.1 |
| 20260508222927 | 69 | 38 | 0.0 | 0.0 | 0.00 | 0.01 | 0.01 | 45 | 1011.1 |
| 20260508222814 | 69 | 48 | 0.0 | 0.0 | 0.00 | 0.01 | 0.01 | 42 | 1011.1 |
| 20260508222723 | 69 | 53 | 0.0 | 0.0 | 0.00 | 0.01 | 0.01 | 39 | 1011.1 |
| 20260508222614 | 69 | 35 | 0.0 | 0.0 | 0.00 | 0.01 | 0.01 | 39 | 1011.1 |
| 20260508222521 | 69 | 64 | 0.0 | 0.0 | 0.00 | 0.01 | 0.01 | 40 | 1011.0 |
| 20260508222421 | 69 | 59 | 0.0 | 0.0 | 0.00 | 0.01 | 0.01 | 40 | 1011.0 |
| 20260508222334 | 69 | 63 | 0.0 | 0.0 | 0.00 | 0.01 | 0.01 | 41 | 1011.0 |
| 20260508222212 | 69 | 94 | 0.0 | 0.0 | 0.00 | 0.01 | 0.01 | 39 | 1011.1 |
| 20260508222126 | 69 | 59 | 0.0 | 0.0 | 0.00 | 0.01 | 0.01 | 39 | 1011.1 |
| 20260508222016 | 69 | 59 | 0.0 | 1.0 | 0.00 | 0.01 | 0.01 | 40 | 1011.1 |
| 20260508221923 | 70 | 109 | 0.0 | 1.0 | 0.00 | 0.01 | 0.01 | 39 | 1011.1 |
| 20260508221809 | 70 | 64 | 0.0 | 3.0 | 0.00 | 0.01 | 0.01 | 40 | 1011.1 |
| 20260508221716 | 70 | 76 | 0.0 | 3.0 | 0.00 | 0.01 | 0.01 | 39 | 1011.0 |
| 20260508221649 | 70 | 336 | 0.0 | 3.0 | 0.00 | 0.01 | 0.01 | 39 | 1011.0 |
| 20260508221604 | 69 | 95 | 0.0 | 3.0 | 0.00 | 0.01 | 0.01 | 41 | 1011.0 |
| 20260508221518 | 70 | 69 | 0.0 | 3.0 | 0.00 | 0.01 | 0.01 | 42 | 1011.0 |
| 20260508221424 | 70 | 22 | 0.0 | 3.0 | 0.00 | 0.01 | 0.01 | 38 | 1011.0 |
| 20260508221310 | 70 | 57 | 0.0 | 3.0 | 0.00 | 0.01 | 0.01 | 38 | 1011.0 |
| 20260508221217 | 70 | 48 | 0.0 | 3.0 | 0.00 | 0.01 | 0.01 | 38 | 1011.0 |
| 20260508221131 | 70 | 9 | 0.0 | 3.0 | 0.00 | 0.01 | 0.01 | 38 | 1011.0 |
| 20260508221038 | 70 | 34 | 0.0 | 3.0 | 0.00 | 0.01 | 0.01 | 38 | 1011.1 |
| 20260508220926 | 71 | 43 | 0.0 | 3.0 | 0.00 | 0.01 | 0.01 | 39 | 1011.1 |
| 20260508220813 | 71 | 32 | 0.0 | 1.0 | 0.00 | 0.01 | 0.01 | 37 | 1011.0 |
| 20260508220725 | 71 | 54 | 0.0 | 0.0 | 0.00 | 0.01 | 0.01 | 38 | 1011.0 |
| 20260508220613 | 71 | 77 | 0.0 | 5.0 | 0.00 | 0.01 | 0.01 | 37 | 1011.0 |
| 20260508220518 | 71 | 302 | 0.0 | 5.0 | 0.00 | 0.01 | 0.01 | 37 | 1011.0 |
| 20260508220445 | 71 | 251 | 0.0 | 5.0 | 0.00 | 0.01 | 0.01 | 37 | 1011.1 |
| 20260508220314 | 71 | 344 | 0.0 | 5.0 | 0.00 | 0.01 | 0.01 | 37 | 1011.0 |
| 20260508220227 | 71 | 292 | 0.0 | 5.0 | 0.00 | 0.01 | 0.01 | 37 | 1011.0 |
| 20260508220113 | 71 | 311 | 0.0 | 5.0 | 0.00 | 0.01 | 0.01 | 37 | 1011.0 |
| 20260508220056 | 71 | 319 | 0.0 | 5.0 | 0.00 | 0.01 | 0.01 | 37 | 1011.0 |
| 20260508220019 | 71 | 294 | 0.0 | 5.0 | 0.00 | 0.01 | 0.01 | 37 | 1011.0 |
| 20260508215952 | 71 | 292 | 0.0 | 5.0 | 0.00 | 0.01 | 0.01 | 37 | 1011.0 |
| 20260508215818 | 71 | 38 | 1.0 | 5.0 | 0.00 | 0.01 | 0.01 | 38 | 1011.0 |
| 20260508215709 | 71 | 36 | 0.0 | 2.0 | 0.00 | 0.01 | 0.01 | 38 | 1011.0 |
| 20260508215616 | 71 | 44 | 0.0 | 1.0 | 0.00 | 0.01 | 0.01 | 38 | 1011.0 |
| 20260508215519 | 71 | 136 | 0.0 | 1.0 | 0.00 | 0.01 | 0.01 | 38 | 1011.0 |
| 20260508215426 | 71 | 103 | 0.0 | 1.0 | 0.00 | 0.01 | 0.01 | 38 | 1011.1 |
| 20260508215312 | 71 | 96 | 0.0 | 1.0 | 0.00 | 0.01 | 0.01 | 38 | 1011.1 |
| 20260508215229 | 71 | 42 | 0.0 | 1.0 | 0.00 | 0.01 | 0.01 | 39 | 1011.1 |
| 20260508215116 | 71 | 5 | 0.0 | 1.0 | 0.00 | 0.01 | 0.01 | 39 | 1011.1 |
| 20260508215022 | 71 | 42 | 0.0 | 2.0 | 0.00 | 0.01 | 0.01 | 38 | 1011.1 |
| 20260508214909 | 71 | 40 | 0.0 | 8.0 | 0.00 | 0.01 | 0.01 | 38 | 1011.1 |
| 20260508214816 | 71 | 63 | 0.0 | 8.0 | 0.00 | 0.01 | 0.01 | 43 | 1011.2 |
| 20260508214721 | 71 | 58 | 0.0 | 8.0 | 0.00 | 0.01 | 0.01 | 39 | 1011.2 |
| 20260508214611 | 71 | 26 | 0.0 | 8.0 | 0.00 | 0.01 | 0.01 | 39 | 1011.2 |
| 20260508214524 | 71 | 35 | 0.0 | 8.0 | 0.00 | 0.01 | 0.01 | 40 | 1011.2 |
| 20260508214504 | 70 | 9 | 0.0 | 8.0 | 0.00 | 0.01 | 0.01 | 40 | 1011.2 |
| 20260508214410 | 71 | 10 | 0.0 | 8.0 | 0.00 | 0.01 | 0.01 | 38 | 1011.2 |
| 20260508214317 | 71 | 15 | 0.0 | 8.0 | 0.00 | 0.01 | 0.01 | 37 | 1011.2 |
| 20260508214250 | 71 | 315 | 1.0 | 8.0 | 0.00 | 0.01 | 0.01 | 37 | 1011.1 |
| 20260508214120 | 71 | 48 | 1.0 | 8.0 | 0.00 | 0.01 | 0.01 | 37 | 1011.2 |
| 20260508214026 | 71 | 49 | 1.0 | 8.0 | 0.00 | 0.01 | 0.01 | 38 | 1011.2 |
| 20260508213912 | 71 | 30 | 0.0 | 5.0 | 0.00 | 0.01 | 0.01 | 37 | 1011.2 |
| 20260508213825 | 71 | 87 | 0.0 | 8.0 | 0.00 | 0.01 | 0.01 | 37 | 1011.2 |
| 20260508213730 | 71 | 46 | 0.0 | 8.0 | 0.00 | 0.01 | 0.01 | 36 | 1011.2 |
| 20260508213617 | 71 | 45 | 0.0 | 8.0 | 0.00 | 0.01 | 0.01 | 37 | 1011.2 |
| 20260508213543 | 71 | 32 | 0.0 | 8.0 | 0.00 | 0.01 | 0.01 | 36 | 1011.2 |
| 20260508213439 | 71 | 52 | 1.0 | 8.0 | 0.00 | 0.01 | 0.01 | 36 | 1011.2 |
| 20260508213325 | 71 | 36 | 1.0 | 8.0 | 0.00 | 0.01 | 0.01 | 36 | 1011.2 |
| 20260508213211 | 71 | 360 | 0.0 | 8.0 | 0.00 | 0.01 | 0.01 | 37 | 1011.2 |
| 20260508213118 | 71 | 326 | 1.0 | 8.0 | 0.00 | 0.01 | 0.01 | 38 | 1011.2 |
| 20260508213031 | 71 | 265 | 1.0 | 8.0 | 0.00 | 0.01 | 0.01 | 35 | 1011.2 |
| 20260508213024 | 71 | 325 | 1.0 | 8.0 | 0.00 | 0.01 | 0.01 | 35 | 1011.2 |
| 20260508212920 | 71 | 206 | 1.0 | 8.0 | 0.00 | 0.01 | 0.01 | 36 | 1011.2 |
| 20260508212847 | 71 | 350 | 0.0 | 3.0 | 0.00 | 0.01 | 0.01 | 36 | 1011.1 |
| 20260508212713 | 71 | 304 | 0.0 | 3.0 | 0.00 | 0.01 | 0.01 | 37 | 1011.2 |
| 20260508212619 | 71 | 13 | 0.0 | 3.0 | 0.00 | 0.01 | 0.01 | 37 | 1011.2 |
| 20260508212532 | 71 | 97 | 0.0 | 1.0 | 0.00 | 0.01 | 0.01 | 37 | 1011.3 |
| 20260508212419 | 71 | 34 | 0.0 | 1.0 | 0.00 | 0.01 | 0.01 | 36 | 1011.2 |
| 20260508212309 | 71 | 226 | 0.0 | 1.0 | 0.00 | 0.01 | 0.01 | 36 | 1011.2 |
| 20260508212216 | 71 | 336 | 0.0 | 1.0 | 0.00 | 0.01 | 0.01 | 37 | 1011.2 |
| 20260508212123 | 71 | 5 | 0.0 | 2.0 | 0.00 | 0.01 | 0.01 | 39 | 1011.3 |
| 20260508212009 | 71 | 21 | 0.0 | 2.0 | 0.00 | 0.01 | 0.01 | 37 | 1011.2 |
| 20260508211916 | 71 | 311 | 0.0 | 2.0 | 0.00 | 0.01 | 0.01 | 37 | 1011.2 |
| 20260508211849 | 71 | 87 | 0.0 | 2.0 | 0.00 | 0.01 | 0.01 | 38 | 1011.3 |
| 20260508211718 | 71 | 57 | 0.0 | 2.0 | 0.00 | 0.01 | 0.01 | 38 | 1011.2 |
| 20260508211625 | 71 | 5 | 0.0 | 2.0 | 0.00 | 0.01 | 0.01 | 37 | 1011.2 |
| 20260508211531 | 71 | 69 | 0.0 | 5.0 | 0.00 | 0.01 | 0.01 | 36 | 1011.3 |
| 20260508211510 | 71 | 69 | 0.0 | 5.0 | 0.00 | 0.01 | 0.01 | 36 | 1011.2 |
| 20260508211423 | 71 | 69 | 0.0 | 5.0 | 0.00 | 0.01 | 0.01 | 37 | 1011.2 |
| 20260508211310 | 71 | 86 | 0.0 | 5.0 | 0.00 | 0.01 | 0.01 | 37 | 1011.2 |
| 20260508211221 | 71 | 56 | 0.0 | 5.0 | 0.00 | 0.01 | 0.01 | 37 | 1011.2 |
| 20260508211127 | 71 | 260 | 0.0 | 5.0 | 0.00 | 0.01 | 0.01 | 37 | 1011.3 |
| 20260508211013 | 71 | 55 | 0.0 | 5.0 | 0.00 | 0.01 | 0.01 | 37 | 1011.3 |
| 20260508210920 | 71 | 30 | 1.0 | 5.0 | 0.00 | 0.01 | 0.01 | 36 | 1011.3 |
| 20260508210833 | 71 | 65 | 1.0 | 5.0 | 0.00 | 0.01 | 0.01 | 35 | 1011.3 |
| 20260508210739 | 71 | 11 | 1.0 | 5.0 | 0.00 | 0.01 | 0.01 | 38 | 1011.3 |
| 20260508210609 | 71 | 167 | 0.0 | 4.0 | 0.00 | 0.01 | 0.01 | 35 | 1011.3 |
| 20260508210517 | 71 | 120 | 0.0 | 4.0 | 0.00 | 0.01 | 0.01 | 36 | 1011.3 |
| 20260508210429 | 71 | 23 | 0.0 | 4.0 | 0.00 | 0.01 | 0.01 | 36 | 1011.3 |
| 20260508210317 | 72 | 115 | 0.0 | 4.0 | 0.00 | 0.01 | 0.01 | 36 | 1011.3 |
| 20260508210222 | 72 | 79 | 0.0 | 4.0 | 0.00 | 0.01 | 0.01 | 34 | 1011.3 |
| 20260508210112 | 72 | 66 | 0.0 | 1.0 | 0.00 | 0.01 | 0.01 | 35 | 1011.3 |
| 20260508210049 | 71 | 22 | 0.0 | 1.0 | 0.00 | 0.01 | 0.01 | 35 | 1011.3 |
| 20260508210018 | 72 | 26 | 0.0 | 1.0 | 0.00 | 0.01 | 0.01 | 35 | 1011.3 |
| 20260508205924 | 72 | 70 | 0.0 | 1.0 | 0.00 | 0.01 | 0.01 | 35 | 1011.3 |
| 20260508205810 | 72 | 66 | 0.0 | 1.0 | 0.00 | 0.01 | 0.01 | 35 | 1011.2 |
| 20260508205723 | 72 | 26 | 0.0 | 1.0 | 0.00 | 0.01 | 0.01 | 34 | 1011.2 |
| 20260508205610 | 72 | 58 | 0.0 | 1.0 | 0.00 | 0.01 | 0.01 | 34 | 1011.3 |
| 20260508205520 | 73 | 96 | 0.0 | 1.0 | 0.00 | 0.01 | 0.01 | 33 | 1011.3 |
| 20260508205426 | 73 | 86 | 0.0 | 1.0 | 0.00 | 0.01 | 0.01 | 33 | 1011.3 |
| 20260508205312 | 73 | 113 | 0.0 | 1.0 | 0.00 | 0.01 | 0.01 | 33 | 1011.4 |
| 20260508205219 | 73 | 81 | 0.0 | 1.0 | 0.00 | 0.01 | 0.01 | 34 | 1011.4 |
| 20260508205132 | 73 | 38 | 0.0 | 1.0 | 0.00 | 0.01 | 0.01 | 34 | 1011.3 |
| 20260508205022 | 74 | 54 | 0.0 | 12.0 | 0.00 | 0.01 | 0.01 | 36 | 1011.4 |
| 20260508204909 | 74 | 36 | 0.0 | 12.0 | 0.00 | 0.01 | 0.01 | 36 | 1011.4 |
| 20260508204815 | 74 | 293 | 0.0 | 12.0 | 0.00 | 0.01 | 0.01 | 33 | 1011.4 |
| 20260508204722 | 74 | 333 | 0.0 | 12.0 | 0.00 | 0.01 | 0.01 | 34 | 1011.4 |
| 20260508204628 | 74 | 300 | 0.0 | 12.0 | 0.00 | 0.01 | 0.01 | 31 | 1011.4 |
| 20260508204532 | 74 | 232 | 0.0 | 12.0 | 0.00 | 0.01 | 0.01 | 33 | 1011.4 |
| 20260508204514 | 74 | 329 | 0.0 | 12.0 | 0.00 | 0.01 | 0.01 | 33 | 1011.4 |
| 20260508204431 | 74 | 91 | 1.0 | 12.0 | 0.00 | 0.01 | 0.01 | 31 | 1011.4 |
| 20260508204316 | 74 | 345 | 1.0 | 12.0 | 0.00 | 0.01 | 0.01 | 31 | 1011.4 |
| 20260508204223 | 74 | 316 | 1.0 | 8.0 | 0.00 | 0.01 | 0.01 | 30 | 1011.4 |
| 20260508204136 | 74 | 335 | 0.0 | 8.0 | 0.00 | 0.01 | 0.01 | 32 | 1011.4 |
| 20260508204042 | 74 | 281 | 0.0 | 8.0 | 0.00 | 0.01 | 0.01 | 28 | 1011.4 |
| 20260508203927 | 74 | 44 | 0.0 | 8.0 | 0.00 | 0.01 | 0.01 | 29 | 1011.3 |
| 20260508203816 | 75 | 61 | 0.0 | 8.0 | 0.00 | 0.01 | 0.01 | 29 | 1011.3 |
| 20260508203729 | 75 | 49 | 0.0 | 8.0 | 0.00 | 0.01 | 0.01 | 32 | 1011.3 |
| 20260508203635 | 75 | 94 | 0.0 | 8.0 | 0.00 | 0.01 | 0.01 | 29 | 1011.4 |
| 20260508203522 | 75 | 64 | 1.0 | 8.0 | 0.00 | 0.01 | 0.01 | 29 | 1011.3 |
| 20260508203428 | 75 | 294 | 1.0 | 8.0 | 0.00 | 0.01 | 0.01 | 29 | 1011.4 |
| 20260508203318 | 75 | 297 | 0.0 | 5.0 | 0.00 | 0.01 | 0.01 | 30 | 1011.4 |
| 20260508203225 | 75 | 360 | 1.0 | 5.0 | 0.00 | 0.01 | 0.01 | 30 | 1011.5 |
| 20260508203138 | 75 | 333 | 1.0 | 5.0 | 0.00 | 0.01 | 0.01 | 30 | 1011.4 |
| 20260508203104 | 74 | 32 | 1.0 | 5.0 | 0.00 | 0.01 | 0.01 | 30 | 1011.5 |
| 20260508203023 | 75 | 341 | 1.0 | 5.0 | 0.00 | 0.01 | 0.01 | 30 | 1011.4 |
| 20260508202909 | 74 | 63 | 1.0 | 5.0 | 0.00 | 0.01 | 0.01 | 33 | 1011.5 |
| 20260508202835 | 74 | 41 | 0.0 | 1.0 | 0.00 | 0.01 | 0.01 | 35 | 1011.4 |
| 20260508202748 | 74 | 22 | 0.0 | 3.0 | 0.00 | 0.01 | 0.01 | 34 | 1011.4 |
| 20260508202617 | 74 | 11 | 0.0 | 11.0 | 0.00 | 0.01 | 0.01 | 32 | 1011.5 |
| 20260508202523 | 74 | 28 | 0.0 | 11.0 | 0.00 | 0.01 | 0.01 | 32 | 1011.5 |
| 20260508202436 | 74 | 29 | 0.0 | 11.0 | 0.00 | 0.01 | 0.01 | 29 | 1011.5 |
| 20260508202341 | 74 | 321 | 0.0 | 11.0 | 0.00 | 0.01 | 0.01 | 30 | 1011.5 |
| 20260508202233 | 74 | 28 | 0.0 | 11.0 | 0.00 | 0.01 | 0.01 | 30 | 1011.5 |
| 20260508202120 | 74 | 311 | 0.0 | 11.0 | 0.00 | 0.01 | 0.01 | 29 | 1011.6 |
| 20260508202010 | 74 | 288 | 1.0 | 11.0 | 0.00 | 0.01 | 0.01 | 31 | 1011.5 |
| 20260508201916 | 74 | 302 | 2.0 | 11.0 | 0.00 | 0.01 | 0.01 | 32 | 1011.5 |
| 20260508201823 | 73 | 112 | 2.0 | 11.0 | 0.00 | 0.01 | 0.01 | 29 | 1011.5 |
| 20260508201709 | 73 | 73 | 0.0 | 3.0 | 0.00 | 0.01 | 0.01 | 32 | 1011.5 |
| 20260508201616 | 73 | 65 | 0.0 | 5.0 | 0.00 | 0.01 | 0.01 | 31 | 1011.6 |
| 20260508201529 | 73 | 346 | 0.0 | 5.0 | 0.00 | 0.01 | 0.01 | 31 | 1011.6 |
| 20260508201519 | 73 | 355 | 0.0 | 5.0 | 0.00 | 0.01 | 0.01 | 31 | 1011.6 |
| 20260508201419 | 73 | 44 | 0.0 | 5.0 | 0.00 | 0.01 | 0.01 | 31 | 1011.6 |
| 20260508201326 | 73 | 321 | 0.0 | 5.0 | 0.00 | 0.01 | 0.01 | 30 | 1011.5 |
| 20260508201212 | 73 | 73 | 0.0 | 5.0 | 0.00 | 0.01 | 0.01 | 30 | 1011.6 |
| 20260508201119 | 73 | 80 | 0.0 | 5.0 | 0.00 | 0.01 | 0.01 | 31 | 1011.6 |
| 20260508201025 | 73 | 96 | 0.0 | 5.0 | 0.00 | 0.01 | 0.01 | 30 | 1011.6 |
| 20260508200923 | 73 | 90 | 1.0 | 5.0 | 0.00 | 0.01 | 0.01 | 29 | 1011.6 |
| 20260508200848 | 74 | 204 | 1.0 | 5.0 | 0.00 | 0.01 | 0.01 | 30 | 1011.7 |
| 20260508200713 | 74 | 319 | 1.0 | 5.0 | 0.00 | 0.01 | 0.01 | 29 | 1011.7 |
| 20260508200620 | 74 | 296 | 1.0 | 5.0 | 0.00 | 0.01 | 0.01 | 30 | 1011.7 |
| 20260508200533 | 74 | 47 | 1.0 | 5.0 | 0.00 | 0.01 | 0.01 | 30 | 1011.7 |
| 20260508200439 | 74 | 70 | 0.0 | 4.0 | 0.00 | 0.01 | 0.01 | 28 | 1011.7 |
| 20260508200351 | 74 | 5 | 0.0 | 4.0 | 0.00 | 0.01 | 0.01 | 29 | 1011.7 |
| 20260508200220 | 74 | 96 | 0.0 | 4.0 | 0.00 | 0.01 | 0.01 | 30 | 1011.8 |
| 20260508200126 | 74 | 186 | 0.0 | 4.0 | 0.00 | 0.01 | 0.01 | 30 | 1011.7 |
| 20260508200058 | 74 | 186 | 0.0 | 7.0 | 0.00 | 0.01 | 0.01 | 29 | 1011.8 |
| 20260508200033 | 74 | 257 | 1.0 | 7.0 | 0.00 | 0.01 | 0.01 | 28 | 1011.7 |
| 20260508195918 | 74 | 303 | 0.0 | 7.0 | 0.00 | 0.01 | 0.01 | 30 | 1011.7 |
| 20260508195831 | 74 | 65 | 0.0 | 7.0 | 0.00 | 0.01 | 0.01 | 31 | 1011.8 |
| 20260508195721 | 74 | 38 | 0.0 | 7.0 | 0.00 | 0.01 | 0.01 | 31 | 1011.8 |
| 20260508195627 | 74 | 346 | 0.0 | 13.0 | 0.00 | 0.01 | 0.01 | 31 | 1011.8 |
| 20260508195515 | 74 | 19 | 0.0 | 13.0 | 0.00 | 0.01 | 0.01 | 32 | 1011.8 |
| 20260508195420 | 74 | 35 | 0.0 | 13.0 | 0.00 | 0.01 | 0.01 | 35 | 1011.8 |
| 20260508195333 | 74 | 286 | 1.0 | 13.0 | 0.00 | 0.01 | 0.01 | 30 | 1011.8 |
| 20260508195221 | 74 | 225 | 1.0 | 13.0 | 0.00 | 0.01 | 0.01 | 30 | 1011.8 |
| 20260508195111 | 74 | 112 | 0.0 | 13.0 | 0.00 | 0.01 | 0.01 | 30 | 1011.8 |
| 20260508195017 | 73 | 319 | 0.0 | 13.0 | 0.00 | 0.01 | 0.01 | 31 | 1011.8 |
| 20260508194924 | 73 | 97 | 2.0 | 13.0 | 0.00 | 0.01 | 0.01 | 31 | 1011.8 |
| 20260508194810 | 73 | 240 | 2.0 | 13.0 | 0.00 | 0.01 | 0.01 | 31 | 1011.9 |
| 20260508194716 | 73 | 71 | 0.0 | 6.0 | 0.00 | 0.01 | 0.01 | 32 | 1011.9 |
| 20260508194633 | 73 | 355 | 0.0 | 6.0 | 0.00 | 0.01 | 0.01 | 31 | 1011.8 |
| 20260508194621 | 72 | 5 | 0.0 | 6.0 | 0.00 | 0.01 | 0.01 | 31 | 1011.9 |
| 20260508194518 | 73 | 308 | 0.0 | 6.0 | 0.00 | 0.01 | 0.01 | 30 | 1011.8 |
| 20260508194424 | 73 | 313 | 1.0 | 6.0 | 0.00 | 0.01 | 0.01 | 29 | 1011.8 |
| 20260508194310 | 73 | 74 | 0.0 | 6.0 | 0.00 | 0.01 | 0.01 | 29 | 1012.0 |
| 20260508194243 | 73 | 49 | 0.0 | 3.0 | 0.00 | 0.01 | 0.01 | 30 | 1012.0 |
| 20260508194128 | 73 | 49 | 0.0 | 3.0 | 0.00 | 0.01 | 0.01 | 31 | 1012.0 |
| 20260508194034 | 73 | 185 | 0.0 | 5.0 | 0.00 | 0.01 | 0.01 | 30 | 1012.1 |
| 20260508193930 | 74 | 165 | 0.0 | 5.0 | 0.00 | 0.01 | 0.01 | 30 | 1012.1 |
| 20260508193817 | 74 | 112 | 0.0 | 5.0 | 0.00 | 0.01 | 0.01 | 31 | 1012.1 |
| 20260508193742 | 74 | 117 | 0.0 | 5.0 | 0.00 | 0.01 | 0.01 | 29 | 1012.1 |
| 20260508193634 | 74 | 282 | 0.0 | 5.0 | 0.00 | 0.01 | 0.01 | 30 | 1012.1 |
| 20260508193520 | 73 | 261 | 0.0 | 9.0 | 0.00 | 0.01 | 0.01 | 31 | 1012.1 |
| 20260508193411 | 73 | 242 | 0.0 | 9.0 | 0.00 | 0.01 | 0.01 | 34 | 1012.1 |
| 20260508193317 | 73 | 305 | 0.0 | 9.0 | 0.00 | 0.01 | 0.01 | 31 | 1012.1 |
| 20260508193223 | 73 | 284 | 0.0 | 9.0 | 0.00 | 0.01 | 0.01 | 31 | 1012.1 |
| 20260508193110 | 73 | 13 | 0.0 | 9.0 | 0.00 | 0.01 | 0.01 | 31 | 1012.1 |
| 20260508193029 | 73 | 312 | 0.0 | 9.0 | 0.00 | 0.01 | 0.01 | 31 | 1012.2 |
| 20260508193016 | 73 | 24 | 0.0 | 9.0 | 0.00 | 0.01 | 0.01 | 30 | 1012.1 |
| 20260508192929 | 73 | 57 | 0.0 | 9.0 | 0.00 | 0.01 | 0.01 | 30 | 1012.1 |
| 20260508192839 | 73 | 11 | 1.0 | 9.0 | 0.00 | 0.01 | 0.01 | 31 | 1012.2 |
| 20260508192725 | 73 | 134 | 1.0 | 9.0 | 0.00 | 0.01 | 0.01 | 31 | 1012.2 |
| 20260508192611 | 73 | 84 | 0.0 | 1.0 | 0.00 | 0.01 | 0.01 | 31 | 1012.1 |
| 20260508192524 | 73 | 360 | 0.0 | 1.0 | 0.00 | 0.01 | 0.01 | 31 | 1012.1 |
| 20260508192431 | 73 | 355 | 0.0 | 1.0 | 0.00 | 0.01 | 0.01 | 30 | 1012.1 |
| 20260508192317 | 73 | 40 | 0.0 | 1.0 | 0.00 | 0.01 | 0.01 | 31 | 1012.2 |
| 20260508192227 | 73 | 329 | 0.0 | 1.0 | 0.00 | 0.01 | 0.01 | 31 | 1012.1 |
| 20260508192113 | 73 | 274 | 0.0 | 1.0 | 0.00 | 0.01 | 0.01 | 31 | 1012.2 |
| 20260508192018 | 73 | 29 | 0.0 | 1.0 | 0.00 | 0.01 | 0.01 | 30 | 1012.2 |
| 20260508191932 | 73 | 315 | 0.0 | 1.0 | 0.00 | 0.01 | 0.01 | 30 | 1012.2 |
| 20260508191838 | 73 | 304 | 0.0 | 1.0 | 0.00 | 0.01 | 0.01 | 31 | 1012.2 |
| 20260508191724 | 73 | 109 | 0.0 | 1.0 | 0.00 | 0.01 | 0.01 | 33 | 1012.2 |
| 20260508191637 | 72 | 32 | 0.0 | 1.0 | 0.00 | 0.01 | 0.01 | 30 | 1012.3 |
| 20260508191614 | 73 | 51 | 0.0 | 1.0 | 0.00 | 0.01 | 0.01 | 30 | 1012.3 |
| 20260508191547 | 73 | 66 | 0.0 | 1.0 | 0.00 | 0.01 | 0.01 | 30 | 1012.3 |
| 20260508191434 | 73 | 90 | 0.0 | 2.0 | 0.00 | 0.01 | 0.01 | 31 | 1012.4 |
| 20260508191319 | 73 | 257 | 0.0 | 2.0 | 0.00 | 0.01 | 0.01 | 33 | 1012.4 |
| 20260508191232 | 73 | 251 | 0.0 | 2.0 | 0.00 | 0.01 | 0.01 | 30 | 1012.5 |
| 20260508191118 | 72 | 167 | 0.0 | 6.0 | 0.00 | 0.01 | 0.01 | 30 | 1012.4 |
| 20260508191029 | 72 | 304 | 0.0 | 6.0 | 0.00 | 0.01 | 0.01 | 31 | 1012.5 |
| 20260508190916 | 72 | 5 | 0.0 | 6.0 | 0.00 | 0.01 | 0.01 | 34 | 1012.5 |
| 20260508190821 | 72 | 355 | 0.0 | 6.0 | 0.00 | 0.01 | 0.01 | 31 | 1012.5 |
| 20260508190734 | 72 | 325 | 0.0 | 6.0 | 0.00 | 0.01 | 0.01 | 32 | 1012.6 |
| 20260508190614 | 72 | 9 | 0.0 | 6.0 | 0.00 | 0.01 | 0.01 | 30 | 1012.6 |
| 20260508190531 | 72 | 355 | 0.0 | 6.0 | 0.00 | 0.01 | 0.01 | 30 | 1012.6 |
| 20260508190418 | 72 | 346 | 2.0 | 6.0 | 0.00 | 0.01 | 0.01 | 31 | 1012.6 |
| 20260508190344 | 73 | 355 | 2.0 | 6.0 | 0.00 | 0.01 | 0.01 | 31 | 1012.5 |
| 20260508190229 | 73 | 29 | 0.0 | 5.0 | 0.00 | 0.01 | 0.01 | 30 | 1012.6 |
| 20260508190113 | 73 | 355 | 0.0 | 9.0 | 0.00 | 0.01 | 0.01 | 32 | 1012.7 |
| 20260508190058 | 72 | 5 | 0.0 | 9.0 | 0.00 | 0.01 | 0.01 | 32 | 1012.8 |
| 20260508190019 | 73 | 17 | 0.0 | 9.0 | 0.00 | 0.01 | 0.01 | 29 | 1012.7 |
| 20260508185953 | 73 | 94 | 0.0 | 9.0 | 0.00 | 0.01 | 0.01 | 32 | 1012.7 |
| 20260508185820 | 73 | 58 | 0.0 | 9.0 | 0.00 | 0.01 | 0.01 | 30 | 1012.6 |
| 20260508185727 | 73 | 85 | 0.0 | 9.0 | 0.00 | 0.01 | 0.01 | 29 | 1012.7 |
| 20260508185613 | 73 | 69 | 1.0 | 9.0 | 0.00 | 0.01 | 0.01 | 34 | 1012.7 |
| 20260508185519 | 73 | 50 | 1.0 | 9.0 | 0.00 | 0.01 | 0.01 | 30 | 1012.7 |
| 20260508185452 | 73 | 302 | 1.0 | 9.0 | 0.00 | 0.01 | 0.01 | 31 | 1012.7 |
| 20260508185318 | 73 | 272 | 1.0 | 9.0 | 0.00 | 0.01 | 0.01 | 30 | 1012.7 |
| 20260508185217 | 73 | 288 | 0.0 | 9.0 | 0.00 | 0.01 | 0.01 | 30 | 1012.7 |
| 20260508185123 | 73 | 84 | 2.0 | 9.0 | 0.00 | 0.01 | 0.01 | 30 | 1012.8 |
| 20260508185009 | 73 | 322 | 3.0 | 9.0 | 0.00 | 0.01 | 0.01 | 32 | 1012.8 |
| 20260508184922 | 73 | 332 | 2.0 | 8.0 | 0.00 | 0.01 | 0.01 | 30 | 1012.8 |
| 20260508184810 | 73 | 290 | 1.0 | 8.0 | 0.00 | 0.01 | 0.01 | 31 | 1012.8 |
| 20260508184719 | 73 | 319 | 1.0 | 8.0 | 0.00 | 0.01 | 0.01 | 32 | 1012.8 |
| 20260508184626 | 73 | 348 | 1.0 | 8.0 | 0.00 | 0.01 | 0.01 | 31 | 1012.8 |
| 20260508184543 | 72 | 286 | 1.0 | 8.0 | 0.00 | 0.01 | 0.01 | 33 | 1012.9 |
| 20260508184512 | 73 | 286 | 1.0 | 8.0 | 0.00 | 0.01 | 0.01 | 32 | 1012.8 |
| 20260508184418 | 73 | 360 | 0.0 | 4.0 | 0.00 | 0.01 | 0.01 | 31 | 1012.8 |
| 20260508184331 | 73 | 321 | 0.0 | 4.0 | 0.00 | 0.01 | 0.01 | 31 | 1012.8 |
| 20260508184221 | 73 | 294 | 0.0 | 8.0 | 0.00 | 0.01 | 0.01 | 31 | 1012.9 |
| 20260508184128 | 73 | 107 | 0.0 | 8.0 | 0.00 | 0.01 | 0.01 | 30 | 1012.9 |
| 20260508184014 | 72 | 279 | 0.0 | 8.0 | 0.00 | 0.01 | 0.01 | 30 | 1012.9 |
| 20260508183921 | 72 | 18 | 0.0 | 11.0 | 0.00 | 0.01 | 0.01 | 31 | 1012.9 |
| 20260508183827 | 72 | 355 | 0.0 | 11.0 | 0.00 | 0.01 | 0.01 | 32 | 1012.9 |
| 20260508183713 | 72 | 77 | 0.0 | 11.0 | 0.00 | 0.01 | 0.01 | 32 | 1013.0 |
| 20260508183630 | 72 | 334 | 1.0 | 11.0 | 0.00 | 0.01 | 0.01 | 31 | 1013.0 |
| 20260508183516 | 72 | 52 | 3.0 | 11.0 | 0.00 | 0.01 | 0.01 | 30 | 1013.0 |
| 20260508183422 | 72 | 355 | 2.0 | 11.0 | 0.00 | 0.01 | 0.01 | 28 | 1013.0 |
| 20260508183327 | 72 | 304 | 0.0 | 11.0 | 0.00 | 0.01 | 0.01 | 30 | 1013.1 |
| 20260508183215 | 72 | 322 | 4.0 | 11.0 | 0.00 | 0.01 | 0.01 | 30 | 1013.2 |
| 20260508183131 | 73 | 328 | 4.0 | 11.0 | 0.00 | 0.01 | 0.01 | 29 | 1013.2 |
| 20260508183018 | 73 | 311 | 0.0 | 9.0 | 0.00 | 0.01 | 0.01 | 32 | 1013.1 |
| 20260508183010 | 72 | 5 | 0.0 | 9.0 | 0.00 | 0.01 | 0.01 | 32 | 1013.1 |
| 20260508182924 | 73 | 331 | 0.0 | 9.0 | 0.00 | 0.01 | 0.01 | 33 | 1013.0 |
| 20260508182850 | 72 | 44 | 0.0 | 9.0 | 0.00 | 0.01 | 0.01 | 32 | 1013.1 |
| 20260508182716 | 72 | 207 | 1.0 | 9.0 | 0.00 | 0.01 | 0.01 | 30 | 1013.1 |
| 20260508182628 | 72 | 232 | 1.0 | 9.0 | 0.00 | 0.01 | 0.01 | 30 | 1013.1 |
| 20260508182518 | 72 | 121 | 1.0 | 6.0 | 0.00 | 0.01 | 0.01 | 30 | 1013.2 |
| 20260508182424 | 72 | 30 | 0.0 | 6.0 | 0.00 | 0.01 | 0.01 | 30 | 1013.2 |
| 20260508182310 | 72 | 303 | 0.0 | 6.0 | 0.00 | 0.01 | 0.01 | 39 | 1013.2 |
| 20260508182243 | 72 | 80 | 1.0 | 6.0 | 0.00 | 0.01 | 0.01 | 32 | 1013.2 |
| 20260508182130 | 72 | 67 | 1.0 | 8.0 | 0.00 | 0.01 | 0.01 | 34 | 1013.2 |
| 20260508182035 | 72 | 75 | 0.0 | 9.0 | 0.00 | 0.01 | 0.01 | 35 | 1013.3 |
| 20260508181932 | 72 | 5 | 0.0 | 9.0 | 0.00 | 0.01 | 0.01 | 33 | 1013.2 |
| 20260508181816 | 72 | 9 | 1.0 | 9.0 | 0.00 | 0.01 | 0.01 | 33 | 1013.2 |
| 20260508181723 | 72 | 306 | 3.0 | 9.0 | 0.00 | 0.01 | 0.01 | 34 | 1013.2 |
| 20260508181610 | 72 | 49 | 2.0 | 10.0 | 0.00 | 0.01 | 0.01 | 33 | 1013.2 |
| 20260508181554 | 71 | 5 | 1.0 | 10.0 | 0.00 | 0.01 | 0.01 | 31 | 1013.3 |
| 20260508181516 | 72 | 350 | 1.0 | 10.0 | 0.00 | 0.01 | 0.01 | 33 | 1013.2 |
| 20260508181429 | 72 | 336 | 1.0 | 10.0 | 0.00 | 0.01 | 0.01 | 33 | 1013.3 |
| 20260508181319 | 72 | 64 | 2.0 | 10.0 | 0.00 | 0.01 | 0.01 | 32 | 1013.4 |
| 20260508181225 | 72 | 34 | 1.0 | 10.0 | 0.00 | 0.01 | 0.01 | 33 | 1013.4 |
| 20260508181112 | 72 | 88 | 0.0 | 10.0 | 0.00 | 0.01 | 0.01 | 33 | 1013.4 |
| 20260508181018 | 72 | 306 | 1.0 | 10.0 | 0.00 | 0.01 | 0.01 | 33 | 1013.4 |
| 20260508180925 | 72 | 270 | 3.0 | 10.0 | 0.00 | 0.01 | 0.01 | 32 | 1013.4 |
| 20260508180815 | 72 | 90 | 4.0 | 10.0 | 0.00 | 0.01 | 0.01 | 34 | 1013.6 |
| 20260508180728 | 72 | 76 | 1.0 | 10.0 | 0.00 | 0.01 | 0.01 | 33 | 1013.6 |
| 20260508180615 | 72 | 11 | 1.0 | 10.0 | 0.00 | 0.01 | 0.01 | 33 | 1013.6 |
| 20260508180521 | 71 | 278 | 2.0 | 10.0 | 0.00 | 0.01 | 0.01 | 33 | 1013.6 |
| 20260508180428 | 72 | 82 | 2.0 | 10.0 | 0.00 | 0.01 | 0.01 | 32 | 1013.5 |
| 20260508180334 | 72 | 277 | 0.0 | 6.0 | 0.00 | 0.01 | 0.01 | 32 | 1013.6 |
| 20260508180212 | 72 | 328 | 0.0 | 8.0 | 0.00 | 0.01 | 0.01 | 31 | 1013.5 |
| 20260508180118 | 72 | 313 | 0.0 | 8.0 | 0.00 | 0.01 | 0.01 | 33 | 1013.5 |
| 20260508180101 | 71 | 355 | 0.0 | 8.0 | 0.00 | 0.01 | 0.01 | 33 | 1013.6 |
| 20260508180024 | 71 | 327 | 0.0 | 8.0 | 0.00 | 0.01 | 0.01 | 31 | 1013.5 |
| 20260508175911 | 72 | 5 | 0.0 | 8.0 | 0.00 | 0.01 | 0.01 | 30 | 1013.6 |
| 20260508175817 | 72 | 318 | 0.0 | 8.0 | 0.00 | 0.01 | 0.01 | 32 | 1013.6 |
| 20260508175731 | 72 | 14 | 1.0 | 8.0 | 0.00 | 0.01 | 0.01 | 31 | 1013.7 |
| 20260508175641 | 72 | 261 | 2.0 | 9.0 | 0.00 | 0.01 | 0.01 | 30 | 1013.7 |
| 20260508175526 | 72 | 123 | 2.0 | 9.0 | 0.00 | 0.01 | 0.01 | 31 | 1013.8 |
| 20260508175411 | 72 | 19 | 1.0 | 9.0 | 0.00 | 0.01 | 0.01 | 32 | 1013.8 |
| 20260508175317 | 72 | 259 | 1.0 | 9.0 | 0.00 | 0.01 | 0.01 | 32 | 1013.8 |
| 20260508175230 | 72 | 86 | 1.0 | 9.0 | 0.00 | 0.01 | 0.01 | 35 | 1013.8 |
| 20260508175115 | 72 | 244 | 1.0 | 9.0 | 0.00 | 0.01 | 0.01 | 33 | 1013.8 |
| 20260508175053 | 72 | 311 | 1.0 | 9.0 | 0.00 | 0.01 | 0.01 | 32 | 1013.8 |
| 20260508174917 | 72 | 315 | 3.0 | 9.0 | 0.00 | 0.01 | 0.01 | 34 | 1013.8 |
| 20260508174843 | 72 | 126 | 3.0 | 9.0 | 0.00 | 0.01 | 0.01 | 33 | 1013.7 |
| 20260508174709 | 72 | 15 | 2.0 | 9.0 | 0.00 | 0.01 | 0.01 | 32 | 1013.8 |
| 20260508174622 | 72 | 182 | 2.0 | 8.0 | 0.00 | 0.01 | 0.01 | 32 | 1013.8 |
| 20260508174611 | 71 | 298 | 2.0 | 8.0 | 0.00 | 0.01 | 0.01 | 33 | 1013.9 |
| 20260508174528 | 72 | 57 | 1.0 | 6.0 | 0.00 | 0.01 | 0.01 | 33 | 1013.8 |
| 20260508174418 | 72 | 81 | 1.0 | 6.0 | 0.00 | 0.02 | 0.01 | 33 | 1013.9 |
| 20260508174351 | 72 | 315 | 0.0 | 6.0 | 0.00 | 0.02 | 0.01 | 36 | 1013.9 |
| 20260508174209 | 71 | 292 | 1.0 | 8.0 | 0.00 | 0.02 | 0.01 | 35 | 1014.0 |
| 20260508174122 | 71 | 276 | 1.0 | 8.0 | 0.00 | 0.02 | 0.01 | 31 | 1014.0 |
| 20260508174048 | 71 | 293 | 1.0 | 8.0 | 0.00 | 0.02 | 0.01 | 32 | 1014.0 |
| 20260508173940 | 71 | 311 | 1.0 | 8.0 | 0.00 | 0.02 | 0.01 | 32 | 1014.0 |
| 20260508173810 | 71 | 5 | 1.0 | 11.0 | 0.00 | 0.02 | 0.01 | 33 | 1014.0 |
| 20260508173736 | 71 | 108 | 2.0 | 11.0 | 0.00 | 0.02 | 0.01 | 35 | 1014.0 |
| 20260508173627 | 71 | 322 | 2.0 | 11.0 | 0.00 | 0.02 | 0.01 | 31 | 1014.0 |
| 20260508173513 | 71 | 319 | 2.0 | 11.0 | 0.00 | 0.02 | 0.01 | 32 | 1014.1 |
| 20260508173419 | 71 | 264 | 1.0 | 11.0 | 0.00 | 0.02 | 0.01 | 32 | 1014.1 |
| 20260508173352 | 71 | 310 | 0.0 | 11.0 | 0.00 | 0.02 | 0.01 | 35 | 1014.0 |
| 20260508173211 | 71 | 45 | 1.0 | 11.0 | 0.00 | 0.02 | 0.01 | 34 | 1014.1 |
| 20260508173128 | 71 | 295 | 2.0 | 11.0 | 0.00 | 0.02 | 0.01 | 32 | 1014.1 |
| 20260508173103 | 70 | 216 | 2.0 | 11.0 | 0.00 | 0.02 | 0.01 | 32 | 1014.1 |
| 20260508173013 | 71 | 36 | 2.0 | 11.0 | 0.00 | 0.02 | 0.01 | 32 | 1014.0 |
| 20260508172940 | 71 | 57 | 0.0 | 10.0 | 0.00 | 0.02 | 0.01 | 34 | 1014.0 |
| 20260508172832 | 71 | 60 | 0.0 | 10.0 | 0.00 | 0.02 | 0.01 | 34 | 1014.0 |
| 20260508172718 | 70 | 360 | 0.0 | 10.0 | 0.00 | 0.02 | 0.01 | 35 | 1014.0 |
| 20260508172645 | 70 | 53 | 1.0 | 10.0 | 0.00 | 0.02 | 0.01 | 34 | 1014.1 |
| 20260508172514 | 70 | 307 | 2.0 | 10.0 | 0.00 | 0.02 | 0.01 | 34 | 1014.1 |
| 20260508172427 | 70 | 120 | 4.0 | 10.0 | 0.00 | 0.02 | 0.01 | 35 | 1014.1 |
| 20260508172314 | 71 | 82 | 4.0 | 10.0 | 0.00 | 0.02 | 0.01 | 31 | 1014.2 |
| 20260508172219 | 71 | 65 | 4.0 | 10.0 | 0.00 | 0.02 | 0.01 | 34 | 1014.2 |
| 20260508172125 | 71 | 215 | 2.0 | 10.0 | 0.00 | 0.02 | 0.01 | 34 | 1014.2 |
| 20260508172012 | 71 | 20 | 0.0 | 12.0 | 0.00 | 0.02 | 0.01 | 33 | 1014.2 |
| 20260508171917 | 71 | 260 | 0.0 | 12.0 | 0.00 | 0.02 | 0.01 | 33 | 1014.2 |
| 20260508171830 | 71 | 300 | 0.0 | 12.0 | 0.00 | 0.02 | 0.01 | 31 | 1014.1 |
| 20260508171716 | 71 | 238 | 1.0 | 12.0 | 0.00 | 0.02 | 0.01 | 32 | 1014.2 |
| 20260508171623 | 71 | 331 | 1.0 | 12.0 | 0.00 | 0.02 | 0.01 | 32 | 1014.2 |
| 20260508171556 | 70 | 290 | 0.0 | 12.0 | 0.00 | 0.02 | 0.01 | 34 | 1014.4 |
| 20260508171530 | 70 | 306 | 0.0 | 12.0 | 0.00 | 0.02 | 0.01 | 32 | 1014.2 |
| 20260508171426 | 71 | 105 | 1.0 | 12.0 | 0.00 | 0.02 | 0.01 | 33 | 1014.2 |
| 20260508171333 | 71 | 11 | 4.0 | 12.0 | 0.00 | 0.02 | 0.01 | 31 | 1014.3 |
| 20260508171239 | 71 | 109 | 3.0 | 12.0 | 0.00 | 0.02 | 0.01 | 31 | 1014.3 |
| 20260508171151 | 71 | 112 | 1.0 | 12.0 | 0.00 | 0.02 | 0.01 | 34 | 1014.4 |
| 20260508171016 | 71 | 284 | 0.0 | 8.0 | 0.00 | 0.02 | 0.01 | 33 | 1014.3 |
| 20260508170922 | 71 | 29 | 0.0 | 8.0 | 0.00 | 0.02 | 0.01 | 36 | 1014.3 |
| 20260508170812 | 71 | 55 | 1.0 | 8.0 | 0.00 | 0.02 | 0.01 | 33 | 1014.3 |
| 20260508170718 | 71 | 45 | 0.0 | 8.0 | 0.00 | 0.02 | 0.01 | 37 | 1014.3 |
| 20260508170631 | 71 | 245 | 0.0 | 8.0 | 0.00 | 0.02 | 0.01 | 38 | 1014.4 |
| 20260508170519 | 71 | 300 | 2.0 | 8.0 | 0.00 | 0.02 | 0.01 | 34 | 1014.3 |
| 20260508170445 | 71 | 313 | 2.0 | 8.0 | 0.00 | 0.02 | 0.01 | 32 | 1014.3 |
| 20260508170327 | 71 | 360 | 0.0 | 0.0 | 0.00 | 0.02 | 0.01 | 35 | 1014.3 |
| 20260508170300 | 71 | 11 | 0.0 | 0.0 | 0.00 | 0.02 | 0.01 | 38 | 1014.4 |
| 20260508170118 | 70 | 336 | 0.0 | 0.0 | 0.00 | 0.02 | 0.01 | 40 | 1014.3 |
| 20260508170037 | 70 | 12 | 0.0 | 7.0 | 0.00 | 0.02 | 0.01 | 42 | 1014.5 |
| 20260508170021 | 70 | 346 | 0.0 | 7.0 | 0.00 | 0.02 | 0.01 | 42 | 1014.3 |
| 20260508165933 | 70 | 35 | 0.0 | 7.0 | 0.00 | 0.02 | 0.01 | 35 | 1014.3 |
| 20260508165840 | 70 | 312 | 0.0 | 7.0 | 0.00 | 0.02 | 0.01 | 34 | 1014.4 |
| 20260508165724 | 70 | 311 | 0.0 | 7.0 | 0.00 | 0.02 | 0.01 | 34 | 1014.3 |
| 20260508165610 | 70 | 344 | 0.0 | 7.0 | 0.00 | 0.02 | 0.01 | 38 | 1014.3 |
| 20260508165548 | 70 | 5 | 0.0 | 7.0 | 0.00 | 0.02 | 0.01 | 36 | 1014.3 |
| 20260508165412 | 70 | 313 | 0.0 | 7.0 | 0.00 | 0.02 | 0.01 | 37 | 1014.5 |
| 20260508165319 | 69 | 26 | 1.0 | 7.0 | 0.00 | 0.02 | 0.01 | 34 | 1014.5 |
| 20260508165250 | 69 | 79 | 1.0 | 7.0 | 0.00 | 0.02 | 0.01 | 34 | 1014.5 |
| 20260508165137 | 69 | 29 | 0.0 | 1.0 | 0.00 | 0.02 | 0.01 | 37 | 1014.5 |
| 20260508165018 | 69 | 135 | 0.0 | 1.0 | 0.00 | 0.02 | 0.01 | 34 | 1014.5 |
| 20260508164931 | 69 | 69 | 0.0 | 1.0 | 0.00 | 0.02 | 0.01 | 34 | 1014.5 |
| 20260508164818 | 69 | 77 | 0.0 | 1.0 | 0.00 | 0.02 | 0.01 | 35 | 1014.6 |
| 20260508164723 | 69 | 48 | 0.0 | 0.0 | 0.00 | 0.02 | 0.01 | 34 | 1014.6 |
| 20260508164626 | 69 | 54 | 0.0 | 4.0 | 0.00 | 0.02 | 0.01 | 35 | 1014.6 |
| 20260508164537 | 69 | 74 | 0.0 | 12.0 | 0.00 | 0.02 | 0.01 | 37 | 1014.8 |
| 20260508164513 | 69 | 93 | 0.0 | 12.0 | 0.00 | 0.02 | 0.01 | 37 | 1014.8 |
| 20260508164418 | 69 | 315 | 0.0 | 12.0 | 0.00 | 0.02 | 0.01 | 42 | 1014.8 |
| 20260508164335 | 69 | 101 | 0.0 | 12.0 | 0.00 | 0.02 | 0.01 | 36 | 1014.8 |
| 20260508164221 | 69 | 155 | 0.0 | 12.0 | 0.00 | 0.02 | 0.01 | 35 | 1014.8 |
| 20260508164127 | 69 | 80 | 0.0 | 12.0 | 0.00 | 0.02 | 0.01 | 33 | 1014.8 |
| 20260508164041 | 69 | 292 | 0.0 | 12.0 | 0.00 | 0.02 | 0.01 | 40 | 1014.9 |
| 20260508163959 | 69 | 299 | 2.0 | 12.0 | 0.00 | 0.02 | 0.01 | 35 | 1014.9 |
| 20260508163837 | 70 | 13 | 4.0 | 12.0 | 0.00 | 0.02 | 0.01 | 35 | 1014.9 |
| 20260508163713 | 70 | 344 | 2.0 | 11.0 | 0.00 | 0.02 | 0.01 | 35 | 1014.8 |
| 20260508163616 | 70 | 131 | 0.0 | 9.0 | 0.00 | 0.02 | 0.01 | 36 | 1014.8 |
| 20260508163523 | 70 | 113 | 1.0 | 9.0 | 0.00 | 0.02 | 0.01 | 36 | 1014.9 |
| 20260508163436 | 70 | 182 | 1.0 | 9.0 | 0.00 | 0.02 | 0.01 | 36 | 1014.9 |
| 20260508163334 | 69 | 20 | 0.0 | 5.0 | 0.00 | 0.02 | 0.01 | 43 | 1014.9 |
| 20260508163240 | 69 | 281 | 0.0 | 5.0 | 0.00 | 0.02 | 0.01 | 41 | 1014.8 |
| 20260508163138 | 69 | 38 | 0.0 | 5.0 | 0.00 | 0.02 | 0.01 | 40 | 1015.0 |
| 20260508163125 | 69 | 45 | 0.0 | 5.0 | 0.00 | 0.02 | 0.01 | 40 | 1014.9 |
| 20260508163059 | 69 | 71 | 1.0 | 5.0 | 0.00 | 0.02 | 0.01 | 34 | 1014.9 |
| 20260508163016 | 69 | 71 | 1.0 | 5.0 | 0.00 | 0.02 | 0.01 | 34 | 1014.9 |
| 20260508162926 | 69 | 46 | 1.0 | 5.0 | 0.00 | 0.02 | 0.01 | 34 | 1014.9 |
| 20260508162812 | 69 | 18 | 1.0 | 9.0 | 0.00 | 0.02 | 0.01 | 36 | 1014.9 |
| 20260508162725 | 69 | 237 | 1.0 | 9.0 | 0.00 | 0.02 | 0.01 | 34 | 1014.9 |
| 20260508162612 | 70 | 261 | 1.0 | 9.0 | 0.00 | 0.02 | 0.01 | 34 | 1014.9 |
| 20260508162518 | 70 | 274 | 1.0 | 9.0 | 0.00 | 0.02 | 0.01 | 34 | 1014.9 |
| 20260508162409 | 70 | 300 | 0.0 | 9.0 | 0.00 | 0.02 | 0.01 | 37 | 1014.9 |
| 20260508162315 | 70 | 100 | 0.0 | 9.0 | 0.00 | 0.02 | 0.01 | 38 | 1014.9 |
| 20260508162222 | 70 | 118 | 0.0 | 9.0 | 0.00 | 0.02 | 0.01 | 36 | 1014.9 |
| 20260508162109 | 70 | 201 | 3.0 | 9.0 | 0.00 | 0.02 | 0.01 | 35 | 1014.9 |
| 20260508162042 | 70 | 241 | 4.0 | 9.0 | 0.00 | 0.02 | 0.01 | 37 | 1014.9 |
| 20260508161954 | 70 | 14 | 2.0 | 6.0 | 0.00 | 0.02 | 0.01 | 36 | 1014.9 |
| 20260508161823 | 70 | 29 | 0.0 | 2.0 | 0.00 | 0.02 | 0.01 | 38 | 1014.9 |
| 20260508161709 | 69 | 325 | 0.0 | 2.0 | 0.00 | 0.02 | 0.01 | 37 | 1014.9 |
| 20260508161616 | 69 | 50 | 0.0 | 2.0 | 0.00 | 0.02 | 0.01 | 38 | 1014.9 |
| 20260508161556 | 69 | 16 | 0.0 | 1.0 | 0.00 | 0.02 | 0.01 | 38 | 1015.1 |
| 20260508161522 | 69 | 355 | 0.0 | 0.0 | 0.00 | 0.02 | 0.01 | 37 | 1015.0 |
| 20260508161436 | 69 | 292 | 0.0 | 0.0 | 0.00 | 0.02 | 0.01 | 36 | 1015.0 |
| 20260508161320 | 69 | 290 | 0.0 | 0.0 | 0.00 | 0.02 | 0.01 | 34 | 1015.0 |
| 20260508161243 | 69 | 277 | 0.0 | 0.0 | 0.00 | 0.02 | 0.01 | 43 | 1015.1 |
| 20260508161135 | 69 | 91 | 0.0 | 0.0 | 0.00 | 0.02 | 0.01 | 43 | 1015.2 |
| 20260508161036 | 69 | 18 | 0.0 | 0.0 | 0.00 | 0.02 | 0.01 | 45 | 1015.3 |
| 20260508160919 | 69 | 72 | 0.0 | 0.0 | 0.00 | 0.02 | 0.01 | 41 | 1015.3 |
| 20260508160833 | 68 | 71 | 0.0 | 0.0 | 0.00 | 0.02 | 0.01 | 37 | 1015.3 |
| 20260508160719 | 68 | 120 | 0.0 | 0.0 | 0.00 | 0.02 | 0.01 | 35 | 1015.3 |
| 20260508160626 | 68 | 321 | 0.0 | 0.0 | 0.00 | 0.02 | 0.01 | 37 | 1015.3 |
| 20260508160517 | 68 | 292 | 0.0 | 0.0 | 0.00 | 0.02 | 0.01 | 35 | 1015.3 |
| 20260508160450 | 68 | 311 | 0.0 | 0.0 | 0.00 | 0.02 | 0.01 | 35 | 1015.4 |
| 20260508160314 | 68 | 9 | 0.0 | 8.0 | 0.00 | 0.02 | 0.01 | 35 | 1015.4 |
| 20260508160222 | 68 | 12 | 0.0 | 8.0 | 0.00 | 0.02 | 0.01 | 35 | 1015.4 |
| 20260508160128 | 68 | 279 | 0.0 | 8.0 | 0.00 | 0.02 | 0.01 | 38 | 1015.5 |
| 20260508160032 | 68 | 5 | 0.0 | 8.0 | 0.00 | 0.02 | 0.01 | 38 | 1015.7 |
| 20260508160015 | 68 | 305 | 0.0 | 8.0 | 0.00 | 0.02 | 0.01 | 37 | 1015.5 |
| 20260508155931 | 68 | 245 | 0.0 | 8.0 | 0.00 | 0.02 | 0.01 | 37 | 1015.5 |
| 20260508155817 | 68 | 58 | 0.0 | 8.0 | 0.00 | 0.02 | 0.01 | 40 | 1015.6 |
| 20260508155721 | 68 | 49 | 1.0 | 8.0 | 0.00 | 0.02 | 0.01 | 34 | 1015.6 |
| 20260508155620 | 68 | 340 | 3.0 | 9.0 | 0.00 | 0.02 | 0.01 | 37 | 1015.6 |
| 20260508155547 | 68 | 252 | 2.0 | 9.0 | 0.00 | 0.02 | 0.01 | 37 | 1015.6 |
| 20260508155431 | 68 | 299 | 0.0 | 9.0 | 0.00 | 0.02 | 0.01 | 41 | 1015.6 |
| 20260508155327 | 68 | 49 | 0.0 | 9.0 | 0.00 | 0.02 | 0.01 | 35 | 1015.6 |
| 20260508155233 | 68 | 55 | 0.0 | 9.0 | 0.00 | 0.02 | 0.01 | 37 | 1015.6 |
| 20260508155118 | 68 | 294 | 0.0 | 9.0 | 0.00 | 0.02 | 0.01 | 35 | 1015.6 |
| 20260508155018 | 68 | 306 | 2.0 | 9.0 | 0.00 | 0.02 | 0.01 | 38 | 1015.6 |
| 20260508154930 | 68 | 321 | 4.0 | 9.0 | 0.00 | 0.02 | 0.01 | 39 | 1015.7 |
| 20260508154834 | 69 | 149 | 2.0 | 9.0 | 0.00 | 0.02 | 0.01 | 35 | 1015.8 |
| 20260508154710 | 68 | 288 | 0.0 | 0.0 | 0.00 | 0.02 | 0.01 | 40 | 1015.7 |
| 20260508154636 | 68 | 9 | 0.0 | 0.0 | 0.00 | 0.02 | 0.01 | 38 | 1015.8 |
| 20260508154612 | 68 | 328 | 0.0 | 0.0 | 0.00 | 0.02 | 0.01 | 38 | 1015.7 |
| 20260508154542 | 68 | 32 | 0.0 | 0.0 | 0.00 | 0.02 | 0.01 | 46 | 1015.7 |
| 20260508154427 | 68 | 200 | 0.0 | 0.0 | 0.00 | 0.03 | 0.01 | 41 | 1015.7 |
| 20260508154314 | 68 | 89 | 0.0 | 0.0 | 0.00 | 0.03 | 0.01 | 41 | 1015.8 |
| 20260508154220 | 68 | 36 | 0.0 | 0.0 | 0.00 | 0.03 | 0.01 | 37 | 1015.8 |
| 20260508154110 | 68 | 96 | 0.0 | 0.0 | 0.00 | 0.03 | 0.01 | 38 | 1015.8 |
| 20260508154023 | 68 | 300 | 0.0 | 0.0 | 0.00 | 0.03 | 0.01 | 43 | 1015.8 |
| 20260508153930 | 67 | 37 | 0.0 | 0.0 | 0.00 | 0.03 | 0.01 | 40 | 1015.8 |
| 20260508153814 | 67 | 219 | 0.0 | 0.0 | 0.00 | 0.03 | 0.01 | 37 | 1015.8 |
| 20260508153744 | 67 | 296 | 0.0 | 0.0 | 0.00 | 0.03 | 0.01 | 36 | 1015.8 |
| 20260508153625 | 67 | 331 | 0.0 | 0.0 | 0.00 | 0.03 | 0.01 | 41 | 1015.8 |
| 20260508153512 | 67 | 37 | 0.0 | 0.0 | 0.00 | 0.03 | 0.01 | 40 | 1015.8 |
| 20260508153429 | 67 | 36 | 0.0 | 0.0 | 0.00 | 0.03 | 0.01 | 40 | 1015.8 |
| 20260508153329 | 67 | 330 | 0.0 | 0.0 | 0.00 | 0.03 | 0.01 | 38 | 1015.8 |
| 20260508153209 | 67 | 30 | 0.0 | 0.0 | 0.00 | 0.03 | 0.01 | 37 | 1015.8 |
| 20260508153115 | 67 | 71 | 0.0 | 0.0 | 0.00 | 0.03 | 0.01 | 37 | 1015.8 |
| 20260508153049 | 67 | 57 | 0.0 | 0.0 | 0.00 | 0.03 | 0.01 | 37 | 1015.8 |
| 20260508153009 | 66 | 57 | 0.0 | 0.0 | 0.00 | 0.03 | 0.01 | 40 | 1016.0 |
| 20260508152935 | 67 | 30 | 0.0 | 0.0 | 0.00 | 0.03 | 0.01 | 40 | 1015.8 |
| 20260508152816 | 67 | 5 | 0.0 | 0.0 | 0.00 | 0.03 | 0.01 | 38 | 1015.8 |
| 20260508152749 | 67 | 22 | 0.0 | 0.0 | 0.00 | 0.03 | 0.01 | 39 | 1015.9 |
| 20260508152615 | 67 | 355 | 0.0 | 0.0 | 0.00 | 0.03 | 0.01 | 40 | 1015.9 |
| 20260508152521 | 67 | 34 | 0.0 | 0.0 | 0.00 | 0.03 | 0.01 | 39 | 1015.9 |
| 20260508152434 | 67 | 92 | 0.0 | 0.0 | 0.00 | 0.03 | 0.01 | 35 | 1015.9 |
| 20260508152315 | 67 | 326 | 0.0 | 0.0 | 0.00 | 0.03 | 0.01 | 40 | 1015.9 |
| 20260508152231 | 67 | 136 | 0.0 | 0.0 | 0.00 | 0.03 | 0.01 | 38 | 1015.9 |
| 20260508152117 | 67 | 99 | 0.0 | 0.0 | 0.00 | 0.03 | 0.01 | 40 | 1015.9 |
| 20260508152043 | 67 | 42 | 0.0 | 0.0 | 0.00 | 0.03 | 0.01 | 38 | 1015.9 |
| 20260508151935 | 67 | 121 | 0.0 | 0.0 | 0.00 | 0.03 | 0.01 | 41 | 1015.9 |
| 20260508151821 | 67 | 47 | 0.0 | 0.0 | 0.00 | 0.03 | 0.01 | 39 | 1015.9 |
| 20260508151727 | 67 | 322 | 0.0 | 0.0 | 0.00 | 0.03 | 0.01 | 39 | 1015.9 |
| 20260508151616 | 67 | 311 | 0.0 | 0.0 | 0.00 | 0.03 | 0.01 | 41 | 1015.9 |
| 20260508151547 | 66 | 62 | 0.0 | 0.0 | 0.00 | 0.03 | 0.01 | 38 | 1016.1 |
| 20260508151522 | 67 | 48 | 0.0 | 0.0 | 0.00 | 0.03 | 0.01 | 38 | 1015.9 |
| 20260508151437 | 66 | 69 | 0.0 | 0.0 | 0.00 | 0.03 | 0.01 | 38 | 1015.9 |
| 20260508151322 | 66 | 85 | 0.0 | 0.0 | 0.00 | 0.03 | 0.01 | 40 | 1015.9 |
| 20260508151248 | 66 | 70 | 0.0 | 0.0 | 0.00 | 0.03 | 0.01 | 43 | 1015.9 |
| 20260508151114 | 66 | 309 | 0.0 | 0.0 | 0.00 | 0.03 | 0.01 | 39 | 1015.9 |
| 20260508151031 | 66 | 355 | 0.0 | 0.0 | 0.00 | 0.03 | 0.01 | 41 | 1015.9 |
| 20260508150917 | 66 | 34 | 0.0 | 0.0 | 0.00 | 0.03 | 0.01 | 38 | 1015.9 |
| 20260508150824 | 66 | 315 | 0.0 | 0.0 | 0.00 | 0.03 | 0.01 | 42 | 1015.9 |
| 20260508150709 | 66 | 57 | 0.0 | 0.0 | 0.00 | 0.03 | 0.01 | 42 | 1015.9 |
| 20260508150616 | 66 | 355 | 0.0 | 0.0 | 0.00 | 0.03 | 0.01 | 39 | 1015.9 |
| 20260508150519 | 66 | 342 | 0.0 | 0.0 | 0.00 | 0.03 | 0.01 | 40 | 1015.9 |
| 20260508150409 | 66 | 184 | 0.0 | 0.0 | 0.00 | 0.03 | 0.01 | 42 | 1015.9 |
| 20260508150343 | 66 | 296 | 0.0 | 0.0 | 0.00 | 0.03 | 0.01 | 46 | 1015.9 |
| 20260508150215 | 66 | 26 | 0.0 | 0.0 | 0.00 | 0.03 | 0.01 | 39 | 1016.0 |
| 20260508150128 | 66 | 236 | 0.0 | 0.0 | 0.00 | 0.03 | 0.01 | 39 | 1016.0 |
| 20260508150106 | 65 | 231 | 0.0 | 0.0 | 0.00 | 0.03 | 0.01 | 42 | 1016.2 |
| 20260508150011 | 66 | 244 | 0.0 | 0.0 | 0.00 | 0.03 | 0.01 | 40 | 1016.0 |
| 20260508145918 | 66 | 22 | 0.0 | 0.0 | 0.00 | 0.03 | 0.01 | 41 | 1016.0 |
| 20260508145828 | 66 | 240 | 0.0 | 0.0 | 0.00 | 0.03 | 0.01 | 41 | 1016.0 |
| 20260508145714 | 66 | 296 | 0.0 | 0.0 | 0.00 | 0.03 | 0.01 | 41 | 1016.1 |
| 20260508145624 | 66 | 111 | 0.0 | 0.0 | 0.00 | 0.03 | 0.01 | 40 | 1016.1 |
| 20260508145531 | 66 | 109 | 0.0 | 0.0 | 0.00 | 0.03 | 0.01 | 43 | 1016.0 |
| 20260508145416 | 66 | 68 | 0.0 | 1.0 | 0.00 | 0.03 | 0.01 | 42 | 1016.0 |
| 20260508145327 | 66 | 49 | 0.0 | 3.0 | 0.00 | 0.03 | 0.01 | 40 | 1016.0 |
| 20260508145213 | 66 | 130 | 0.0 | 8.0 | 0.00 | 0.03 | 0.01 | 46 | 1016.0 |
| 20260508145146 | 66 | 91 | 0.0 | 8.0 | 0.00 | 0.03 | 0.01 | 42 | 1016.0 |
| 20260508145011 | 66 | 90 | 0.0 | 8.0 | 0.00 | 0.03 | 0.01 | 39 | 1016.0 |
| 20260508144917 | 65 | 103 | 0.0 | 8.0 | 0.00 | 0.03 | 0.01 | 41 | 1016.0 |
| 20260508144823 | 65 | 18 | 0.0 | 8.0 | 0.00 | 0.03 | 0.01 | 44 | 1016.1 |
| 20260508144715 | 65 | 83 | 0.0 | 8.0 | 0.00 | 0.03 | 0.01 | 42 | 1016.1 |
| 20260508144647 | 65 | 273 | 0.0 | 8.0 | 0.00 | 0.03 | 0.01 | 45 | 1016.1 |
| 20260508144600 | 65 | 5 | 1.0 | 8.0 | 0.00 | 0.03 | 0.01 | 42 | 1016.3 |
| 20260508144512 | 65 | 71 | 2.0 | 8.0 | 0.00 | 0.03 | 0.01 | 42 | 1016.0 |
| 20260508144439 | 65 | 82 | 1.0 | 8.0 | 0.00 | 0.03 | 0.01 | 45 | 1016.0 |
| 20260508144331 | 65 | 64 | 0.0 | 7.0 | 0.00 | 0.03 | 0.01 | 45 | 1016.0 |
| 20260508144217 | 65 | 28 | 0.0 | 7.0 | 0.00 | 0.03 | 0.01 | 44 | 1016.0 |
| 20260508144128 | 65 | 344 | 0.0 | 7.0 | 0.00 | 0.03 | 0.01 | 42 | 1016.0 |
| 20260508144014 | 65 | 332 | 0.0 | 7.0 | 0.00 | 0.03 | 0.01 | 43 | 1016.1 |
| 20260508143921 | 65 | 306 | 0.0 | 7.0 | 0.00 | 0.03 | 0.01 | 40 | 1016.1 |
| 20260508143834 | 65 | 49 | 1.0 | 7.0 | 0.00 | 0.03 | 0.01 | 43 | 1016.1 |